<?xml version="1.0" encoding="UTF-8" standalone="no" ?>
<gpx xmlns="http://www.topografix.com/GPX/1/1" xmlns:xsi="http://www.w3.org/2001/XMLSchema-instance" xsi:schemaLocation="http://www.topografix.com/GPX/1/1 http://www.topografix.com/GPX/1/1/gpx.xsd" version="1.1" creator="VisuGPX - https://www.visugpx.com">
  <metadata>
    <name>Champagnat Cyclisme sur route</name>
  </metadata>
  <trk>
    <name><![CDATA[Champagnat Cyclisme sur route_1]]></name>
    <trkseg>
      <trkpt lat="46.48273" lon="5.36842">
        <ele>277.6</ele>
        <time>2021-11-18T12:59:08Z</time>
      </trkpt>
      <trkpt lat="46.48265" lon="5.3683">
        <ele>276.4</ele>
        <time>2021-11-18T12:59:09Z</time>
      </trkpt>
      <trkpt lat="46.48255" lon="5.3682">
        <ele>275.6</ele>
        <time>2021-11-18T12:59:10Z</time>
      </trkpt>
      <trkpt lat="46.48245" lon="5.36811">
        <ele>274.4</ele>
        <time>2021-11-18T12:59:11Z</time>
      </trkpt>
      <trkpt lat="46.48234" lon="5.36802">
        <ele>274</ele>
        <time>2021-11-18T12:59:12Z</time>
      </trkpt>
      <trkpt lat="46.48226" lon="5.36795">
        <ele>273.2</ele>
        <time>2021-11-18T12:59:13Z</time>
      </trkpt>
      <trkpt lat="46.48202" lon="5.36775">
        <ele>271.8</ele>
        <time>2021-11-18T12:59:15Z</time>
      </trkpt>
      <trkpt lat="46.48181" lon="5.36757">
        <ele>270.4</ele>
        <time>2021-11-18T12:59:17Z</time>
      </trkpt>
      <trkpt lat="46.48171" lon="5.36748">
        <ele>269.2</ele>
        <time>2021-11-18T12:59:18Z</time>
      </trkpt>
      <trkpt lat="46.4815" lon="5.36731">
        <ele>268</ele>
        <time>2021-11-18T12:59:20Z</time>
      </trkpt>
      <trkpt lat="46.4814" lon="5.36723">
        <ele>267.6</ele>
        <time>2021-11-18T12:59:21Z</time>
      </trkpt>
      <trkpt lat="46.48131" lon="5.36716">
        <ele>266.6</ele>
        <time>2021-11-18T12:59:22Z</time>
      </trkpt>
      <trkpt lat="46.48116" lon="5.36704">
        <ele>265.6</ele>
        <time>2021-11-18T12:59:24Z</time>
      </trkpt>
      <trkpt lat="46.48111" lon="5.36698">
        <ele>264.6</ele>
        <time>2021-11-18T12:59:25Z</time>
      </trkpt>
      <trkpt lat="46.48108" lon="5.36691">
        <ele>264.4</ele>
        <time>2021-11-18T12:59:26Z</time>
      </trkpt>
      <trkpt lat="46.48109" lon="5.36683">
        <ele>263.8</ele>
        <time>2021-11-18T12:59:27Z</time>
      </trkpt>
      <trkpt lat="46.48113" lon="5.36677">
        <ele>263.2</ele>
        <time>2021-11-18T12:59:28Z</time>
      </trkpt>
      <trkpt lat="46.48119" lon="5.36671">
        <ele>262.2</ele>
        <time>2021-11-18T12:59:29Z</time>
      </trkpt>
      <trkpt lat="46.48132" lon="5.36658">
        <ele>261</ele>
        <time>2021-11-18T12:59:31Z</time>
      </trkpt>
      <trkpt lat="46.48137" lon="5.36651">
        <ele>260.2</ele>
        <time>2021-11-18T12:59:32Z</time>
      </trkpt>
      <trkpt lat="46.48142" lon="5.36644">
        <ele>260</ele>
        <time>2021-11-18T12:59:33Z</time>
      </trkpt>
      <trkpt lat="46.48162" lon="5.36624">
        <ele>258.8</ele>
        <time>2021-11-18T12:59:36Z</time>
      </trkpt>
      <trkpt lat="46.48183" lon="5.36609">
        <ele>258.4</ele>
        <time>2021-11-18T12:59:39Z</time>
      </trkpt>
      <trkpt lat="46.48191" lon="5.36606">
        <ele>258.4</ele>
        <time>2021-11-18T12:59:40Z</time>
      </trkpt>
      <trkpt lat="46.48208" lon="5.36605">
        <ele>258.4</ele>
        <time>2021-11-18T12:59:42Z</time>
      </trkpt>
      <trkpt lat="46.48221" lon="5.36595">
        <ele>258.2</ele>
        <time>2021-11-18T12:59:44Z</time>
      </trkpt>
      <trkpt lat="46.48225" lon="5.36577">
        <ele>258.2</ele>
        <time>2021-11-18T12:59:46Z</time>
      </trkpt>
      <trkpt lat="46.48231" lon="5.3656">
        <ele>257.8</ele>
        <time>2021-11-18T12:59:48Z</time>
      </trkpt>
      <trkpt lat="46.48236" lon="5.36554">
        <ele>257.6</ele>
        <time>2021-11-18T12:59:49Z</time>
      </trkpt>
      <trkpt lat="46.48242" lon="5.36548">
        <ele>257.4</ele>
        <time>2021-11-18T12:59:50Z</time>
      </trkpt>
      <trkpt lat="46.4827" lon="5.36517">
        <ele>256.8</ele>
        <time>2021-11-18T12:59:55Z</time>
      </trkpt>
      <trkpt lat="46.48276" lon="5.36511">
        <ele>256.8</ele>
        <time>2021-11-18T12:59:56Z</time>
      </trkpt>
      <trkpt lat="46.48311" lon="5.36472">
        <ele>255.6</ele>
        <time>2021-11-18T13:00:02Z</time>
      </trkpt>
      <trkpt lat="46.48347" lon="5.36431">
        <ele>254.4</ele>
        <time>2021-11-18T13:00:08Z</time>
      </trkpt>
      <trkpt lat="46.48353" lon="5.36424">
        <ele>254.2</ele>
        <time>2021-11-18T13:00:09Z</time>
      </trkpt>
      <trkpt lat="46.48377" lon="5.36397">
        <ele>253</ele>
        <time>2021-11-18T13:00:13Z</time>
      </trkpt>
      <trkpt lat="46.48409" lon="5.36366">
        <ele>252</ele>
        <time>2021-11-18T13:00:18Z</time>
      </trkpt>
      <trkpt lat="46.48415" lon="5.36362">
        <ele>251.8</ele>
        <time>2021-11-18T13:00:19Z</time>
      </trkpt>
      <trkpt lat="46.48434" lon="5.36353">
        <ele>251</ele>
        <time>2021-11-18T13:00:22Z</time>
      </trkpt>
      <trkpt lat="46.48442" lon="5.36351">
        <ele>250.8</ele>
        <time>2021-11-18T13:00:23Z</time>
      </trkpt>
      <trkpt lat="46.48448" lon="5.3635">
        <ele>250.8</ele>
        <time>2021-11-18T13:00:24Z</time>
      </trkpt>
      <trkpt lat="46.48507" lon="5.3634">
        <ele>250.2</ele>
        <time>2021-11-18T13:00:33Z</time>
      </trkpt>
      <trkpt lat="46.48561" lon="5.3633">
        <ele>250.4</ele>
        <time>2021-11-18T13:00:41Z</time>
      </trkpt>
      <trkpt lat="46.48602" lon="5.36324">
        <ele>249.8</ele>
        <time>2021-11-18T13:00:47Z</time>
      </trkpt>
      <trkpt lat="46.4861" lon="5.36322">
        <ele>249.6</ele>
        <time>2021-11-18T13:00:48Z</time>
      </trkpt>
      <trkpt lat="46.48616" lon="5.36318">
        <ele>249.2</ele>
        <time>2021-11-18T13:00:49Z</time>
      </trkpt>
      <trkpt lat="46.48622" lon="5.36312">
        <ele>248.8</ele>
        <time>2021-11-18T13:00:50Z</time>
      </trkpt>
      <trkpt lat="46.48632" lon="5.36292">
        <ele>248.2</ele>
        <time>2021-11-18T13:00:52Z</time>
      </trkpt>
      <trkpt lat="46.48636" lon="5.36269">
        <ele>247.4</ele>
        <time>2021-11-18T13:00:54Z</time>
      </trkpt>
      <trkpt lat="46.48639" lon="5.36245">
        <ele>246.4</ele>
        <time>2021-11-18T13:00:56Z</time>
      </trkpt>
      <trkpt lat="46.4864" lon="5.36232">
        <ele>245.8</ele>
        <time>2021-11-18T13:00:57Z</time>
      </trkpt>
      <trkpt lat="46.48642" lon="5.36208">
        <ele>245.2</ele>
        <time>2021-11-18T13:00:59Z</time>
      </trkpt>
      <trkpt lat="46.48647" lon="5.36161">
        <ele>244</ele>
        <time>2021-11-18T13:01:03Z</time>
      </trkpt>
      <trkpt lat="46.48659" lon="5.36094">
        <ele>243</ele>
        <time>2021-11-18T13:01:09Z</time>
      </trkpt>
      <trkpt lat="46.48672" lon="5.36035">
        <ele>242.8</ele>
        <time>2021-11-18T13:01:15Z</time>
      </trkpt>
      <trkpt lat="46.48678" lon="5.35983">
        <ele>243.4</ele>
        <time>2021-11-18T13:01:21Z</time>
      </trkpt>
      <trkpt lat="46.48685" lon="5.35936">
        <ele>244.2</ele>
        <time>2021-11-18T13:01:26Z</time>
      </trkpt>
      <trkpt lat="46.48687" lon="5.35926">
        <ele>244.2</ele>
        <time>2021-11-18T13:01:27Z</time>
      </trkpt>
      <trkpt lat="46.48689" lon="5.35916">
        <ele>244.2</ele>
        <time>2021-11-18T13:01:28Z</time>
      </trkpt>
      <trkpt lat="46.48699" lon="5.35887">
        <ele>244.4</ele>
        <time>2021-11-18T13:01:31Z</time>
      </trkpt>
      <trkpt lat="46.48727" lon="5.3582">
        <ele>243.4</ele>
        <time>2021-11-18T13:01:38Z</time>
      </trkpt>
      <trkpt lat="46.48732" lon="5.35811">
        <ele>243.4</ele>
        <time>2021-11-18T13:01:39Z</time>
      </trkpt>
      <trkpt lat="46.48756" lon="5.35757">
        <ele>242.4</ele>
        <time>2021-11-18T13:01:45Z</time>
      </trkpt>
      <trkpt lat="46.48759" lon="5.35748">
        <ele>242.2</ele>
        <time>2021-11-18T13:01:46Z</time>
      </trkpt>
      <trkpt lat="46.48771" lon="5.35722">
        <ele>241.8</ele>
        <time>2021-11-18T13:01:49Z</time>
      </trkpt>
      <trkpt lat="46.48794" lon="5.35672">
        <ele>241.6</ele>
        <time>2021-11-18T13:01:55Z</time>
      </trkpt>
      <trkpt lat="46.48825" lon="5.35599">
        <ele>241.6</ele>
        <time>2021-11-18T13:02:04Z</time>
      </trkpt>
      <trkpt lat="46.48832" lon="5.35584">
        <ele>241.6</ele>
        <time>2021-11-18T13:02:06Z</time>
      </trkpt>
      <trkpt lat="46.48836" lon="5.35577">
        <ele>241.6</ele>
        <time>2021-11-18T13:02:07Z</time>
      </trkpt>
      <trkpt lat="46.48845" lon="5.35567">
        <ele>241.6</ele>
        <time>2021-11-18T13:02:09Z</time>
      </trkpt>
      <trkpt lat="46.48852" lon="5.35563">
        <ele>241.4</ele>
        <time>2021-11-18T13:02:10Z</time>
      </trkpt>
      <trkpt lat="46.48859" lon="5.35561">
        <ele>241.4</ele>
        <time>2021-11-18T13:02:11Z</time>
      </trkpt>
      <trkpt lat="46.4888" lon="5.3556">
        <ele>241.4</ele>
        <time>2021-11-18T13:02:14Z</time>
      </trkpt>
      <trkpt lat="46.48902" lon="5.35559">
        <ele>241.2</ele>
        <time>2021-11-18T13:02:17Z</time>
      </trkpt>
      <trkpt lat="46.48941" lon="5.35558">
        <ele>240.2</ele>
        <time>2021-11-18T13:02:22Z</time>
      </trkpt>
      <trkpt lat="46.48972" lon="5.35556">
        <ele>239</ele>
        <time>2021-11-18T13:02:26Z</time>
      </trkpt>
      <trkpt lat="46.49011" lon="5.35554">
        <ele>238.2</ele>
        <time>2021-11-18T13:02:31Z</time>
      </trkpt>
      <trkpt lat="46.49048" lon="5.35552">
        <ele>238.2</ele>
        <time>2021-11-18T13:02:36Z</time>
      </trkpt>
      <trkpt lat="46.49086" lon="5.3555">
        <ele>238.8</ele>
        <time>2021-11-18T13:02:42Z</time>
      </trkpt>
      <trkpt lat="46.49132" lon="5.35548">
        <ele>240</ele>
        <time>2021-11-18T13:02:50Z</time>
      </trkpt>
      <trkpt lat="46.49138" lon="5.35547">
        <ele>240.2</ele>
        <time>2021-11-18T13:02:51Z</time>
      </trkpt>
      <trkpt lat="46.49165" lon="5.35545">
        <ele>240.6</ele>
        <time>2021-11-18T13:02:56Z</time>
      </trkpt>
      <trkpt lat="46.4917" lon="5.35544">
        <ele>240.6</ele>
        <time>2021-11-18T13:02:57Z</time>
      </trkpt>
      <trkpt lat="46.492" lon="5.35543">
        <ele>241.4</ele>
        <time>2021-11-18T13:03:03Z</time>
      </trkpt>
      <trkpt lat="46.49206" lon="5.35543">
        <ele>241.4</ele>
        <time>2021-11-18T13:03:04Z</time>
      </trkpt>
      <trkpt lat="46.49212" lon="5.35543">
        <ele>241.6</ele>
        <time>2021-11-18T13:03:05Z</time>
      </trkpt>
      <trkpt lat="46.49225" lon="5.35542">
        <ele>241.8</ele>
        <time>2021-11-18T13:03:07Z</time>
      </trkpt>
      <trkpt lat="46.49251" lon="5.3554">
        <ele>242.2</ele>
        <time>2021-11-18T13:03:11Z</time>
      </trkpt>
      <trkpt lat="46.49257" lon="5.3554">
        <ele>242.4</ele>
        <time>2021-11-18T13:03:12Z</time>
      </trkpt>
      <trkpt lat="46.49264" lon="5.3554">
        <ele>242.4</ele>
        <time>2021-11-18T13:03:13Z</time>
      </trkpt>
      <trkpt lat="46.49313" lon="5.35537">
        <ele>242.6</ele>
        <time>2021-11-18T13:03:20Z</time>
      </trkpt>
      <trkpt lat="46.4937" lon="5.35534">
        <ele>242</ele>
        <time>2021-11-18T13:03:28Z</time>
      </trkpt>
      <trkpt lat="46.49409" lon="5.35543">
        <ele>241.4</ele>
        <time>2021-11-18T13:03:33Z</time>
      </trkpt>
      <trkpt lat="46.49416" lon="5.35546">
        <ele>241.2</ele>
        <time>2021-11-18T13:03:34Z</time>
      </trkpt>
      <trkpt lat="46.49473" lon="5.35569">
        <ele>240.4</ele>
        <time>2021-11-18T13:03:42Z</time>
      </trkpt>
      <trkpt lat="46.49486" lon="5.35574">
        <ele>240.2</ele>
        <time>2021-11-18T13:03:44Z</time>
      </trkpt>
      <trkpt lat="46.49541" lon="5.35597">
        <ele>239.6</ele>
        <time>2021-11-18T13:03:52Z</time>
      </trkpt>
      <trkpt lat="46.49548" lon="5.356">
        <ele>239.6</ele>
        <time>2021-11-18T13:03:53Z</time>
      </trkpt>
      <trkpt lat="46.49562" lon="5.35605">
        <ele>239.2</ele>
        <time>2021-11-18T13:03:55Z</time>
      </trkpt>
      <trkpt lat="46.49619" lon="5.35624">
        <ele>238.2</ele>
        <time>2021-11-18T13:04:03Z</time>
      </trkpt>
      <trkpt lat="46.49626" lon="5.35626">
        <ele>238</ele>
        <time>2021-11-18T13:04:04Z</time>
      </trkpt>
      <trkpt lat="46.49669" lon="5.35638">
        <ele>237.4</ele>
        <time>2021-11-18T13:04:10Z</time>
      </trkpt>
      <trkpt lat="46.49682" lon="5.35643">
        <ele>237.2</ele>
        <time>2021-11-18T13:04:12Z</time>
      </trkpt>
      <trkpt lat="46.49692" lon="5.35645">
        <ele>236.8</ele>
        <time>2021-11-18T13:04:14Z</time>
      </trkpt>
      <trkpt lat="46.49696" lon="5.35644">
        <ele>236.6</ele>
        <time>2021-11-18T13:04:15Z</time>
      </trkpt>
      <trkpt lat="46.497" lon="5.3564">
        <ele>236.2</ele>
        <time>2021-11-18T13:04:16Z</time>
      </trkpt>
      <trkpt lat="46.49706" lon="5.35628">
        <ele>235.8</ele>
        <time>2021-11-18T13:04:18Z</time>
      </trkpt>
      <trkpt lat="46.49707" lon="5.3562">
        <ele>235.6</ele>
        <time>2021-11-18T13:04:19Z</time>
      </trkpt>
      <trkpt lat="46.4971" lon="5.35593">
        <ele>235</ele>
        <time>2021-11-18T13:04:22Z</time>
      </trkpt>
      <trkpt lat="46.49712" lon="5.35573">
        <ele>234.8</ele>
        <time>2021-11-18T13:04:24Z</time>
      </trkpt>
      <trkpt lat="46.49718" lon="5.3553">
        <ele>234.6</ele>
        <time>2021-11-18T13:04:28Z</time>
      </trkpt>
      <trkpt lat="46.49722" lon="5.35498">
        <ele>234.6</ele>
        <time>2021-11-18T13:04:31Z</time>
      </trkpt>
      <trkpt lat="46.49732" lon="5.35412">
        <ele>234.4</ele>
        <time>2021-11-18T13:04:39Z</time>
      </trkpt>
      <trkpt lat="46.49734" lon="5.35401">
        <ele>234.2</ele>
        <time>2021-11-18T13:04:40Z</time>
      </trkpt>
      <trkpt lat="46.49735" lon="5.35389">
        <ele>234</ele>
        <time>2021-11-18T13:04:41Z</time>
      </trkpt>
      <trkpt lat="46.49735" lon="5.35332">
        <ele>233.2</ele>
        <time>2021-11-18T13:04:46Z</time>
      </trkpt>
      <trkpt lat="46.49734" lon="5.35322">
        <ele>233</ele>
        <time>2021-11-18T13:04:47Z</time>
      </trkpt>
      <trkpt lat="46.49727" lon="5.35282">
        <ele>233</ele>
        <time>2021-11-18T13:04:51Z</time>
      </trkpt>
      <trkpt lat="46.49713" lon="5.35217">
        <ele>233.4</ele>
        <time>2021-11-18T13:04:58Z</time>
      </trkpt>
      <trkpt lat="46.49698" lon="5.35141">
        <ele>233.6</ele>
        <time>2021-11-18T13:05:06Z</time>
      </trkpt>
      <trkpt lat="46.49693" lon="5.3512">
        <ele>233.4</ele>
        <time>2021-11-18T13:05:08Z</time>
      </trkpt>
      <trkpt lat="46.49677" lon="5.3504">
        <ele>233</ele>
        <time>2021-11-18T13:05:16Z</time>
      </trkpt>
      <trkpt lat="46.49676" lon="5.35031">
        <ele>233</ele>
        <time>2021-11-18T13:05:17Z</time>
      </trkpt>
      <trkpt lat="46.49665" lon="5.34979">
        <ele>233.6</ele>
        <time>2021-11-18T13:05:23Z</time>
      </trkpt>
      <trkpt lat="46.49658" lon="5.34939">
        <ele>234.4</ele>
        <time>2021-11-18T13:05:28Z</time>
      </trkpt>
      <trkpt lat="46.49651" lon="5.34905">
        <ele>235.2</ele>
        <time>2021-11-18T13:05:32Z</time>
      </trkpt>
      <trkpt lat="46.49637" lon="5.34835">
        <ele>235.2</ele>
        <time>2021-11-18T13:05:40Z</time>
      </trkpt>
      <trkpt lat="46.4963" lon="5.34783">
        <ele>235</ele>
        <time>2021-11-18T13:05:45Z</time>
      </trkpt>
      <trkpt lat="46.4963" lon="5.34723">
        <ele>234</ele>
        <time>2021-11-18T13:05:50Z</time>
      </trkpt>
      <trkpt lat="46.49632" lon="5.34697">
        <ele>233</ele>
        <time>2021-11-18T13:05:52Z</time>
      </trkpt>
      <trkpt lat="46.49635" lon="5.34656">
        <ele>232</ele>
        <time>2021-11-18T13:05:54Z</time>
      </trkpt>
      <trkpt lat="46.4964" lon="5.34614">
        <ele>231</ele>
        <time>2021-11-18T13:05:57Z</time>
      </trkpt>
      <trkpt lat="46.49641" lon="5.34599">
        <ele>230.8</ele>
        <time>2021-11-18T13:05:58Z</time>
      </trkpt>
      <trkpt lat="46.49648" lon="5.34557">
        <ele>229.6</ele>
        <time>2021-11-18T13:06:01Z</time>
      </trkpt>
      <trkpt lat="46.49653" lon="5.34531">
        <ele>229.2</ele>
        <time>2021-11-18T13:06:03Z</time>
      </trkpt>
      <trkpt lat="46.49656" lon="5.34519">
        <ele>228.8</ele>
        <time>2021-11-18T13:06:04Z</time>
      </trkpt>
      <trkpt lat="46.49671" lon="5.34466">
        <ele>228</ele>
        <time>2021-11-18T13:06:09Z</time>
      </trkpt>
      <trkpt lat="46.49688" lon="5.34404">
        <ele>229.4</ele>
        <time>2021-11-18T13:06:16Z</time>
      </trkpt>
      <trkpt lat="46.49693" lon="5.34389">
        <ele>229.8</ele>
        <time>2021-11-18T13:06:18Z</time>
      </trkpt>
      <trkpt lat="46.49694" lon="5.34381">
        <ele>230</ele>
        <time>2021-11-18T13:06:19Z</time>
      </trkpt>
      <trkpt lat="46.49703" lon="5.34353">
        <ele>230.8</ele>
        <time>2021-11-18T13:06:23Z</time>
      </trkpt>
      <trkpt lat="46.49707" lon="5.34338">
        <ele>231.2</ele>
        <time>2021-11-18T13:06:25Z</time>
      </trkpt>
      <trkpt lat="46.49716" lon="5.34316">
        <ele>231.8</ele>
        <time>2021-11-18T13:06:28Z</time>
      </trkpt>
      <trkpt lat="46.49728" lon="5.34294">
        <ele>232.2</ele>
        <time>2021-11-18T13:06:31Z</time>
      </trkpt>
      <trkpt lat="46.49745" lon="5.34261">
        <ele>232.6</ele>
        <time>2021-11-18T13:06:35Z</time>
      </trkpt>
      <trkpt lat="46.49783" lon="5.34194">
        <ele>233.2</ele>
        <time>2021-11-18T13:06:44Z</time>
      </trkpt>
      <trkpt lat="46.49807" lon="5.34152">
        <ele>233.4</ele>
        <time>2021-11-18T13:06:50Z</time>
      </trkpt>
      <trkpt lat="46.49816" lon="5.34139">
        <ele>233.4</ele>
        <time>2021-11-18T13:06:52Z</time>
      </trkpt>
      <trkpt lat="46.49843" lon="5.34097">
        <ele>233.6</ele>
        <time>2021-11-18T13:06:58Z</time>
      </trkpt>
      <trkpt lat="46.49884" lon="5.3404">
        <ele>233.2</ele>
        <time>2021-11-18T13:07:06Z</time>
      </trkpt>
      <trkpt lat="46.49921" lon="5.33999">
        <ele>233</ele>
        <time>2021-11-18T13:07:13Z</time>
      </trkpt>
      <trkpt lat="46.49946" lon="5.33973">
        <ele>234</ele>
        <time>2021-11-18T13:07:18Z</time>
      </trkpt>
      <trkpt lat="46.4997" lon="5.33947">
        <ele>234.6</ele>
        <time>2021-11-18T13:07:23Z</time>
      </trkpt>
      <trkpt lat="46.49987" lon="5.33931">
        <ele>234.8</ele>
        <time>2021-11-18T13:07:26Z</time>
      </trkpt>
      <trkpt lat="46.50008" lon="5.33909">
        <ele>235.8</ele>
        <time>2021-11-18T13:07:30Z</time>
      </trkpt>
      <trkpt lat="46.50023" lon="5.33892">
        <ele>235.8</ele>
        <time>2021-11-18T13:07:33Z</time>
      </trkpt>
      <trkpt lat="46.50071" lon="5.33838">
        <ele>235.6</ele>
        <time>2021-11-18T13:07:41Z</time>
      </trkpt>
      <trkpt lat="46.50102" lon="5.33803">
        <ele>234.4</ele>
        <time>2021-11-18T13:07:46Z</time>
      </trkpt>
      <trkpt lat="46.50121" lon="5.33783">
        <ele>234</ele>
        <time>2021-11-18T13:07:49Z</time>
      </trkpt>
      <trkpt lat="46.50139" lon="5.33763">
        <ele>233.6</ele>
        <time>2021-11-18T13:07:52Z</time>
      </trkpt>
      <trkpt lat="46.50145" lon="5.33757">
        <ele>233.4</ele>
        <time>2021-11-18T13:07:53Z</time>
      </trkpt>
      <trkpt lat="46.50151" lon="5.33751">
        <ele>233.4</ele>
        <time>2021-11-18T13:07:54Z</time>
      </trkpt>
      <trkpt lat="46.50196" lon="5.33704">
        <ele>233.4</ele>
        <time>2021-11-18T13:08:02Z</time>
      </trkpt>
      <trkpt lat="46.5024" lon="5.33656">
        <ele>233.4</ele>
        <time>2021-11-18T13:08:10Z</time>
      </trkpt>
      <trkpt lat="46.50258" lon="5.33637">
        <ele>233.4</ele>
        <time>2021-11-18T13:08:13Z</time>
      </trkpt>
      <trkpt lat="46.50307" lon="5.33584">
        <ele>233.2</ele>
        <time>2021-11-18T13:08:21Z</time>
      </trkpt>
      <trkpt lat="46.50313" lon="5.33577">
        <ele>233</ele>
        <time>2021-11-18T13:08:22Z</time>
      </trkpt>
      <trkpt lat="46.50355" lon="5.33531">
        <ele>232.2</ele>
        <time>2021-11-18T13:08:29Z</time>
      </trkpt>
      <trkpt lat="46.50373" lon="5.33511">
        <ele>232</ele>
        <time>2021-11-18T13:08:32Z</time>
      </trkpt>
      <trkpt lat="46.50421" lon="5.33461">
        <ele>231.4</ele>
        <time>2021-11-18T13:08:40Z</time>
      </trkpt>
      <trkpt lat="46.50427" lon="5.33455">
        <ele>231.2</ele>
        <time>2021-11-18T13:08:41Z</time>
      </trkpt>
      <trkpt lat="46.50439" lon="5.33441">
        <ele>231</ele>
        <time>2021-11-18T13:08:43Z</time>
      </trkpt>
      <trkpt lat="46.50454" lon="5.33415">
        <ele>230.6</ele>
        <time>2021-11-18T13:08:46Z</time>
      </trkpt>
      <trkpt lat="46.50461" lon="5.33395">
        <ele>230</ele>
        <time>2021-11-18T13:08:48Z</time>
      </trkpt>
      <trkpt lat="46.50468" lon="5.33338">
        <ele>229.4</ele>
        <time>2021-11-18T13:08:53Z</time>
      </trkpt>
      <trkpt lat="46.50469" lon="5.33257">
        <ele>229.2</ele>
        <time>2021-11-18T13:09:01Z</time>
      </trkpt>
      <trkpt lat="46.5047" lon="5.33247">
        <ele>229.2</ele>
        <time>2021-11-18T13:09:02Z</time>
      </trkpt>
      <trkpt lat="46.5047" lon="5.33178">
        <ele>229.8</ele>
        <time>2021-11-18T13:09:09Z</time>
      </trkpt>
      <trkpt lat="46.50471" lon="5.33154">
        <ele>229.8</ele>
        <time>2021-11-18T13:09:11Z</time>
      </trkpt>
      <trkpt lat="46.50471" lon="5.33119">
        <ele>229.8</ele>
        <time>2021-11-18T13:09:14Z</time>
      </trkpt>
      <trkpt lat="46.50471" lon="5.3308">
        <ele>229</ele>
        <time>2021-11-18T13:09:17Z</time>
      </trkpt>
      <trkpt lat="46.50472" lon="5.33028">
        <ele>227.8</ele>
        <time>2021-11-18T13:09:21Z</time>
      </trkpt>
      <trkpt lat="46.50474" lon="5.3299">
        <ele>226.4</ele>
        <time>2021-11-18T13:09:24Z</time>
      </trkpt>
      <trkpt lat="46.50474" lon="5.32934">
        <ele>224.8</ele>
        <time>2021-11-18T13:09:28Z</time>
      </trkpt>
      <trkpt lat="46.50475" lon="5.32891">
        <ele>223.6</ele>
        <time>2021-11-18T13:09:31Z</time>
      </trkpt>
      <trkpt lat="46.50476" lon="5.32848">
        <ele>222.2</ele>
        <time>2021-11-18T13:09:34Z</time>
      </trkpt>
      <trkpt lat="46.50477" lon="5.32806">
        <ele>220.6</ele>
        <time>2021-11-18T13:09:37Z</time>
      </trkpt>
      <trkpt lat="46.50477" lon="5.32779">
        <ele>219.8</ele>
        <time>2021-11-18T13:09:39Z</time>
      </trkpt>
      <trkpt lat="46.50477" lon="5.32766">
        <ele>219</ele>
        <time>2021-11-18T13:09:40Z</time>
      </trkpt>
      <trkpt lat="46.50478" lon="5.32717">
        <ele>217.8</ele>
        <time>2021-11-18T13:09:44Z</time>
      </trkpt>
      <trkpt lat="46.50479" lon="5.32693">
        <ele>217.4</ele>
        <time>2021-11-18T13:09:46Z</time>
      </trkpt>
      <trkpt lat="46.5048" lon="5.32633">
        <ele>216.8</ele>
        <time>2021-11-18T13:09:51Z</time>
      </trkpt>
      <trkpt lat="46.50479" lon="5.32597">
        <ele>216.2</ele>
        <time>2021-11-18T13:09:54Z</time>
      </trkpt>
      <trkpt lat="46.50478" lon="5.32549">
        <ele>215.6</ele>
        <time>2021-11-18T13:09:58Z</time>
      </trkpt>
      <trkpt lat="46.50475" lon="5.32513">
        <ele>215.6</ele>
        <time>2021-11-18T13:10:01Z</time>
      </trkpt>
      <trkpt lat="46.50473" lon="5.32478">
        <ele>214.8</ele>
        <time>2021-11-18T13:10:04Z</time>
      </trkpt>
      <trkpt lat="46.50465" lon="5.32418">
        <ele>214.2</ele>
        <time>2021-11-18T13:10:09Z</time>
      </trkpt>
      <trkpt lat="46.50451" lon="5.32353">
        <ele>213.8</ele>
        <time>2021-11-18T13:10:15Z</time>
      </trkpt>
      <trkpt lat="46.50444" lon="5.32324">
        <ele>213.4</ele>
        <time>2021-11-18T13:10:18Z</time>
      </trkpt>
      <trkpt lat="46.50434" lon="5.32262">
        <ele>213.2</ele>
        <time>2021-11-18T13:10:24Z</time>
      </trkpt>
      <trkpt lat="46.50434" lon="5.32182">
        <ele>213</ele>
        <time>2021-11-18T13:10:31Z</time>
      </trkpt>
      <trkpt lat="46.50435" lon="5.32137">
        <ele>212.6</ele>
        <time>2021-11-18T13:10:35Z</time>
      </trkpt>
      <trkpt lat="46.50437" lon="5.3207">
        <ele>211.8</ele>
        <time>2021-11-18T13:10:41Z</time>
      </trkpt>
      <trkpt lat="46.50438" lon="5.32034">
        <ele>211.6</ele>
        <time>2021-11-18T13:10:44Z</time>
      </trkpt>
      <trkpt lat="46.50439" lon="5.31954">
        <ele>210.6</ele>
        <time>2021-11-18T13:10:51Z</time>
      </trkpt>
      <trkpt lat="46.5044" lon="5.31878">
        <ele>210.2</ele>
        <time>2021-11-18T13:10:58Z</time>
      </trkpt>
      <trkpt lat="46.50431" lon="5.31827">
        <ele>210</ele>
        <time>2021-11-18T13:11:03Z</time>
      </trkpt>
      <trkpt lat="46.50413" lon="5.31758">
        <ele>209.6</ele>
        <time>2021-11-18T13:11:10Z</time>
      </trkpt>
      <trkpt lat="46.5041" lon="5.31749">
        <ele>209.4</ele>
        <time>2021-11-18T13:11:11Z</time>
      </trkpt>
      <trkpt lat="46.50381" lon="5.31688">
        <ele>209</ele>
        <time>2021-11-18T13:11:18Z</time>
      </trkpt>
      <trkpt lat="46.50352" lon="5.31653">
        <ele>208.8</ele>
        <time>2021-11-18T13:11:23Z</time>
      </trkpt>
      <trkpt lat="46.50303" lon="5.31615">
        <ele>208.2</ele>
        <time>2021-11-18T13:11:30Z</time>
      </trkpt>
      <trkpt lat="46.50253" lon="5.31571">
        <ele>208</ele>
        <time>2021-11-18T13:11:38Z</time>
      </trkpt>
      <trkpt lat="46.50227" lon="5.31535">
        <ele>208</ele>
        <time>2021-11-18T13:11:43Z</time>
      </trkpt>
      <trkpt lat="46.5021" lon="5.31498">
        <ele>208.4</ele>
        <time>2021-11-18T13:11:48Z</time>
      </trkpt>
      <trkpt lat="46.50194" lon="5.31452">
        <ele>210</ele>
        <time>2021-11-18T13:11:55Z</time>
      </trkpt>
      <trkpt lat="46.50184" lon="5.31421">
        <ele>211</ele>
        <time>2021-11-18T13:12:00Z</time>
      </trkpt>
      <trkpt lat="46.5018" lon="5.31409">
        <ele>211.6</ele>
        <time>2021-11-18T13:12:02Z</time>
      </trkpt>
      <trkpt lat="46.50177" lon="5.31397">
        <ele>212.2</ele>
        <time>2021-11-18T13:12:04Z</time>
      </trkpt>
      <trkpt lat="46.50167" lon="5.31369">
        <ele>213.4</ele>
        <time>2021-11-18T13:12:09Z</time>
      </trkpt>
      <trkpt lat="46.50166" lon="5.31364">
        <ele>214</ele>
        <time>2021-11-18T13:12:11Z</time>
      </trkpt>
      <trkpt lat="46.50155" lon="5.31332">
        <ele>214.6</ele>
        <time>2021-11-18T13:12:15Z</time>
      </trkpt>
      <trkpt lat="46.50148" lon="5.31311">
        <ele>215.4</ele>
        <time>2021-11-18T13:12:18Z</time>
      </trkpt>
      <trkpt lat="46.50138" lon="5.31282">
        <ele>215.8</ele>
        <time>2021-11-18T13:12:22Z</time>
      </trkpt>
      <trkpt lat="46.50128" lon="5.31251">
        <ele>216.2</ele>
        <time>2021-11-18T13:12:26Z</time>
      </trkpt>
      <trkpt lat="46.50106" lon="5.31189">
        <ele>215.8</ele>
        <time>2021-11-18T13:12:33Z</time>
      </trkpt>
      <trkpt lat="46.50093" lon="5.3115">
        <ele>215</ele>
        <time>2021-11-18T13:12:37Z</time>
      </trkpt>
      <trkpt lat="46.50082" lon="5.31121">
        <ele>214.4</ele>
        <time>2021-11-18T13:12:40Z</time>
      </trkpt>
      <trkpt lat="46.5007" lon="5.31085">
        <ele>214</ele>
        <time>2021-11-18T13:12:44Z</time>
      </trkpt>
      <trkpt lat="46.50065" lon="5.31069">
        <ele>214</ele>
        <time>2021-11-18T13:12:46Z</time>
      </trkpt>
      <trkpt lat="46.50051" lon="5.3103">
        <ele>214.4</ele>
        <time>2021-11-18T13:12:52Z</time>
      </trkpt>
      <trkpt lat="46.50045" lon="5.31014">
        <ele>215.2</ele>
        <time>2021-11-18T13:12:55Z</time>
      </trkpt>
      <trkpt lat="46.50039" lon="5.30998">
        <ele>216</ele>
        <time>2021-11-18T13:12:58Z</time>
      </trkpt>
      <trkpt lat="46.50037" lon="5.30993">
        <ele>216.4</ele>
        <time>2021-11-18T13:12:59Z</time>
      </trkpt>
      <trkpt lat="46.5003" lon="5.3097">
        <ele>217.6</ele>
        <time>2021-11-18T13:13:03Z</time>
      </trkpt>
      <trkpt lat="46.50023" lon="5.30947">
        <ele>218.8</ele>
        <time>2021-11-18T13:13:07Z</time>
      </trkpt>
      <trkpt lat="46.50021" lon="5.30942">
        <ele>219.2</ele>
        <time>2021-11-18T13:13:08Z</time>
      </trkpt>
      <trkpt lat="46.50014" lon="5.30921">
        <ele>219.8</ele>
        <time>2021-11-18T13:13:12Z</time>
      </trkpt>
      <trkpt lat="46.50008" lon="5.30905">
        <ele>221</ele>
        <time>2021-11-18T13:13:15Z</time>
      </trkpt>
      <trkpt lat="46.50004" lon="5.30895">
        <ele>221.4</ele>
        <time>2021-11-18T13:13:17Z</time>
      </trkpt>
      <trkpt lat="46.49996" lon="5.30875">
        <ele>222</ele>
        <time>2021-11-18T13:13:21Z</time>
      </trkpt>
      <trkpt lat="46.4999" lon="5.30859">
        <ele>222.8</ele>
        <time>2021-11-18T13:13:24Z</time>
      </trkpt>
      <trkpt lat="46.49988" lon="5.30853">
        <ele>223</ele>
        <time>2021-11-18T13:13:25Z</time>
      </trkpt>
      <trkpt lat="46.4998" lon="5.30823">
        <ele>224.2</ele>
        <time>2021-11-18T13:13:30Z</time>
      </trkpt>
      <trkpt lat="46.49976" lon="5.30811">
        <ele>224.4</ele>
        <time>2021-11-18T13:13:32Z</time>
      </trkpt>
      <trkpt lat="46.49965" lon="5.30759">
        <ele>225.2</ele>
        <time>2021-11-18T13:13:40Z</time>
      </trkpt>
      <trkpt lat="46.49962" lon="5.30745">
        <ele>225.4</ele>
        <time>2021-11-18T13:13:42Z</time>
      </trkpt>
      <trkpt lat="46.49951" lon="5.3069">
        <ele>226</ele>
        <time>2021-11-18T13:13:49Z</time>
      </trkpt>
      <trkpt lat="46.49941" lon="5.30633">
        <ele>225.4</ele>
        <time>2021-11-18T13:13:55Z</time>
      </trkpt>
      <trkpt lat="46.49936" lon="5.30581">
        <ele>224.6</ele>
        <time>2021-11-18T13:14:00Z</time>
      </trkpt>
      <trkpt lat="46.49936" lon="5.3057">
        <ele>224.4</ele>
        <time>2021-11-18T13:14:01Z</time>
      </trkpt>
      <trkpt lat="46.49939" lon="5.30536">
        <ele>223.4</ele>
        <time>2021-11-18T13:14:04Z</time>
      </trkpt>
      <trkpt lat="46.49941" lon="5.30525">
        <ele>223.2</ele>
        <time>2021-11-18T13:14:05Z</time>
      </trkpt>
      <trkpt lat="46.49961" lon="5.30474">
        <ele>222</ele>
        <time>2021-11-18T13:14:10Z</time>
      </trkpt>
      <trkpt lat="46.49966" lon="5.30465">
        <ele>221.8</ele>
        <time>2021-11-18T13:14:11Z</time>
      </trkpt>
      <trkpt lat="46.49986" lon="5.30443">
        <ele>221</ele>
        <time>2021-11-18T13:14:14Z</time>
      </trkpt>
      <trkpt lat="46.49993" lon="5.30437">
        <ele>220.8</ele>
        <time>2021-11-18T13:14:15Z</time>
      </trkpt>
      <trkpt lat="46.50021" lon="5.30414">
        <ele>219.4</ele>
        <time>2021-11-18T13:14:19Z</time>
      </trkpt>
      <trkpt lat="46.50035" lon="5.30403">
        <ele>218.8</ele>
        <time>2021-11-18T13:14:21Z</time>
      </trkpt>
      <trkpt lat="46.50047" lon="5.3039">
        <ele>218.2</ele>
        <time>2021-11-18T13:14:23Z</time>
      </trkpt>
      <trkpt lat="46.50063" lon="5.30367">
        <ele>217.6</ele>
        <time>2021-11-18T13:14:26Z</time>
      </trkpt>
      <trkpt lat="46.50072" lon="5.30352">
        <ele>217.2</ele>
        <time>2021-11-18T13:14:28Z</time>
      </trkpt>
      <trkpt lat="46.50077" lon="5.30336">
        <ele>217</ele>
        <time>2021-11-18T13:14:30Z</time>
      </trkpt>
      <trkpt lat="46.50086" lon="5.30303">
        <ele>217.4</ele>
        <time>2021-11-18T13:14:34Z</time>
      </trkpt>
      <trkpt lat="46.50087" lon="5.30288">
        <ele>217.8</ele>
        <time>2021-11-18T13:14:36Z</time>
      </trkpt>
      <trkpt lat="46.50088" lon="5.3024">
        <ele>218.4</ele>
        <time>2021-11-18T13:14:42Z</time>
      </trkpt>
      <trkpt lat="46.50089" lon="5.30231">
        <ele>218.4</ele>
        <time>2021-11-18T13:14:43Z</time>
      </trkpt>
      <trkpt lat="46.5009" lon="5.30206">
        <ele>218.8</ele>
        <time>2021-11-18T13:14:46Z</time>
      </trkpt>
      <trkpt lat="46.5009" lon="5.30188">
        <ele>219.4</ele>
        <time>2021-11-18T13:14:48Z</time>
      </trkpt>
      <trkpt lat="46.50091" lon="5.30179">
        <ele>219.4</ele>
        <time>2021-11-18T13:14:49Z</time>
      </trkpt>
      <trkpt lat="46.50091" lon="5.30099">
        <ele>220.4</ele>
        <time>2021-11-18T13:14:58Z</time>
      </trkpt>
      <trkpt lat="46.50091" lon="5.30082">
        <ele>220.6</ele>
        <time>2021-11-18T13:15:00Z</time>
      </trkpt>
      <trkpt lat="46.5009" lon="5.3003">
        <ele>221.2</ele>
        <time>2021-11-18T13:15:06Z</time>
      </trkpt>
      <trkpt lat="46.50083" lon="5.29979">
        <ele>221</ele>
        <time>2021-11-18T13:15:12Z</time>
      </trkpt>
      <trkpt lat="46.50081" lon="5.2997">
        <ele>221</ele>
        <time>2021-11-18T13:15:13Z</time>
      </trkpt>
      <trkpt lat="46.50062" lon="5.29924">
        <ele>220.6</ele>
        <time>2021-11-18T13:15:19Z</time>
      </trkpt>
      <trkpt lat="46.50049" lon="5.29902">
        <ele>220.4</ele>
        <time>2021-11-18T13:15:22Z</time>
      </trkpt>
      <trkpt lat="46.50038" lon="5.2989">
        <ele>220</ele>
        <time>2021-11-18T13:15:24Z</time>
      </trkpt>
      <trkpt lat="46.50027" lon="5.29879">
        <ele>219.8</ele>
        <time>2021-11-18T13:15:26Z</time>
      </trkpt>
      <trkpt lat="46.50021" lon="5.29863">
        <ele>219.8</ele>
        <time>2021-11-18T13:15:28Z</time>
      </trkpt>
      <trkpt lat="46.50025" lon="5.29846">
        <ele>219.6</ele>
        <time>2021-11-18T13:15:30Z</time>
      </trkpt>
      <trkpt lat="46.50049" lon="5.29813">
        <ele>219</ele>
        <time>2021-11-18T13:15:35Z</time>
      </trkpt>
      <trkpt lat="46.50061" lon="5.29804">
        <ele>218.8</ele>
        <time>2021-11-18T13:15:37Z</time>
      </trkpt>
      <trkpt lat="46.50072" lon="5.29798">
        <ele>218.8</ele>
        <time>2021-11-18T13:15:39Z</time>
      </trkpt>
      <trkpt lat="46.50078" lon="5.29796">
        <ele>218.8</ele>
        <time>2021-11-18T13:15:40Z</time>
      </trkpt>
      <trkpt lat="46.50106" lon="5.29787">
        <ele>219.2</ele>
        <time>2021-11-18T13:15:45Z</time>
      </trkpt>
      <trkpt lat="46.50117" lon="5.29784">
        <ele>219.6</ele>
        <time>2021-11-18T13:15:47Z</time>
      </trkpt>
      <trkpt lat="46.50137" lon="5.29781">
        <ele>220</ele>
        <time>2021-11-18T13:15:51Z</time>
      </trkpt>
      <trkpt lat="46.50147" lon="5.29778">
        <ele>220.6</ele>
        <time>2021-11-18T13:15:53Z</time>
      </trkpt>
      <trkpt lat="46.50176" lon="5.29773">
        <ele>222</ele>
        <time>2021-11-18T13:15:59Z</time>
      </trkpt>
      <trkpt lat="46.50182" lon="5.29773">
        <ele>222.2</ele>
        <time>2021-11-18T13:16:00Z</time>
      </trkpt>
      <trkpt lat="46.50198" lon="5.29773">
        <ele>223.2</ele>
        <time>2021-11-18T13:16:03Z</time>
      </trkpt>
      <trkpt lat="46.5022" lon="5.29774">
        <ele>224</ele>
        <time>2021-11-18T13:16:07Z</time>
      </trkpt>
      <trkpt lat="46.50231" lon="5.29774">
        <ele>224.4</ele>
        <time>2021-11-18T13:16:09Z</time>
      </trkpt>
      <trkpt lat="46.50263" lon="5.29766">
        <ele>224.8</ele>
        <time>2021-11-18T13:16:15Z</time>
      </trkpt>
      <trkpt lat="46.50307" lon="5.29748">
        <ele>225.2</ele>
        <time>2021-11-18T13:16:23Z</time>
      </trkpt>
      <trkpt lat="46.50349" lon="5.2973">
        <ele>225.4</ele>
        <time>2021-11-18T13:16:31Z</time>
      </trkpt>
      <trkpt lat="46.50365" lon="5.29723">
        <ele>225.6</ele>
        <time>2021-11-18T13:16:34Z</time>
      </trkpt>
      <trkpt lat="46.50409" lon="5.29698">
        <ele>226</ele>
        <time>2021-11-18T13:16:42Z</time>
      </trkpt>
      <trkpt lat="46.50455" lon="5.29667">
        <ele>226</ele>
        <time>2021-11-18T13:16:50Z</time>
      </trkpt>
      <trkpt lat="46.50507" lon="5.29631">
        <ele>225.8</ele>
        <time>2021-11-18T13:16:59Z</time>
      </trkpt>
      <trkpt lat="46.50512" lon="5.29628">
        <ele>225.8</ele>
        <time>2021-11-18T13:17:00Z</time>
      </trkpt>
      <trkpt lat="46.50563" lon="5.2959">
        <ele>225.8</ele>
        <time>2021-11-18T13:17:09Z</time>
      </trkpt>
      <trkpt lat="46.50574" lon="5.29581">
        <ele>225.8</ele>
        <time>2021-11-18T13:17:11Z</time>
      </trkpt>
      <trkpt lat="46.50624" lon="5.29542">
        <ele>225.4</ele>
        <time>2021-11-18T13:17:20Z</time>
      </trkpt>
      <trkpt lat="46.50636" lon="5.29534">
        <ele>225.2</ele>
        <time>2021-11-18T13:17:22Z</time>
      </trkpt>
      <trkpt lat="46.50642" lon="5.29531">
        <ele>225.2</ele>
        <time>2021-11-18T13:17:23Z</time>
      </trkpt>
      <trkpt lat="46.50656" lon="5.29527">
        <ele>225</ele>
        <time>2021-11-18T13:17:25Z</time>
      </trkpt>
      <trkpt lat="46.50663" lon="5.29527">
        <ele>225</ele>
        <time>2021-11-18T13:17:26Z</time>
      </trkpt>
      <trkpt lat="46.5067" lon="5.29528">
        <ele>224.8</ele>
        <time>2021-11-18T13:17:27Z</time>
      </trkpt>
      <trkpt lat="46.50683" lon="5.29533">
        <ele>224.6</ele>
        <time>2021-11-18T13:17:29Z</time>
      </trkpt>
      <trkpt lat="46.5069" lon="5.29536">
        <ele>224.4</ele>
        <time>2021-11-18T13:17:30Z</time>
      </trkpt>
      <trkpt lat="46.50732" lon="5.29556">
        <ele>223.4</ele>
        <time>2021-11-18T13:17:36Z</time>
      </trkpt>
      <trkpt lat="46.50755" lon="5.29564">
        <ele>222.6</ele>
        <time>2021-11-18T13:17:39Z</time>
      </trkpt>
      <trkpt lat="46.50762" lon="5.29566">
        <ele>222.4</ele>
        <time>2021-11-18T13:17:40Z</time>
      </trkpt>
      <trkpt lat="46.50803" lon="5.29568">
        <ele>221</ele>
        <time>2021-11-18T13:17:45Z</time>
      </trkpt>
      <trkpt lat="46.50837" lon="5.29571">
        <ele>219.6</ele>
        <time>2021-11-18T13:17:49Z</time>
      </trkpt>
      <trkpt lat="46.50855" lon="5.29573">
        <ele>218.6</ele>
        <time>2021-11-18T13:17:51Z</time>
      </trkpt>
      <trkpt lat="46.50873" lon="5.29575">
        <ele>217.8</ele>
        <time>2021-11-18T13:17:53Z</time>
      </trkpt>
      <trkpt lat="46.5089" lon="5.29575">
        <ele>217.4</ele>
        <time>2021-11-18T13:17:55Z</time>
      </trkpt>
      <trkpt lat="46.50908" lon="5.2957">
        <ele>216.6</ele>
        <time>2021-11-18T13:17:57Z</time>
      </trkpt>
      <trkpt lat="46.50917" lon="5.29565">
        <ele>216</ele>
        <time>2021-11-18T13:17:58Z</time>
      </trkpt>
      <trkpt lat="46.50926" lon="5.2956">
        <ele>215.6</ele>
        <time>2021-11-18T13:17:59Z</time>
      </trkpt>
      <trkpt lat="46.50944" lon="5.29546">
        <ele>214.4</ele>
        <time>2021-11-18T13:18:01Z</time>
      </trkpt>
      <trkpt lat="46.50962" lon="5.29532">
        <ele>213</ele>
        <time>2021-11-18T13:18:03Z</time>
      </trkpt>
      <trkpt lat="46.50979" lon="5.29519">
        <ele>211.6</ele>
        <time>2021-11-18T13:18:05Z</time>
      </trkpt>
      <trkpt lat="46.51" lon="5.29502">
        <ele>210.4</ele>
        <time>2021-11-18T13:18:07Z</time>
      </trkpt>
      <trkpt lat="46.51017" lon="5.29488">
        <ele>209</ele>
        <time>2021-11-18T13:18:09Z</time>
      </trkpt>
      <trkpt lat="46.51038" lon="5.29472">
        <ele>207.6</ele>
        <time>2021-11-18T13:18:11Z</time>
      </trkpt>
      <trkpt lat="46.51057" lon="5.29459">
        <ele>206.4</ele>
        <time>2021-11-18T13:18:13Z</time>
      </trkpt>
      <trkpt lat="46.51067" lon="5.29454">
        <ele>205.6</ele>
        <time>2021-11-18T13:18:14Z</time>
      </trkpt>
      <trkpt lat="46.51077" lon="5.29449">
        <ele>205.2</ele>
        <time>2021-11-18T13:18:15Z</time>
      </trkpt>
      <trkpt lat="46.51105" lon="5.29439">
        <ele>204.2</ele>
        <time>2021-11-18T13:18:18Z</time>
      </trkpt>
      <trkpt lat="46.51115" lon="5.29436">
        <ele>203.4</ele>
        <time>2021-11-18T13:18:19Z</time>
      </trkpt>
      <trkpt lat="46.51124" lon="5.29433">
        <ele>203</ele>
        <time>2021-11-18T13:18:20Z</time>
      </trkpt>
      <trkpt lat="46.51174" lon="5.29419">
        <ele>202</ele>
        <time>2021-11-18T13:18:26Z</time>
      </trkpt>
      <trkpt lat="46.51182" lon="5.29417">
        <ele>202</ele>
        <time>2021-11-18T13:18:27Z</time>
      </trkpt>
      <trkpt lat="46.51229" lon="5.29405">
        <ele>201.4</ele>
        <time>2021-11-18T13:18:33Z</time>
      </trkpt>
      <trkpt lat="46.51275" lon="5.29392">
        <ele>201</ele>
        <time>2021-11-18T13:18:39Z</time>
      </trkpt>
      <trkpt lat="46.51289" lon="5.29385">
        <ele>200.8</ele>
        <time>2021-11-18T13:18:41Z</time>
      </trkpt>
      <trkpt lat="46.51343" lon="5.29353">
        <ele>200.4</ele>
        <time>2021-11-18T13:18:49Z</time>
      </trkpt>
      <trkpt lat="46.5135" lon="5.29348">
        <ele>200.2</ele>
        <time>2021-11-18T13:18:50Z</time>
      </trkpt>
      <trkpt lat="46.51355" lon="5.29343">
        <ele>200.2</ele>
        <time>2021-11-18T13:18:51Z</time>
      </trkpt>
      <trkpt lat="46.51371" lon="5.29322">
        <ele>200.4</ele>
        <time>2021-11-18T13:18:54Z</time>
      </trkpt>
      <trkpt lat="46.51408" lon="5.2926">
        <ele>200.4</ele>
        <time>2021-11-18T13:19:02Z</time>
      </trkpt>
      <trkpt lat="46.51436" lon="5.29218">
        <ele>200.4</ele>
        <time>2021-11-18T13:19:08Z</time>
      </trkpt>
      <trkpt lat="46.51439" lon="5.2921">
        <ele>200.4</ele>
        <time>2021-11-18T13:19:09Z</time>
      </trkpt>
      <trkpt lat="46.51445" lon="5.29193">
        <ele>200.6</ele>
        <time>2021-11-18T13:19:11Z</time>
      </trkpt>
      <trkpt lat="46.51452" lon="5.29163">
        <ele>200.6</ele>
        <time>2021-11-18T13:19:14Z</time>
      </trkpt>
      <trkpt lat="46.51467" lon="5.29082">
        <ele>200.2</ele>
        <time>2021-11-18T13:19:22Z</time>
      </trkpt>
      <trkpt lat="46.51475" lon="5.29031">
        <ele>200</ele>
        <time>2021-11-18T13:19:27Z</time>
      </trkpt>
      <trkpt lat="46.51483" lon="5.2898">
        <ele>199.6</ele>
        <time>2021-11-18T13:19:32Z</time>
      </trkpt>
      <trkpt lat="46.51496" lon="5.28908">
        <ele>199</ele>
        <time>2021-11-18T13:19:39Z</time>
      </trkpt>
      <trkpt lat="46.51498" lon="5.28898">
        <ele>198.6</ele>
        <time>2021-11-18T13:19:40Z</time>
      </trkpt>
      <trkpt lat="46.51512" lon="5.28828">
        <ele>198.2</ele>
        <time>2021-11-18T13:19:47Z</time>
      </trkpt>
      <trkpt lat="46.5153" lon="5.28788">
        <ele>198.2</ele>
        <time>2021-11-18T13:19:52Z</time>
      </trkpt>
      <trkpt lat="46.51556" lon="5.28737">
        <ele>198.6</ele>
        <time>2021-11-18T13:19:59Z</time>
      </trkpt>
      <trkpt lat="46.51589" lon="5.28678">
        <ele>199.4</ele>
        <time>2021-11-18T13:20:08Z</time>
      </trkpt>
      <trkpt lat="46.51593" lon="5.28673">
        <ele>199.4</ele>
        <time>2021-11-18T13:20:09Z</time>
      </trkpt>
      <trkpt lat="46.51609" lon="5.28661">
        <ele>199.6</ele>
        <time>2021-11-18T13:20:12Z</time>
      </trkpt>
      <trkpt lat="46.51619" lon="5.28657">
        <ele>200</ele>
        <time>2021-11-18T13:20:14Z</time>
      </trkpt>
      <trkpt lat="46.51624" lon="5.28656">
        <ele>200.2</ele>
        <time>2021-11-18T13:20:15Z</time>
      </trkpt>
      <trkpt lat="46.51662" lon="5.28649">
        <ele>201.2</ele>
        <time>2021-11-18T13:20:22Z</time>
      </trkpt>
      <trkpt lat="46.51694" lon="5.28645">
        <ele>202.4</ele>
        <time>2021-11-18T13:20:28Z</time>
      </trkpt>
      <trkpt lat="46.51716" lon="5.28648">
        <ele>203.2</ele>
        <time>2021-11-18T13:20:32Z</time>
      </trkpt>
      <trkpt lat="46.51722" lon="5.2865">
        <ele>203.4</ele>
        <time>2021-11-18T13:20:33Z</time>
      </trkpt>
      <trkpt lat="46.51733" lon="5.28656">
        <ele>203.6</ele>
        <time>2021-11-18T13:20:35Z</time>
      </trkpt>
      <trkpt lat="46.51738" lon="5.28659">
        <ele>203.6</ele>
        <time>2021-11-18T13:20:36Z</time>
      </trkpt>
      <trkpt lat="46.51743" lon="5.28664">
        <ele>203.8</ele>
        <time>2021-11-18T13:20:37Z</time>
      </trkpt>
      <trkpt lat="46.51774" lon="5.28687">
        <ele>204.2</ele>
        <time>2021-11-18T13:20:43Z</time>
      </trkpt>
      <trkpt lat="46.5178" lon="5.28689">
        <ele>204.2</ele>
        <time>2021-11-18T13:20:44Z</time>
      </trkpt>
      <trkpt lat="46.51786" lon="5.2869">
        <ele>204.2</ele>
        <time>2021-11-18T13:20:45Z</time>
      </trkpt>
      <trkpt lat="46.51812" lon="5.2869">
        <ele>204.2</ele>
        <time>2021-11-18T13:20:49Z</time>
      </trkpt>
      <trkpt lat="46.51824" lon="5.28692">
        <ele>204.2</ele>
        <time>2021-11-18T13:20:51Z</time>
      </trkpt>
      <trkpt lat="46.51837" lon="5.28696">
        <ele>204</ele>
        <time>2021-11-18T13:20:53Z</time>
      </trkpt>
      <trkpt lat="46.51878" lon="5.28727">
        <ele>203.8</ele>
        <time>2021-11-18T13:21:00Z</time>
      </trkpt>
      <trkpt lat="46.51896" lon="5.28742">
        <ele>203.4</ele>
        <time>2021-11-18T13:21:03Z</time>
      </trkpt>
      <trkpt lat="46.51909" lon="5.28748">
        <ele>203.2</ele>
        <time>2021-11-18T13:21:05Z</time>
      </trkpt>
      <trkpt lat="46.51952" lon="5.28754">
        <ele>202.4</ele>
        <time>2021-11-18T13:21:11Z</time>
      </trkpt>
      <trkpt lat="46.51989" lon="5.2875">
        <ele>202</ele>
        <time>2021-11-18T13:21:16Z</time>
      </trkpt>
      <trkpt lat="46.52011" lon="5.28739">
        <ele>201</ele>
        <time>2021-11-18T13:21:19Z</time>
      </trkpt>
      <trkpt lat="46.52024" lon="5.28731">
        <ele>200.6</ele>
        <time>2021-11-18T13:21:21Z</time>
      </trkpt>
      <trkpt lat="46.5206" lon="5.28718">
        <ele>199.8</ele>
        <time>2021-11-18T13:21:26Z</time>
      </trkpt>
      <trkpt lat="46.52103" lon="5.28707">
        <ele>199.6</ele>
        <time>2021-11-18T13:21:32Z</time>
      </trkpt>
      <trkpt lat="46.52143" lon="5.28692">
        <ele>199</ele>
        <time>2021-11-18T13:21:38Z</time>
      </trkpt>
      <trkpt lat="46.52157" lon="5.28688">
        <ele>198.8</ele>
        <time>2021-11-18T13:21:40Z</time>
      </trkpt>
      <trkpt lat="46.5221" lon="5.2867">
        <ele>198.4</ele>
        <time>2021-11-18T13:21:48Z</time>
      </trkpt>
      <trkpt lat="46.52222" lon="5.28666">
        <ele>198.4</ele>
        <time>2021-11-18T13:21:50Z</time>
      </trkpt>
      <trkpt lat="46.52268" lon="5.28661">
        <ele>199</ele>
        <time>2021-11-18T13:21:58Z</time>
      </trkpt>
      <trkpt lat="46.52309" lon="5.28658">
        <ele>200.2</ele>
        <time>2021-11-18T13:22:06Z</time>
      </trkpt>
      <trkpt lat="46.52348" lon="5.28653">
        <ele>201.2</ele>
        <time>2021-11-18T13:22:14Z</time>
      </trkpt>
      <trkpt lat="46.52357" lon="5.28652">
        <ele>201.4</ele>
        <time>2021-11-18T13:22:16Z</time>
      </trkpt>
      <trkpt lat="46.52383" lon="5.28646">
        <ele>202.4</ele>
        <time>2021-11-18T13:22:22Z</time>
      </trkpt>
      <trkpt lat="46.52395" lon="5.28643">
        <ele>202.8</ele>
        <time>2021-11-18T13:22:25Z</time>
      </trkpt>
      <trkpt lat="46.52408" lon="5.2864">
        <ele>203.4</ele>
        <time>2021-11-18T13:22:28Z</time>
      </trkpt>
      <trkpt lat="46.52415" lon="5.28639">
        <ele>204</ele>
        <time>2021-11-18T13:22:30Z</time>
      </trkpt>
      <trkpt lat="46.52423" lon="5.28639">
        <ele>204.4</ele>
        <time>2021-11-18T13:22:32Z</time>
      </trkpt>
      <trkpt lat="46.52427" lon="5.28639">
        <ele>204.6</ele>
        <time>2021-11-18T13:22:33Z</time>
      </trkpt>
      <trkpt lat="46.52447" lon="5.28634">
        <ele>205.6</ele>
        <time>2021-11-18T13:22:38Z</time>
      </trkpt>
      <trkpt lat="46.52455" lon="5.28632">
        <ele>206</ele>
        <time>2021-11-18T13:22:40Z</time>
      </trkpt>
      <trkpt lat="46.52468" lon="5.28632">
        <ele>206.8</ele>
        <time>2021-11-18T13:22:43Z</time>
      </trkpt>
      <trkpt lat="46.52484" lon="5.28629">
        <ele>207.6</ele>
        <time>2021-11-18T13:22:47Z</time>
      </trkpt>
      <trkpt lat="46.52496" lon="5.28626">
        <ele>208.2</ele>
        <time>2021-11-18T13:22:50Z</time>
      </trkpt>
      <trkpt lat="46.52516" lon="5.28623">
        <ele>209.4</ele>
        <time>2021-11-18T13:22:55Z</time>
      </trkpt>
      <trkpt lat="46.5252" lon="5.28622">
        <ele>209.6</ele>
        <time>2021-11-18T13:22:56Z</time>
      </trkpt>
      <trkpt lat="46.52531" lon="5.28619">
        <ele>210.4</ele>
        <time>2021-11-18T13:22:59Z</time>
      </trkpt>
      <trkpt lat="46.52552" lon="5.28616">
        <ele>211.4</ele>
        <time>2021-11-18T13:23:04Z</time>
      </trkpt>
      <trkpt lat="46.52556" lon="5.28615">
        <ele>211.6</ele>
        <time>2021-11-18T13:23:05Z</time>
      </trkpt>
      <trkpt lat="46.52582" lon="5.28611">
        <ele>212.6</ele>
        <time>2021-11-18T13:23:11Z</time>
      </trkpt>
      <trkpt lat="46.526" lon="5.2861">
        <ele>213.2</ele>
        <time>2021-11-18T13:23:15Z</time>
      </trkpt>
      <trkpt lat="46.52613" lon="5.28612">
        <ele>213.8</ele>
        <time>2021-11-18T13:23:18Z</time>
      </trkpt>
      <trkpt lat="46.5263" lon="5.28617">
        <ele>214.6</ele>
        <time>2021-11-18T13:23:22Z</time>
      </trkpt>
      <trkpt lat="46.52638" lon="5.28621">
        <ele>215</ele>
        <time>2021-11-18T13:23:24Z</time>
      </trkpt>
      <trkpt lat="46.52677" lon="5.28629">
        <ele>216.2</ele>
        <time>2021-11-18T13:23:32Z</time>
      </trkpt>
      <trkpt lat="46.52705" lon="5.28624">
        <ele>216.4</ele>
        <time>2021-11-18T13:23:37Z</time>
      </trkpt>
      <trkpt lat="46.52711" lon="5.28623">
        <ele>216.4</ele>
        <time>2021-11-18T13:23:38Z</time>
      </trkpt>
      <trkpt lat="46.5274" lon="5.28618">
        <ele>216.4</ele>
        <time>2021-11-18T13:23:43Z</time>
      </trkpt>
      <trkpt lat="46.52782" lon="5.28611">
        <ele>217</ele>
        <time>2021-11-18T13:23:51Z</time>
      </trkpt>
      <trkpt lat="46.52814" lon="5.28604">
        <ele>217.4</ele>
        <time>2021-11-18T13:23:57Z</time>
      </trkpt>
      <trkpt lat="46.52834" lon="5.286">
        <ele>217.8</ele>
        <time>2021-11-18T13:24:01Z</time>
      </trkpt>
      <trkpt lat="46.52877" lon="5.28593">
        <ele>218.2</ele>
        <time>2021-11-18T13:24:09Z</time>
      </trkpt>
      <trkpt lat="46.52895" lon="5.28589">
        <ele>218.4</ele>
        <time>2021-11-18T13:24:12Z</time>
      </trkpt>
      <trkpt lat="46.52919" lon="5.28585">
        <ele>218.4</ele>
        <time>2021-11-18T13:24:16Z</time>
      </trkpt>
      <trkpt lat="46.52974" lon="5.28575">
        <ele>218.6</ele>
        <time>2021-11-18T13:24:25Z</time>
      </trkpt>
      <trkpt lat="46.5298" lon="5.28574">
        <ele>218.2</ele>
        <time>2021-11-18T13:24:26Z</time>
      </trkpt>
      <trkpt lat="46.53035" lon="5.28563">
        <ele>217.6</ele>
        <time>2021-11-18T13:24:34Z</time>
      </trkpt>
      <trkpt lat="46.5305" lon="5.2856">
        <ele>217.4</ele>
        <time>2021-11-18T13:24:36Z</time>
      </trkpt>
      <trkpt lat="46.53095" lon="5.2855">
        <ele>216.2</ele>
        <time>2021-11-18T13:24:42Z</time>
      </trkpt>
      <trkpt lat="46.53141" lon="5.28541">
        <ele>215</ele>
        <time>2021-11-18T13:24:48Z</time>
      </trkpt>
      <trkpt lat="46.5318" lon="5.28533">
        <ele>214.2</ele>
        <time>2021-11-18T13:24:53Z</time>
      </trkpt>
      <trkpt lat="46.53196" lon="5.28529">
        <ele>213.8</ele>
        <time>2021-11-18T13:24:55Z</time>
      </trkpt>
      <trkpt lat="46.53205" lon="5.28527">
        <ele>213.4</ele>
        <time>2021-11-18T13:24:56Z</time>
      </trkpt>
      <trkpt lat="46.53223" lon="5.28525">
        <ele>212.6</ele>
        <time>2021-11-18T13:24:58Z</time>
      </trkpt>
      <trkpt lat="46.53251" lon="5.28524">
        <ele>211.4</ele>
        <time>2021-11-18T13:25:01Z</time>
      </trkpt>
      <trkpt lat="46.53279" lon="5.28524">
        <ele>210.2</ele>
        <time>2021-11-18T13:25:04Z</time>
      </trkpt>
      <trkpt lat="46.53306" lon="5.28524">
        <ele>208.8</ele>
        <time>2021-11-18T13:25:07Z</time>
      </trkpt>
      <trkpt lat="46.53323" lon="5.28528">
        <ele>208</ele>
        <time>2021-11-18T13:25:09Z</time>
      </trkpt>
      <trkpt lat="46.53331" lon="5.28531">
        <ele>207.8</ele>
        <time>2021-11-18T13:25:10Z</time>
      </trkpt>
      <trkpt lat="46.53338" lon="5.28534">
        <ele>207.6</ele>
        <time>2021-11-18T13:25:11Z</time>
      </trkpt>
      <trkpt lat="46.5335" lon="5.28531">
        <ele>207.4</ele>
        <time>2021-11-18T13:25:13Z</time>
      </trkpt>
      <trkpt lat="46.53355" lon="5.28515">
        <ele>207.2</ele>
        <time>2021-11-18T13:25:15Z</time>
      </trkpt>
      <trkpt lat="46.53356" lon="5.28506">
        <ele>207.2</ele>
        <time>2021-11-18T13:25:16Z</time>
      </trkpt>
      <trkpt lat="46.53359" lon="5.28442">
        <ele>207.4</ele>
        <time>2021-11-18T13:25:22Z</time>
      </trkpt>
      <trkpt lat="46.53362" lon="5.28376">
        <ele>207.6</ele>
        <time>2021-11-18T13:25:28Z</time>
      </trkpt>
      <trkpt lat="46.53364" lon="5.28317">
        <ele>207.6</ele>
        <time>2021-11-18T13:25:34Z</time>
      </trkpt>
      <trkpt lat="46.53366" lon="5.28272">
        <ele>209</ele>
        <time>2021-11-18T13:25:40Z</time>
      </trkpt>
      <trkpt lat="46.53366" lon="5.28257">
        <ele>209.6</ele>
        <time>2021-11-18T13:25:42Z</time>
      </trkpt>
      <trkpt lat="46.53366" lon="5.28242">
        <ele>210</ele>
        <time>2021-11-18T13:25:44Z</time>
      </trkpt>
      <trkpt lat="46.53366" lon="5.28235">
        <ele>210.4</ele>
        <time>2021-11-18T13:25:45Z</time>
      </trkpt>
      <trkpt lat="46.53366" lon="5.28215">
        <ele>211.2</ele>
        <time>2021-11-18T13:25:48Z</time>
      </trkpt>
      <trkpt lat="46.53366" lon="5.28202">
        <ele>211.6</ele>
        <time>2021-11-18T13:25:50Z</time>
      </trkpt>
      <trkpt lat="46.53367" lon="5.28188">
        <ele>212</ele>
        <time>2021-11-18T13:25:52Z</time>
      </trkpt>
      <trkpt lat="46.53367" lon="5.28182">
        <ele>212.2</ele>
        <time>2021-11-18T13:25:53Z</time>
      </trkpt>
      <trkpt lat="46.53367" lon="5.28165">
        <ele>213</ele>
        <time>2021-11-18T13:25:56Z</time>
      </trkpt>
      <trkpt lat="46.53367" lon="5.28158">
        <ele>213.4</ele>
        <time>2021-11-18T13:25:57Z</time>
      </trkpt>
      <trkpt lat="46.53365" lon="5.28135">
        <ele>214.6</ele>
        <time>2021-11-18T13:26:01Z</time>
      </trkpt>
      <trkpt lat="46.53365" lon="5.28129">
        <ele>214.8</ele>
        <time>2021-11-18T13:26:02Z</time>
      </trkpt>
      <trkpt lat="46.53366" lon="5.28113">
        <ele>215.8</ele>
        <time>2021-11-18T13:26:05Z</time>
      </trkpt>
      <trkpt lat="46.53366" lon="5.28106">
        <ele>216</ele>
        <time>2021-11-18T13:26:06Z</time>
      </trkpt>
      <trkpt lat="46.5337" lon="5.2808">
        <ele>217.2</ele>
        <time>2021-11-18T13:26:10Z</time>
      </trkpt>
      <trkpt lat="46.53371" lon="5.28071">
        <ele>217.6</ele>
        <time>2021-11-18T13:26:11Z</time>
      </trkpt>
      <trkpt lat="46.53371" lon="5.28064">
        <ele>217.6</ele>
        <time>2021-11-18T13:26:12Z</time>
      </trkpt>
      <trkpt lat="46.53373" lon="5.28015">
        <ele>218.2</ele>
        <time>2021-11-18T13:26:18Z</time>
      </trkpt>
      <trkpt lat="46.53375" lon="5.27998">
        <ele>218.2</ele>
        <time>2021-11-18T13:26:20Z</time>
      </trkpt>
      <trkpt lat="46.53376" lon="5.27961">
        <ele>218.2</ele>
        <time>2021-11-18T13:26:24Z</time>
      </trkpt>
      <trkpt lat="46.53376" lon="5.27952">
        <ele>218.2</ele>
        <time>2021-11-18T13:26:25Z</time>
      </trkpt>
      <trkpt lat="46.53379" lon="5.27889">
        <ele>217.8</ele>
        <time>2021-11-18T13:26:32Z</time>
      </trkpt>
      <trkpt lat="46.53381" lon="5.27825">
        <ele>217.8</ele>
        <time>2021-11-18T13:26:39Z</time>
      </trkpt>
      <trkpt lat="46.53382" lon="5.27765">
        <ele>217.2</ele>
        <time>2021-11-18T13:26:45Z</time>
      </trkpt>
      <trkpt lat="46.53382" lon="5.27755">
        <ele>217</ele>
        <time>2021-11-18T13:26:46Z</time>
      </trkpt>
      <trkpt lat="46.5338" lon="5.27736">
        <ele>216.8</ele>
        <time>2021-11-18T13:26:48Z</time>
      </trkpt>
      <trkpt lat="46.53372" lon="5.27703">
        <ele>216.4</ele>
        <time>2021-11-18T13:26:51Z</time>
      </trkpt>
      <trkpt lat="46.53369" lon="5.27695">
        <ele>216</ele>
        <time>2021-11-18T13:26:52Z</time>
      </trkpt>
      <trkpt lat="46.53344" lon="5.27633">
        <ele>215.2</ele>
        <time>2021-11-18T13:26:58Z</time>
      </trkpt>
      <trkpt lat="46.53331" lon="5.27598">
        <ele>213.6</ele>
        <time>2021-11-18T13:27:01Z</time>
      </trkpt>
      <trkpt lat="46.53312" lon="5.27549">
        <ele>212.8</ele>
        <time>2021-11-18T13:27:06Z</time>
      </trkpt>
      <trkpt lat="46.53309" lon="5.27541">
        <ele>212.6</ele>
        <time>2021-11-18T13:27:07Z</time>
      </trkpt>
      <trkpt lat="46.53279" lon="5.27471">
        <ele>211.8</ele>
        <time>2021-11-18T13:27:14Z</time>
      </trkpt>
      <trkpt lat="46.53271" lon="5.27452">
        <ele>211.8</ele>
        <time>2021-11-18T13:27:16Z</time>
      </trkpt>
      <trkpt lat="46.53268" lon="5.27426">
        <ele>211.6</ele>
        <time>2021-11-18T13:27:18Z</time>
      </trkpt>
      <trkpt lat="46.53278" lon="5.27408">
        <ele>210.8</ele>
        <time>2021-11-18T13:27:20Z</time>
      </trkpt>
      <trkpt lat="46.53285" lon="5.27405">
        <ele>210.4</ele>
        <time>2021-11-18T13:27:21Z</time>
      </trkpt>
      <trkpt lat="46.533" lon="5.27401">
        <ele>210</ele>
        <time>2021-11-18T13:27:23Z</time>
      </trkpt>
      <trkpt lat="46.53334" lon="5.27393">
        <ele>209.8</ele>
        <time>2021-11-18T13:27:28Z</time>
      </trkpt>
      <trkpt lat="46.53341" lon="5.27392">
        <ele>209.8</ele>
        <time>2021-11-18T13:27:29Z</time>
      </trkpt>
      <trkpt lat="46.53372" lon="5.27375">
        <ele>211.2</ele>
        <time>2021-11-18T13:27:34Z</time>
      </trkpt>
      <trkpt lat="46.53392" lon="5.2736">
        <ele>211.4</ele>
        <time>2021-11-18T13:27:37Z</time>
      </trkpt>
      <trkpt lat="46.53408" lon="5.27347">
        <ele>211.8</ele>
        <time>2021-11-18T13:27:39Z</time>
      </trkpt>
      <trkpt lat="46.53449" lon="5.27317">
        <ele>210.2</ele>
        <time>2021-11-18T13:27:44Z</time>
      </trkpt>
      <trkpt lat="46.53465" lon="5.27305">
        <ele>209.2</ele>
        <time>2021-11-18T13:27:46Z</time>
      </trkpt>
      <trkpt lat="46.53474" lon="5.27298">
        <ele>209</ele>
        <time>2021-11-18T13:27:47Z</time>
      </trkpt>
      <trkpt lat="46.53494" lon="5.27283">
        <ele>207.6</ele>
        <time>2021-11-18T13:27:49Z</time>
      </trkpt>
      <trkpt lat="46.53511" lon="5.27271">
        <ele>206.4</ele>
        <time>2021-11-18T13:27:51Z</time>
      </trkpt>
      <trkpt lat="46.5354" lon="5.27251">
        <ele>205.4</ele>
        <time>2021-11-18T13:27:54Z</time>
      </trkpt>
      <trkpt lat="46.53547" lon="5.27247">
        <ele>204.2</ele>
        <time>2021-11-18T13:27:55Z</time>
      </trkpt>
      <trkpt lat="46.53577" lon="5.27237">
        <ele>202.8</ele>
        <time>2021-11-18T13:27:58Z</time>
      </trkpt>
      <trkpt lat="46.53612" lon="5.27231">
        <ele>194.8</ele>
        <time>2021-11-18T13:28:02Z</time>
      </trkpt>
      <trkpt lat="46.53635" lon="5.27227">
        <ele>200.8</ele>
        <time>2021-11-18T13:28:05Z</time>
      </trkpt>
      <trkpt lat="46.53684" lon="5.2722">
        <ele>200.4</ele>
        <time>2021-11-18T13:28:11Z</time>
      </trkpt>
      <trkpt lat="46.53693" lon="5.27218">
        <ele>200.2</ele>
        <time>2021-11-18T13:28:12Z</time>
      </trkpt>
      <trkpt lat="46.53739" lon="5.27206">
        <ele>199</ele>
        <time>2021-11-18T13:28:18Z</time>
      </trkpt>
      <trkpt lat="46.53745" lon="5.27203">
        <ele>198.8</ele>
        <time>2021-11-18T13:28:19Z</time>
      </trkpt>
      <trkpt lat="46.53798" lon="5.27175">
        <ele>198.2</ele>
        <time>2021-11-18T13:28:26Z</time>
      </trkpt>
      <trkpt lat="46.53805" lon="5.27171">
        <ele>198.2</ele>
        <time>2021-11-18T13:28:27Z</time>
      </trkpt>
      <trkpt lat="46.53825" lon="5.2716">
        <ele>197.8</ele>
        <time>2021-11-18T13:28:30Z</time>
      </trkpt>
      <trkpt lat="46.53867" lon="5.27135">
        <ele>197.4</ele>
        <time>2021-11-18T13:28:36Z</time>
      </trkpt>
      <trkpt lat="46.53912" lon="5.27111">
        <ele>197.4</ele>
        <time>2021-11-18T13:28:43Z</time>
      </trkpt>
      <trkpt lat="46.5394" lon="5.27096">
        <ele>197.6</ele>
        <time>2021-11-18T13:28:48Z</time>
      </trkpt>
      <trkpt lat="46.53963" lon="5.27081">
        <ele>197.8</ele>
        <time>2021-11-18T13:28:52Z</time>
      </trkpt>
      <trkpt lat="46.53989" lon="5.27061">
        <ele>198.2</ele>
        <time>2021-11-18T13:28:57Z</time>
      </trkpt>
      <trkpt lat="46.53992" lon="5.27057">
        <ele>198.4</ele>
        <time>2021-11-18T13:28:58Z</time>
      </trkpt>
      <trkpt lat="46.53995" lon="5.27049">
        <ele>198.4</ele>
        <time>2021-11-18T13:28:59Z</time>
      </trkpt>
      <trkpt lat="46.53996" lon="5.27041">
        <ele>198.6</ele>
        <time>2021-11-18T13:29:00Z</time>
      </trkpt>
      <trkpt lat="46.53994" lon="5.27033">
        <ele>198.6</ele>
        <time>2021-11-18T13:29:01Z</time>
      </trkpt>
      <trkpt lat="46.53988" lon="5.27018">
        <ele>198.4</ele>
        <time>2021-11-18T13:29:03Z</time>
      </trkpt>
      <trkpt lat="46.53965" lon="5.26962">
        <ele>197.8</ele>
        <time>2021-11-18T13:29:09Z</time>
      </trkpt>
      <trkpt lat="46.53936" lon="5.26907">
        <ele>197.2</ele>
        <time>2021-11-18T13:29:15Z</time>
      </trkpt>
      <trkpt lat="46.53926" lon="5.26891">
        <ele>197</ele>
        <time>2021-11-18T13:29:17Z</time>
      </trkpt>
      <trkpt lat="46.53886" lon="5.26832">
        <ele>196.4</ele>
        <time>2021-11-18T13:29:25Z</time>
      </trkpt>
      <trkpt lat="46.53852" lon="5.26775">
        <ele>196.2</ele>
        <time>2021-11-18T13:29:33Z</time>
      </trkpt>
      <trkpt lat="46.5384" lon="5.26751">
        <ele>196.2</ele>
        <time>2021-11-18T13:29:36Z</time>
      </trkpt>
      <trkpt lat="46.53836" lon="5.26735">
        <ele>196.2</ele>
        <time>2021-11-18T13:29:38Z</time>
      </trkpt>
      <trkpt lat="46.53834" lon="5.26713">
        <ele>196.2</ele>
        <time>2021-11-18T13:29:40Z</time>
      </trkpt>
      <trkpt lat="46.53834" lon="5.26695">
        <ele>196.2</ele>
        <time>2021-11-18T13:29:42Z</time>
      </trkpt>
      <trkpt lat="46.53838" lon="5.26673">
        <ele>196</ele>
        <time>2021-11-18T13:29:44Z</time>
      </trkpt>
      <trkpt lat="46.53843" lon="5.26656">
        <ele>196</ele>
        <time>2021-11-18T13:29:46Z</time>
      </trkpt>
      <trkpt lat="46.53866" lon="5.26623">
        <ele>195.6</ele>
        <time>2021-11-18T13:29:51Z</time>
      </trkpt>
      <trkpt lat="46.53884" lon="5.26592">
        <ele>196</ele>
        <time>2021-11-18T13:29:56Z</time>
      </trkpt>
      <trkpt lat="46.53887" lon="5.26587">
        <ele>196.2</ele>
        <time>2021-11-18T13:29:57Z</time>
      </trkpt>
      <trkpt lat="46.53896" lon="5.26563">
        <ele>197.4</ele>
        <time>2021-11-18T13:30:01Z</time>
      </trkpt>
      <trkpt lat="46.53909" lon="5.26529">
        <ele>198.4</ele>
        <time>2021-11-18T13:30:07Z</time>
      </trkpt>
      <trkpt lat="46.53914" lon="5.26516">
        <ele>199</ele>
        <time>2021-11-18T13:30:09Z</time>
      </trkpt>
      <trkpt lat="46.5392" lon="5.265">
        <ele>199.8</ele>
        <time>2021-11-18T13:30:12Z</time>
      </trkpt>
      <trkpt lat="46.53934" lon="5.26461">
        <ele>200.8</ele>
        <time>2021-11-18T13:30:18Z</time>
      </trkpt>
      <trkpt lat="46.53954" lon="5.26405">
        <ele>201.4</ele>
        <time>2021-11-18T13:30:27Z</time>
      </trkpt>
      <trkpt lat="46.5396" lon="5.26388">
        <ele>201.8</ele>
        <time>2021-11-18T13:30:30Z</time>
      </trkpt>
      <trkpt lat="46.53973" lon="5.26351">
        <ele>202.6</ele>
        <time>2021-11-18T13:30:36Z</time>
      </trkpt>
      <trkpt lat="46.53978" lon="5.26338">
        <ele>203</ele>
        <time>2021-11-18T13:30:38Z</time>
      </trkpt>
      <trkpt lat="46.53988" lon="5.26308">
        <ele>203.6</ele>
        <time>2021-11-18T13:30:43Z</time>
      </trkpt>
      <trkpt lat="46.53994" lon="5.26291">
        <ele>204.2</ele>
        <time>2021-11-18T13:30:46Z</time>
      </trkpt>
      <trkpt lat="46.54007" lon="5.26258">
        <ele>205.2</ele>
        <time>2021-11-18T13:30:52Z</time>
      </trkpt>
      <trkpt lat="46.5401" lon="5.26253">
        <ele>205.6</ele>
        <time>2021-11-18T13:30:53Z</time>
      </trkpt>
      <trkpt lat="46.54012" lon="5.26248">
        <ele>205.8</ele>
        <time>2021-11-18T13:30:54Z</time>
      </trkpt>
      <trkpt lat="46.5402" lon="5.26236">
        <ele>206.2</ele>
        <time>2021-11-18T13:30:57Z</time>
      </trkpt>
      <trkpt lat="46.54023" lon="5.26232">
        <ele>206.4</ele>
        <time>2021-11-18T13:30:58Z</time>
      </trkpt>
      <trkpt lat="46.54041" lon="5.26217">
        <ele>207.4</ele>
        <time>2021-11-18T13:31:03Z</time>
      </trkpt>
      <trkpt lat="46.54048" lon="5.26212">
        <ele>208.2</ele>
        <time>2021-11-18T13:31:05Z</time>
      </trkpt>
      <trkpt lat="46.54056" lon="5.26207">
        <ele>208.6</ele>
        <time>2021-11-18T13:31:07Z</time>
      </trkpt>
      <trkpt lat="46.54074" lon="5.26197">
        <ele>209.4</ele>
        <time>2021-11-18T13:31:11Z</time>
      </trkpt>
      <trkpt lat="46.54078" lon="5.26195">
        <ele>209.6</ele>
        <time>2021-11-18T13:31:12Z</time>
      </trkpt>
      <trkpt lat="46.54083" lon="5.26192">
        <ele>209.6</ele>
        <time>2021-11-18T13:31:13Z</time>
      </trkpt>
      <trkpt lat="46.54102" lon="5.26182">
        <ele>210.2</ele>
        <time>2021-11-18T13:31:17Z</time>
      </trkpt>
      <trkpt lat="46.54114" lon="5.2617">
        <ele>210.2</ele>
        <time>2021-11-18T13:31:20Z</time>
      </trkpt>
      <trkpt lat="46.54124" lon="5.26155">
        <ele>210.6</ele>
        <time>2021-11-18T13:31:23Z</time>
      </trkpt>
      <trkpt lat="46.54132" lon="5.26148">
        <ele>210.6</ele>
        <time>2021-11-18T13:31:25Z</time>
      </trkpt>
      <trkpt lat="46.54141" lon="5.26144">
        <ele>210.8</ele>
        <time>2021-11-18T13:31:27Z</time>
      </trkpt>
      <trkpt lat="46.54179" lon="5.26136">
        <ele>211</ele>
        <time>2021-11-18T13:31:34Z</time>
      </trkpt>
      <trkpt lat="46.54192" lon="5.26138">
        <ele>211.2</ele>
        <time>2021-11-18T13:31:36Z</time>
      </trkpt>
      <trkpt lat="46.54206" lon="5.26146">
        <ele>211</ele>
        <time>2021-11-18T13:31:38Z</time>
      </trkpt>
      <trkpt lat="46.54232" lon="5.26176">
        <ele>210.2</ele>
        <time>2021-11-18T13:31:42Z</time>
      </trkpt>
      <trkpt lat="46.54238" lon="5.26184">
        <ele>210</ele>
        <time>2021-11-18T13:31:43Z</time>
      </trkpt>
      <trkpt lat="46.54245" lon="5.26191">
        <ele>209.4</ele>
        <time>2021-11-18T13:31:44Z</time>
      </trkpt>
      <trkpt lat="46.54254" lon="5.26195">
        <ele>209</ele>
        <time>2021-11-18T13:31:45Z</time>
      </trkpt>
      <trkpt lat="46.54272" lon="5.26197">
        <ele>208.2</ele>
        <time>2021-11-18T13:31:47Z</time>
      </trkpt>
      <trkpt lat="46.54281" lon="5.26195">
        <ele>207.6</ele>
        <time>2021-11-18T13:31:48Z</time>
      </trkpt>
      <trkpt lat="46.5429" lon="5.26192">
        <ele>207</ele>
        <time>2021-11-18T13:31:49Z</time>
      </trkpt>
      <trkpt lat="46.54308" lon="5.26184">
        <ele>205.4</ele>
        <time>2021-11-18T13:31:51Z</time>
      </trkpt>
      <trkpt lat="46.54326" lon="5.26176">
        <ele>204</ele>
        <time>2021-11-18T13:31:53Z</time>
      </trkpt>
      <trkpt lat="46.54335" lon="5.26172">
        <ele>203.8</ele>
        <time>2021-11-18T13:31:54Z</time>
      </trkpt>
      <trkpt lat="46.5436" lon="5.2616">
        <ele>202.8</ele>
        <time>2021-11-18T13:31:57Z</time>
      </trkpt>
      <trkpt lat="46.54393" lon="5.26138">
        <ele>201.8</ele>
        <time>2021-11-18T13:32:01Z</time>
      </trkpt>
      <trkpt lat="46.54422" lon="5.26111">
        <ele>200.6</ele>
        <time>2021-11-18T13:32:05Z</time>
      </trkpt>
      <trkpt lat="46.54442" lon="5.26093">
        <ele>200.2</ele>
        <time>2021-11-18T13:32:08Z</time>
      </trkpt>
      <trkpt lat="46.54461" lon="5.26077">
        <ele>199.6</ele>
        <time>2021-11-18T13:32:11Z</time>
      </trkpt>
      <trkpt lat="46.54485" lon="5.26057">
        <ele>199.4</ele>
        <time>2021-11-18T13:32:15Z</time>
      </trkpt>
      <trkpt lat="46.54527" lon="5.26032">
        <ele>200</ele>
        <time>2021-11-18T13:32:22Z</time>
      </trkpt>
      <trkpt lat="46.54556" lon="5.2602">
        <ele>200.6</ele>
        <time>2021-11-18T13:32:27Z</time>
      </trkpt>
      <trkpt lat="46.54573" lon="5.26015">
        <ele>200.8</ele>
        <time>2021-11-18T13:32:30Z</time>
      </trkpt>
      <trkpt lat="46.54612" lon="5.26009">
        <ele>201.6</ele>
        <time>2021-11-18T13:32:37Z</time>
      </trkpt>
      <trkpt lat="46.54618" lon="5.26008">
        <ele>201.8</ele>
        <time>2021-11-18T13:32:38Z</time>
      </trkpt>
      <trkpt lat="46.54672" lon="5.26">
        <ele>202.2</ele>
        <time>2021-11-18T13:32:47Z</time>
      </trkpt>
      <trkpt lat="46.54721" lon="5.25993">
        <ele>201.6</ele>
        <time>2021-11-18T13:32:54Z</time>
      </trkpt>
      <trkpt lat="46.5476" lon="5.25997">
        <ele>201</ele>
        <time>2021-11-18T13:32:59Z</time>
      </trkpt>
      <trkpt lat="46.54776" lon="5.26001">
        <ele>200.6</ele>
        <time>2021-11-18T13:33:01Z</time>
      </trkpt>
      <trkpt lat="46.54785" lon="5.26004">
        <ele>200.4</ele>
        <time>2021-11-18T13:33:02Z</time>
      </trkpt>
      <trkpt lat="46.54808" lon="5.26014">
        <ele>199.6</ele>
        <time>2021-11-18T13:33:05Z</time>
      </trkpt>
      <trkpt lat="46.54816" lon="5.26017">
        <ele>199.4</ele>
        <time>2021-11-18T13:33:06Z</time>
      </trkpt>
      <trkpt lat="46.54867" lon="5.26035">
        <ele>198.6</ele>
        <time>2021-11-18T13:33:13Z</time>
      </trkpt>
      <trkpt lat="46.54896" lon="5.26039">
        <ele>198.8</ele>
        <time>2021-11-18T13:33:18Z</time>
      </trkpt>
      <trkpt lat="46.54927" lon="5.2604">
        <ele>199.8</ele>
        <time>2021-11-18T13:33:24Z</time>
      </trkpt>
      <trkpt lat="46.54946" lon="5.26041">
        <ele>200.8</ele>
        <time>2021-11-18T13:33:28Z</time>
      </trkpt>
      <trkpt lat="46.54959" lon="5.26041">
        <ele>201.6</ele>
        <time>2021-11-18T13:33:31Z</time>
      </trkpt>
      <trkpt lat="46.54967" lon="5.2604">
        <ele>202.4</ele>
        <time>2021-11-18T13:33:33Z</time>
      </trkpt>
      <trkpt lat="46.54981" lon="5.26042">
        <ele>203.4</ele>
        <time>2021-11-18T13:33:36Z</time>
      </trkpt>
      <trkpt lat="46.54998" lon="5.26044">
        <ele>204.4</ele>
        <time>2021-11-18T13:33:40Z</time>
      </trkpt>
      <trkpt lat="46.55014" lon="5.26047">
        <ele>205.6</ele>
        <time>2021-11-18T13:33:44Z</time>
      </trkpt>
      <trkpt lat="46.5503" lon="5.26049">
        <ele>206.8</ele>
        <time>2021-11-18T13:33:48Z</time>
      </trkpt>
      <trkpt lat="46.55045" lon="5.2605">
        <ele>208</ele>
        <time>2021-11-18T13:33:52Z</time>
      </trkpt>
      <trkpt lat="46.55059" lon="5.26055">
        <ele>208.8</ele>
        <time>2021-11-18T13:33:56Z</time>
      </trkpt>
      <trkpt lat="46.55068" lon="5.26058">
        <ele>209.2</ele>
        <time>2021-11-18T13:33:58Z</time>
      </trkpt>
      <trkpt lat="46.55088" lon="5.26065">
        <ele>210.4</ele>
        <time>2021-11-18T13:34:03Z</time>
      </trkpt>
      <trkpt lat="46.55107" lon="5.26073">
        <ele>211.6</ele>
        <time>2021-11-18T13:34:08Z</time>
      </trkpt>
      <trkpt lat="46.55126" lon="5.26085">
        <ele>212.4</ele>
        <time>2021-11-18T13:34:13Z</time>
      </trkpt>
      <trkpt lat="46.5513" lon="5.26087">
        <ele>212.4</ele>
        <time>2021-11-18T13:34:14Z</time>
      </trkpt>
      <trkpt lat="46.55148" lon="5.26099">
        <ele>213.8</ele>
        <time>2021-11-18T13:34:19Z</time>
      </trkpt>
      <trkpt lat="46.5516" lon="5.26105">
        <ele>214.2</ele>
        <time>2021-11-18T13:34:22Z</time>
      </trkpt>
      <trkpt lat="46.55183" lon="5.2612">
        <ele>214.8</ele>
        <time>2021-11-18T13:34:28Z</time>
      </trkpt>
      <trkpt lat="46.55192" lon="5.26124">
        <ele>215</ele>
        <time>2021-11-18T13:34:30Z</time>
      </trkpt>
      <trkpt lat="46.55213" lon="5.26138">
        <ele>215.8</ele>
        <time>2021-11-18T13:34:35Z</time>
      </trkpt>
      <trkpt lat="46.55218" lon="5.2614">
        <ele>215.8</ele>
        <time>2021-11-18T13:34:36Z</time>
      </trkpt>
      <trkpt lat="46.55223" lon="5.26141">
        <ele>216</ele>
        <time>2021-11-18T13:34:37Z</time>
      </trkpt>
      <trkpt lat="46.55235" lon="5.26142">
        <ele>216</ele>
        <time>2021-11-18T13:34:39Z</time>
      </trkpt>
      <trkpt lat="46.55247" lon="5.26139">
        <ele>216</ele>
        <time>2021-11-18T13:34:41Z</time>
      </trkpt>
      <trkpt lat="46.55287" lon="5.26125">
        <ele>215.6</ele>
        <time>2021-11-18T13:34:47Z</time>
      </trkpt>
      <trkpt lat="46.55328" lon="5.26131">
        <ele>215</ele>
        <time>2021-11-18T13:34:53Z</time>
      </trkpt>
      <trkpt lat="46.55341" lon="5.26135">
        <ele>214.8</ele>
        <time>2021-11-18T13:34:55Z</time>
      </trkpt>
      <trkpt lat="46.55379" lon="5.26154">
        <ele>214.6</ele>
        <time>2021-11-18T13:35:01Z</time>
      </trkpt>
      <trkpt lat="46.55412" lon="5.2618">
        <ele>214.6</ele>
        <time>2021-11-18T13:35:07Z</time>
      </trkpt>
      <trkpt lat="46.55462" lon="5.26213">
        <ele>214.8</ele>
        <time>2021-11-18T13:35:15Z</time>
      </trkpt>
      <trkpt lat="46.55469" lon="5.26216">
        <ele>214.8</ele>
        <time>2021-11-18T13:35:16Z</time>
      </trkpt>
      <trkpt lat="46.55504" lon="5.26218">
        <ele>214.4</ele>
        <time>2021-11-18T13:35:21Z</time>
      </trkpt>
      <trkpt lat="46.55561" lon="5.26211">
        <ele>214.6</ele>
        <time>2021-11-18T13:35:30Z</time>
      </trkpt>
      <trkpt lat="46.55605" lon="5.2622">
        <ele>215</ele>
        <time>2021-11-18T13:35:37Z</time>
      </trkpt>
      <trkpt lat="46.55651" lon="5.26214">
        <ele>215</ele>
        <time>2021-11-18T13:35:44Z</time>
      </trkpt>
      <trkpt lat="46.55691" lon="5.26214">
        <ele>214.8</ele>
        <time>2021-11-18T13:35:50Z</time>
      </trkpt>
      <trkpt lat="46.55741" lon="5.2621">
        <ele>215</ele>
        <time>2021-11-18T13:35:58Z</time>
      </trkpt>
      <trkpt lat="46.55795" lon="5.26208">
        <ele>215.2</ele>
        <time>2021-11-18T13:36:07Z</time>
      </trkpt>
      <trkpt lat="46.55806" lon="5.26207">
        <ele>215.2</ele>
        <time>2021-11-18T13:36:09Z</time>
      </trkpt>
      <trkpt lat="46.55857" lon="5.26205">
        <ele>215</ele>
        <time>2021-11-18T13:36:17Z</time>
      </trkpt>
      <trkpt lat="46.55896" lon="5.26206">
        <ele>214.2</ele>
        <time>2021-11-18T13:36:22Z</time>
      </trkpt>
      <trkpt lat="46.55913" lon="5.26206">
        <ele>214</ele>
        <time>2021-11-18T13:36:24Z</time>
      </trkpt>
      <trkpt lat="46.5594" lon="5.26205">
        <ele>212.6</ele>
        <time>2021-11-18T13:36:27Z</time>
      </trkpt>
      <trkpt lat="46.55968" lon="5.26203">
        <ele>211.4</ele>
        <time>2021-11-18T13:36:30Z</time>
      </trkpt>
      <trkpt lat="46.55978" lon="5.26203">
        <ele>210.2</ele>
        <time>2021-11-18T13:36:31Z</time>
      </trkpt>
      <trkpt lat="46.56006" lon="5.26202">
        <ele>208.8</ele>
        <time>2021-11-18T13:36:34Z</time>
      </trkpt>
      <trkpt lat="46.56026" lon="5.26202">
        <ele>207.6</ele>
        <time>2021-11-18T13:36:36Z</time>
      </trkpt>
      <trkpt lat="46.56045" lon="5.26204">
        <ele>207</ele>
        <time>2021-11-18T13:36:38Z</time>
      </trkpt>
      <trkpt lat="46.56055" lon="5.26204">
        <ele>206.6</ele>
        <time>2021-11-18T13:36:39Z</time>
      </trkpt>
      <trkpt lat="46.56075" lon="5.26207">
        <ele>205.4</ele>
        <time>2021-11-18T13:36:41Z</time>
      </trkpt>
      <trkpt lat="46.56093" lon="5.26211">
        <ele>204</ele>
        <time>2021-11-18T13:36:43Z</time>
      </trkpt>
      <trkpt lat="46.5611" lon="5.26216">
        <ele>202.8</ele>
        <time>2021-11-18T13:36:45Z</time>
      </trkpt>
      <trkpt lat="46.56119" lon="5.26218">
        <ele>202.4</ele>
        <time>2021-11-18T13:36:46Z</time>
      </trkpt>
      <trkpt lat="46.56135" lon="5.26218">
        <ele>201.8</ele>
        <time>2021-11-18T13:36:48Z</time>
      </trkpt>
      <trkpt lat="46.56144" lon="5.26216">
        <ele>201.6</ele>
        <time>2021-11-18T13:36:49Z</time>
      </trkpt>
      <trkpt lat="46.56152" lon="5.26213">
        <ele>201.6</ele>
        <time>2021-11-18T13:36:50Z</time>
      </trkpt>
      <trkpt lat="46.56173" lon="5.26198">
        <ele>201.2</ele>
        <time>2021-11-18T13:36:53Z</time>
      </trkpt>
      <trkpt lat="46.56207" lon="5.26166">
        <ele>200.6</ele>
        <time>2021-11-18T13:36:58Z</time>
      </trkpt>
      <trkpt lat="46.5622" lon="5.26153">
        <ele>200.4</ele>
        <time>2021-11-18T13:37:00Z</time>
      </trkpt>
      <trkpt lat="46.56266" lon="5.26109">
        <ele>200</ele>
        <time>2021-11-18T13:37:07Z</time>
      </trkpt>
      <trkpt lat="46.56273" lon="5.26102">
        <ele>199.8</ele>
        <time>2021-11-18T13:37:08Z</time>
      </trkpt>
      <trkpt lat="46.56292" lon="5.26084">
        <ele>199.6</ele>
        <time>2021-11-18T13:37:11Z</time>
      </trkpt>
      <trkpt lat="46.56331" lon="5.26047">
        <ele>199.2</ele>
        <time>2021-11-18T13:37:17Z</time>
      </trkpt>
      <trkpt lat="46.56379" lon="5.26001">
        <ele>199</ele>
        <time>2021-11-18T13:37:25Z</time>
      </trkpt>
      <trkpt lat="46.56397" lon="5.25985">
        <ele>199</ele>
        <time>2021-11-18T13:37:28Z</time>
      </trkpt>
      <trkpt lat="46.56443" lon="5.25942">
        <ele>198.8</ele>
        <time>2021-11-18T13:37:36Z</time>
      </trkpt>
      <trkpt lat="46.56459" lon="5.25926">
        <ele>198.8</ele>
        <time>2021-11-18T13:37:39Z</time>
      </trkpt>
      <trkpt lat="46.56508" lon="5.25879">
        <ele>198.6</ele>
        <time>2021-11-18T13:37:48Z</time>
      </trkpt>
      <trkpt lat="46.56524" lon="5.25864">
        <ele>198.8</ele>
        <time>2021-11-18T13:37:51Z</time>
      </trkpt>
      <trkpt lat="46.56572" lon="5.25816">
        <ele>198.8</ele>
        <time>2021-11-18T13:38:00Z</time>
      </trkpt>
      <trkpt lat="46.56577" lon="5.25811">
        <ele>198.8</ele>
        <time>2021-11-18T13:38:01Z</time>
      </trkpt>
      <trkpt lat="46.56597" lon="5.25787">
        <ele>198.8</ele>
        <time>2021-11-18T13:38:05Z</time>
      </trkpt>
      <trkpt lat="46.56602" lon="5.25781">
        <ele>198.8</ele>
        <time>2021-11-18T13:38:06Z</time>
      </trkpt>
      <trkpt lat="46.56642" lon="5.25735">
        <ele>198.4</ele>
        <time>2021-11-18T13:38:14Z</time>
      </trkpt>
      <trkpt lat="46.56647" lon="5.25729">
        <ele>198.4</ele>
        <time>2021-11-18T13:38:15Z</time>
      </trkpt>
      <trkpt lat="46.56693" lon="5.25675">
        <ele>198.2</ele>
        <time>2021-11-18T13:38:24Z</time>
      </trkpt>
      <trkpt lat="46.5671" lon="5.25656">
        <ele>198</ele>
        <time>2021-11-18T13:38:27Z</time>
      </trkpt>
      <trkpt lat="46.56741" lon="5.25616">
        <ele>197.6</ele>
        <time>2021-11-18T13:38:33Z</time>
      </trkpt>
      <trkpt lat="46.5675" lon="5.25602">
        <ele>197.6</ele>
        <time>2021-11-18T13:38:35Z</time>
      </trkpt>
      <trkpt lat="46.56779" lon="5.25544">
        <ele>197.2</ele>
        <time>2021-11-18T13:38:42Z</time>
      </trkpt>
      <trkpt lat="46.56797" lon="5.25497">
        <ele>196.6</ele>
        <time>2021-11-18T13:38:47Z</time>
      </trkpt>
      <trkpt lat="46.5681" lon="5.25457">
        <ele>196.2</ele>
        <time>2021-11-18T13:38:51Z</time>
      </trkpt>
      <trkpt lat="46.56812" lon="5.25446">
        <ele>196.2</ele>
        <time>2021-11-18T13:38:52Z</time>
      </trkpt>
      <trkpt lat="46.56814" lon="5.25413">
        <ele>195.4</ele>
        <time>2021-11-18T13:38:55Z</time>
      </trkpt>
      <trkpt lat="46.56808" lon="5.25362">
        <ele>195</ele>
        <time>2021-11-18T13:39:00Z</time>
      </trkpt>
      <trkpt lat="46.56792" lon="5.25298">
        <ele>195.2</ele>
        <time>2021-11-18T13:39:07Z</time>
      </trkpt>
      <trkpt lat="46.56783" lon="5.25243">
        <ele>195.6</ele>
        <time>2021-11-18T13:39:13Z</time>
      </trkpt>
      <trkpt lat="46.56783" lon="5.25218">
        <ele>195.8</ele>
        <time>2021-11-18T13:39:16Z</time>
      </trkpt>
      <trkpt lat="46.56786" lon="5.25191">
        <ele>196</ele>
        <time>2021-11-18T13:39:19Z</time>
      </trkpt>
      <trkpt lat="46.56798" lon="5.25143">
        <ele>196.2</ele>
        <time>2021-11-18T13:39:25Z</time>
      </trkpt>
      <trkpt lat="46.56808" lon="5.25099">
        <ele>196.4</ele>
        <time>2021-11-18T13:39:30Z</time>
      </trkpt>
      <trkpt lat="46.56809" lon="5.2509">
        <ele>196.4</ele>
        <time>2021-11-18T13:39:31Z</time>
      </trkpt>
      <trkpt lat="46.5681" lon="5.25062">
        <ele>196.8</ele>
        <time>2021-11-18T13:39:34Z</time>
      </trkpt>
      <trkpt lat="46.56811" lon="5.25027">
        <ele>197.4</ele>
        <time>2021-11-18T13:39:38Z</time>
      </trkpt>
      <trkpt lat="46.56813" lon="5.25009">
        <ele>197.6</ele>
        <time>2021-11-18T13:39:40Z</time>
      </trkpt>
      <trkpt lat="46.56821" lon="5.24985">
        <ele>197.8</ele>
        <time>2021-11-18T13:39:43Z</time>
      </trkpt>
      <trkpt lat="46.56846" lon="5.24944">
        <ele>198</ele>
        <time>2021-11-18T13:39:49Z</time>
      </trkpt>
      <trkpt lat="46.56878" lon="5.24898">
        <ele>198.2</ele>
        <time>2021-11-18T13:39:56Z</time>
      </trkpt>
      <trkpt lat="46.5689" lon="5.24875">
        <ele>198.2</ele>
        <time>2021-11-18T13:39:59Z</time>
      </trkpt>
      <trkpt lat="46.56898" lon="5.24853">
        <ele>197.8</ele>
        <time>2021-11-18T13:40:02Z</time>
      </trkpt>
      <trkpt lat="46.56918" lon="5.248">
        <ele>197.4</ele>
        <time>2021-11-18T13:40:09Z</time>
      </trkpt>
      <trkpt lat="46.5692" lon="5.2479">
        <ele>197.2</ele>
        <time>2021-11-18T13:40:11Z</time>
      </trkpt>
      <trkpt lat="46.56919" lon="5.24788">
        <ele>197.2</ele>
        <time>2021-11-18T13:40:12Z</time>
      </trkpt>
      <trkpt lat="46.56916" lon="5.24791">
        <ele>197.2</ele>
        <time>2021-11-18T13:40:14Z</time>
      </trkpt>
      <trkpt lat="46.56916" lon="5.24805">
        <ele>197</ele>
        <time>2021-11-18T13:40:17Z</time>
      </trkpt>
      <trkpt lat="46.56919" lon="5.24811">
        <ele>197</ele>
        <time>2021-11-18T13:40:18Z</time>
      </trkpt>
      <trkpt lat="46.56922" lon="5.24816">
        <ele>197</ele>
        <time>2021-11-18T13:40:19Z</time>
      </trkpt>
      <trkpt lat="46.56937" lon="5.24829">
        <ele>197</ele>
        <time>2021-11-18T13:40:22Z</time>
      </trkpt>
      <trkpt lat="46.56942" lon="5.24834">
        <ele>196.8</ele>
        <time>2021-11-18T13:40:23Z</time>
      </trkpt>
      <trkpt lat="46.56974" lon="5.24861">
        <ele>196</ele>
        <time>2021-11-18T13:40:30Z</time>
      </trkpt>
      <trkpt lat="46.56985" lon="5.24873">
        <ele>196</ele>
        <time>2021-11-18T13:40:34Z</time>
      </trkpt>
      <trkpt lat="46.56986" lon="5.24876">
        <ele>195.8</ele>
        <time>2021-11-18T13:40:35Z</time>
      </trkpt>
      <trkpt lat="46.56985" lon="5.24882">
        <ele>195.8</ele>
        <time>2021-11-18T13:40:37Z</time>
      </trkpt>
      <trkpt lat="46.56984" lon="5.24885">
        <ele>196</ele>
        <time>2021-11-18T13:40:42Z</time>
      </trkpt>
      <trkpt lat="46.56986" lon="5.24876">
        <ele>196.4</ele>
        <time>2021-11-18T13:41:34Z</time>
      </trkpt>
      <trkpt lat="46.5698" lon="5.24867">
        <ele>196.4</ele>
        <time>2021-11-18T13:41:36Z</time>
      </trkpt>
      <trkpt lat="46.5696" lon="5.24852">
        <ele>196.2</ele>
        <time>2021-11-18T13:41:40Z</time>
      </trkpt>
      <trkpt lat="46.56925" lon="5.24821">
        <ele>196.2</ele>
        <time>2021-11-18T13:41:47Z</time>
      </trkpt>
      <trkpt lat="46.56919" lon="5.24809">
        <ele>196.2</ele>
        <time>2021-11-18T13:41:49Z</time>
      </trkpt>
      <trkpt lat="46.56919" lon="5.24802">
        <ele>196.4</ele>
        <time>2021-11-18T13:41:50Z</time>
      </trkpt>
      <trkpt lat="46.56919" lon="5.24795">
        <ele>196.4</ele>
        <time>2021-11-18T13:41:51Z</time>
      </trkpt>
      <trkpt lat="46.56924" lon="5.24779">
        <ele>196.4</ele>
        <time>2021-11-18T13:41:53Z</time>
      </trkpt>
      <trkpt lat="46.56945" lon="5.24718">
        <ele>197.4</ele>
        <time>2021-11-18T13:42:01Z</time>
      </trkpt>
      <trkpt lat="46.56953" lon="5.24696">
        <ele>197.8</ele>
        <time>2021-11-18T13:42:04Z</time>
      </trkpt>
      <trkpt lat="46.56966" lon="5.24663">
        <ele>198.6</ele>
        <time>2021-11-18T13:42:09Z</time>
      </trkpt>
      <trkpt lat="46.56973" lon="5.2465">
        <ele>199</ele>
        <time>2021-11-18T13:42:12Z</time>
      </trkpt>
      <trkpt lat="46.56975" lon="5.24647">
        <ele>199</ele>
        <time>2021-11-18T13:42:13Z</time>
      </trkpt>
      <trkpt lat="46.56981" lon="5.24647">
        <ele>199.4</ele>
        <time>2021-11-18T13:42:15Z</time>
      </trkpt>
      <trkpt lat="46.56985" lon="5.24649">
        <ele>199.4</ele>
        <time>2021-11-18T13:42:16Z</time>
      </trkpt>
      <trkpt lat="46.57008" lon="5.24657">
        <ele>199.8</ele>
        <time>2021-11-18T13:42:20Z</time>
      </trkpt>
      <trkpt lat="46.57052" lon="5.24672">
        <ele>199.6</ele>
        <time>2021-11-18T13:42:27Z</time>
      </trkpt>
      <trkpt lat="46.57102" lon="5.24689">
        <ele>198.6</ele>
        <time>2021-11-18T13:42:34Z</time>
      </trkpt>
      <trkpt lat="46.57131" lon="5.24696">
        <ele>197.8</ele>
        <time>2021-11-18T13:42:38Z</time>
      </trkpt>
      <trkpt lat="46.57145" lon="5.24694">
        <ele>197.4</ele>
        <time>2021-11-18T13:42:40Z</time>
      </trkpt>
      <trkpt lat="46.57181" lon="5.24683">
        <ele>196.2</ele>
        <time>2021-11-18T13:42:45Z</time>
      </trkpt>
      <trkpt lat="46.57197" lon="5.24676">
        <ele>195.8</ele>
        <time>2021-11-18T13:42:47Z</time>
      </trkpt>
      <trkpt lat="46.57233" lon="5.24662">
        <ele>195.2</ele>
        <time>2021-11-18T13:42:52Z</time>
      </trkpt>
      <trkpt lat="46.57253" lon="5.24656">
        <ele>194.8</ele>
        <time>2021-11-18T13:42:55Z</time>
      </trkpt>
      <trkpt lat="46.57268" lon="5.24653">
        <ele>194.6</ele>
        <time>2021-11-18T13:42:57Z</time>
      </trkpt>
      <trkpt lat="46.5728" lon="5.24659">
        <ele>194.6</ele>
        <time>2021-11-18T13:42:59Z</time>
      </trkpt>
      <trkpt lat="46.57289" lon="5.24676">
        <ele>194.4</ele>
        <time>2021-11-18T13:43:01Z</time>
      </trkpt>
      <trkpt lat="46.57292" lon="5.24686">
        <ele>194.4</ele>
        <time>2021-11-18T13:43:02Z</time>
      </trkpt>
      <trkpt lat="46.57295" lon="5.24695">
        <ele>194.4</ele>
        <time>2021-11-18T13:43:03Z</time>
      </trkpt>
      <trkpt lat="46.57308" lon="5.24719">
        <ele>194.2</ele>
        <time>2021-11-18T13:43:06Z</time>
      </trkpt>
      <trkpt lat="46.57313" lon="5.24726">
        <ele>194.2</ele>
        <time>2021-11-18T13:43:07Z</time>
      </trkpt>
      <trkpt lat="46.57319" lon="5.24732">
        <ele>194.2</ele>
        <time>2021-11-18T13:43:08Z</time>
      </trkpt>
      <trkpt lat="46.57329" lon="5.24743">
        <ele>194</ele>
        <time>2021-11-18T13:43:10Z</time>
      </trkpt>
      <trkpt lat="46.57358" lon="5.24773">
        <ele>194</ele>
        <time>2021-11-18T13:43:16Z</time>
      </trkpt>
      <trkpt lat="46.57373" lon="5.2479">
        <ele>194.2</ele>
        <time>2021-11-18T13:43:20Z</time>
      </trkpt>
      <trkpt lat="46.57382" lon="5.24806">
        <ele>194.2</ele>
        <time>2021-11-18T13:43:22Z</time>
      </trkpt>
      <trkpt lat="46.57389" lon="5.24823">
        <ele>194</ele>
        <time>2021-11-18T13:43:24Z</time>
      </trkpt>
      <trkpt lat="46.57418" lon="5.24887">
        <ele>194.2</ele>
        <time>2021-11-18T13:43:31Z</time>
      </trkpt>
      <trkpt lat="46.57449" lon="5.24955">
        <ele>194.8</ele>
        <time>2021-11-18T13:43:39Z</time>
      </trkpt>
      <trkpt lat="46.57453" lon="5.24964">
        <ele>194.8</ele>
        <time>2021-11-18T13:43:40Z</time>
      </trkpt>
      <trkpt lat="46.57483" lon="5.25033">
        <ele>194.8</ele>
        <time>2021-11-18T13:43:48Z</time>
      </trkpt>
      <trkpt lat="46.57502" lon="5.25075">
        <ele>195</ele>
        <time>2021-11-18T13:43:53Z</time>
      </trkpt>
      <trkpt lat="46.5753" lon="5.25117">
        <ele>195.4</ele>
        <time>2021-11-18T13:43:59Z</time>
      </trkpt>
      <trkpt lat="46.57535" lon="5.25122">
        <ele>195.4</ele>
        <time>2021-11-18T13:44:00Z</time>
      </trkpt>
      <trkpt lat="46.57545" lon="5.25131">
        <ele>195.6</ele>
        <time>2021-11-18T13:44:02Z</time>
      </trkpt>
      <trkpt lat="46.57556" lon="5.25137">
        <ele>195.8</ele>
        <time>2021-11-18T13:44:04Z</time>
      </trkpt>
      <trkpt lat="46.57588" lon="5.25147">
        <ele>196.4</ele>
        <time>2021-11-18T13:44:10Z</time>
      </trkpt>
      <trkpt lat="46.57615" lon="5.25147">
        <ele>197.4</ele>
        <time>2021-11-18T13:44:15Z</time>
      </trkpt>
      <trkpt lat="46.57621" lon="5.25145">
        <ele>197.6</ele>
        <time>2021-11-18T13:44:16Z</time>
      </trkpt>
      <trkpt lat="46.57631" lon="5.2514">
        <ele>197.8</ele>
        <time>2021-11-18T13:44:18Z</time>
      </trkpt>
      <trkpt lat="46.57651" lon="5.25126">
        <ele>198.2</ele>
        <time>2021-11-18T13:44:22Z</time>
      </trkpt>
      <trkpt lat="46.57661" lon="5.2512">
        <ele>198.6</ele>
        <time>2021-11-18T13:44:24Z</time>
      </trkpt>
      <trkpt lat="46.57691" lon="5.25103">
        <ele>200</ele>
        <time>2021-11-18T13:44:30Z</time>
      </trkpt>
      <trkpt lat="46.57725" lon="5.25098">
        <ele>201</ele>
        <time>2021-11-18T13:44:36Z</time>
      </trkpt>
      <trkpt lat="46.57759" lon="5.25098">
        <ele>202</ele>
        <time>2021-11-18T13:44:42Z</time>
      </trkpt>
      <trkpt lat="46.57776" lon="5.25099">
        <ele>202.8</ele>
        <time>2021-11-18T13:44:45Z</time>
      </trkpt>
      <trkpt lat="46.57795" lon="5.25099">
        <ele>203.2</ele>
        <time>2021-11-18T13:44:48Z</time>
      </trkpt>
      <trkpt lat="46.57834" lon="5.25101">
        <ele>203.2</ele>
        <time>2021-11-18T13:44:54Z</time>
      </trkpt>
      <trkpt lat="46.57892" lon="5.25101">
        <ele>202.4</ele>
        <time>2021-11-18T13:45:02Z</time>
      </trkpt>
      <trkpt lat="46.579" lon="5.25101">
        <ele>202.2</ele>
        <time>2021-11-18T13:45:03Z</time>
      </trkpt>
      <trkpt lat="46.57936" lon="5.251">
        <ele>201</ele>
        <time>2021-11-18T13:45:08Z</time>
      </trkpt>
      <trkpt lat="46.57942" lon="5.25099">
        <ele>201</ele>
        <time>2021-11-18T13:45:09Z</time>
      </trkpt>
      <trkpt lat="46.57956" lon="5.251">
        <ele>200.2</ele>
        <time>2021-11-18T13:45:11Z</time>
      </trkpt>
      <trkpt lat="46.57967" lon="5.25111">
        <ele>200</ele>
        <time>2021-11-18T13:45:13Z</time>
      </trkpt>
      <trkpt lat="46.5797" lon="5.25125">
        <ele>199.6</ele>
        <time>2021-11-18T13:45:15Z</time>
      </trkpt>
      <trkpt lat="46.57965" lon="5.25132">
        <ele>199.4</ele>
        <time>2021-11-18T13:45:16Z</time>
      </trkpt>
      <trkpt lat="46.57951" lon="5.25139">
        <ele>198.8</ele>
        <time>2021-11-18T13:45:18Z</time>
      </trkpt>
      <trkpt lat="46.57925" lon="5.25136">
        <ele>197.8</ele>
        <time>2021-11-18T13:45:21Z</time>
      </trkpt>
      <trkpt lat="46.57882" lon="5.25129">
        <ele>196.4</ele>
        <time>2021-11-18T13:45:26Z</time>
      </trkpt>
      <trkpt lat="46.57874" lon="5.25128">
        <ele>196.2</ele>
        <time>2021-11-18T13:45:27Z</time>
      </trkpt>
      <trkpt lat="46.57834" lon="5.25128">
        <ele>195.8</ele>
        <time>2021-11-18T13:45:32Z</time>
      </trkpt>
      <trkpt lat="46.57826" lon="5.2513">
        <ele>195.6</ele>
        <time>2021-11-18T13:45:33Z</time>
      </trkpt>
      <trkpt lat="46.57801" lon="5.25144">
        <ele>195.4</ele>
        <time>2021-11-18T13:45:36Z</time>
      </trkpt>
      <trkpt lat="46.57752" lon="5.25185">
        <ele>195.4</ele>
        <time>2021-11-18T13:45:43Z</time>
      </trkpt>
      <trkpt lat="46.57704" lon="5.25225">
        <ele>195.6</ele>
        <time>2021-11-18T13:45:50Z</time>
      </trkpt>
      <trkpt lat="46.57687" lon="5.25241">
        <ele>195.6</ele>
        <time>2021-11-18T13:45:53Z</time>
      </trkpt>
      <trkpt lat="46.57644" lon="5.25278">
        <ele>195.8</ele>
        <time>2021-11-18T13:46:00Z</time>
      </trkpt>
      <trkpt lat="46.57592" lon="5.2532">
        <ele>197</ele>
        <time>2021-11-18T13:46:09Z</time>
      </trkpt>
      <trkpt lat="46.57587" lon="5.25325">
        <ele>197.2</ele>
        <time>2021-11-18T13:46:10Z</time>
      </trkpt>
      <trkpt lat="46.57578" lon="5.25337">
        <ele>197.6</ele>
        <time>2021-11-18T13:46:12Z</time>
      </trkpt>
      <trkpt lat="46.57571" lon="5.25352">
        <ele>197.6</ele>
        <time>2021-11-18T13:46:14Z</time>
      </trkpt>
      <trkpt lat="46.57569" lon="5.2536">
        <ele>197.8</ele>
        <time>2021-11-18T13:46:15Z</time>
      </trkpt>
      <trkpt lat="46.57566" lon="5.25378">
        <ele>198.2</ele>
        <time>2021-11-18T13:46:17Z</time>
      </trkpt>
      <trkpt lat="46.57566" lon="5.25396">
        <ele>198.2</ele>
        <time>2021-11-18T13:46:19Z</time>
      </trkpt>
      <trkpt lat="46.57567" lon="5.2542">
        <ele>198.6</ele>
        <time>2021-11-18T13:46:22Z</time>
      </trkpt>
      <trkpt lat="46.57569" lon="5.25443">
        <ele>199.6</ele>
        <time>2021-11-18T13:46:25Z</time>
      </trkpt>
      <trkpt lat="46.5757" lon="5.25449">
        <ele>199.8</ele>
        <time>2021-11-18T13:46:26Z</time>
      </trkpt>
      <trkpt lat="46.5757" lon="5.25479">
        <ele>200.6</ele>
        <time>2021-11-18T13:46:31Z</time>
      </trkpt>
      <trkpt lat="46.5757" lon="5.25484">
        <ele>201</ele>
        <time>2021-11-18T13:46:32Z</time>
      </trkpt>
      <trkpt lat="46.57571" lon="5.25501">
        <ele>202</ele>
        <time>2021-11-18T13:46:35Z</time>
      </trkpt>
      <trkpt lat="46.57573" lon="5.25521">
        <ele>203.2</ele>
        <time>2021-11-18T13:46:39Z</time>
      </trkpt>
      <trkpt lat="46.57574" lon="5.2554">
        <ele>204.4</ele>
        <time>2021-11-18T13:46:43Z</time>
      </trkpt>
      <trkpt lat="46.57575" lon="5.25554">
        <ele>205.4</ele>
        <time>2021-11-18T13:46:46Z</time>
      </trkpt>
      <trkpt lat="46.57578" lon="5.25579">
        <ele>206.6</ele>
        <time>2021-11-18T13:46:51Z</time>
      </trkpt>
      <trkpt lat="46.57582" lon="5.25598">
        <ele>208.2</ele>
        <time>2021-11-18T13:46:55Z</time>
      </trkpt>
      <trkpt lat="46.57588" lon="5.25616">
        <ele>209.4</ele>
        <time>2021-11-18T13:46:59Z</time>
      </trkpt>
      <trkpt lat="46.57591" lon="5.25632">
        <ele>210.2</ele>
        <time>2021-11-18T13:47:02Z</time>
      </trkpt>
      <trkpt lat="46.57593" lon="5.25637">
        <ele>210.4</ele>
        <time>2021-11-18T13:47:03Z</time>
      </trkpt>
      <trkpt lat="46.57598" lon="5.25657">
        <ele>211.8</ele>
        <time>2021-11-18T13:47:07Z</time>
      </trkpt>
      <trkpt lat="46.57606" lon="5.2568">
        <ele>212.8</ele>
        <time>2021-11-18T13:47:12Z</time>
      </trkpt>
      <trkpt lat="46.5761" lon="5.25695">
        <ele>213.8</ele>
        <time>2021-11-18T13:47:15Z</time>
      </trkpt>
      <trkpt lat="46.57614" lon="5.2571">
        <ele>214.8</ele>
        <time>2021-11-18T13:47:18Z</time>
      </trkpt>
      <trkpt lat="46.57616" lon="5.25715">
        <ele>215</ele>
        <time>2021-11-18T13:47:19Z</time>
      </trkpt>
      <trkpt lat="46.57628" lon="5.25755">
        <ele>216</ele>
        <time>2021-11-18T13:47:26Z</time>
      </trkpt>
      <trkpt lat="46.57632" lon="5.25766">
        <ele>216.4</ele>
        <time>2021-11-18T13:47:28Z</time>
      </trkpt>
      <trkpt lat="46.57635" lon="5.25779">
        <ele>216.6</ele>
        <time>2021-11-18T13:47:30Z</time>
      </trkpt>
      <trkpt lat="46.57643" lon="5.25803">
        <ele>217.2</ele>
        <time>2021-11-18T13:47:34Z</time>
      </trkpt>
      <trkpt lat="46.57645" lon="5.2581">
        <ele>217.2</ele>
        <time>2021-11-18T13:47:35Z</time>
      </trkpt>
      <trkpt lat="46.57649" lon="5.25823">
        <ele>217.4</ele>
        <time>2021-11-18T13:47:37Z</time>
      </trkpt>
      <trkpt lat="46.57656" lon="5.2585">
        <ele>217.6</ele>
        <time>2021-11-18T13:47:41Z</time>
      </trkpt>
      <trkpt lat="46.57664" lon="5.25883">
        <ele>217.6</ele>
        <time>2021-11-18T13:47:45Z</time>
      </trkpt>
      <trkpt lat="46.57667" lon="5.25892">
        <ele>217.6</ele>
        <time>2021-11-18T13:47:46Z</time>
      </trkpt>
      <trkpt lat="46.57687" lon="5.25953">
        <ele>217.4</ele>
        <time>2021-11-18T13:47:53Z</time>
      </trkpt>
      <trkpt lat="46.57708" lon="5.26018">
        <ele>216.4</ele>
        <time>2021-11-18T13:48:00Z</time>
      </trkpt>
      <trkpt lat="46.57715" lon="5.26038">
        <ele>216.2</ele>
        <time>2021-11-18T13:48:02Z</time>
      </trkpt>
      <trkpt lat="46.57728" lon="5.26072">
        <ele>215.4</ele>
        <time>2021-11-18T13:48:05Z</time>
      </trkpt>
      <trkpt lat="46.57732" lon="5.26084">
        <ele>215</ele>
        <time>2021-11-18T13:48:06Z</time>
      </trkpt>
      <trkpt lat="46.57758" lon="5.26152">
        <ele>213.6</ele>
        <time>2021-11-18T13:48:12Z</time>
      </trkpt>
      <trkpt lat="46.57786" lon="5.26225">
        <ele>212.6</ele>
        <time>2021-11-18T13:48:19Z</time>
      </trkpt>
      <trkpt lat="46.57793" lon="5.26244">
        <ele>212.6</ele>
        <time>2021-11-18T13:48:21Z</time>
      </trkpt>
      <trkpt lat="46.57818" lon="5.26308">
        <ele>212</ele>
        <time>2021-11-18T13:48:28Z</time>
      </trkpt>
      <trkpt lat="46.57832" lon="5.26342">
        <ele>212.2</ele>
        <time>2021-11-18T13:48:33Z</time>
      </trkpt>
      <trkpt lat="46.57848" lon="5.26386">
        <ele>214</ele>
        <time>2021-11-18T13:48:40Z</time>
      </trkpt>
      <trkpt lat="46.5785" lon="5.26392">
        <ele>214.2</ele>
        <time>2021-11-18T13:48:41Z</time>
      </trkpt>
      <trkpt lat="46.57859" lon="5.26415">
        <ele>215.2</ele>
        <time>2021-11-18T13:48:45Z</time>
      </trkpt>
      <trkpt lat="46.57869" lon="5.26441">
        <ele>216.2</ele>
        <time>2021-11-18T13:48:49Z</time>
      </trkpt>
      <trkpt lat="46.57872" lon="5.26448">
        <ele>216.4</ele>
        <time>2021-11-18T13:48:50Z</time>
      </trkpt>
      <trkpt lat="46.57886" lon="5.2649">
        <ele>217.6</ele>
        <time>2021-11-18T13:48:56Z</time>
      </trkpt>
      <trkpt lat="46.57913" lon="5.26562">
        <ele>218.2</ele>
        <time>2021-11-18T13:49:06Z</time>
      </trkpt>
      <trkpt lat="46.57916" lon="5.2657">
        <ele>218.4</ele>
        <time>2021-11-18T13:49:07Z</time>
      </trkpt>
      <trkpt lat="46.57931" lon="5.26608">
        <ele>218.6</ele>
        <time>2021-11-18T13:49:12Z</time>
      </trkpt>
      <trkpt lat="46.57942" lon="5.2663">
        <ele>218.6</ele>
        <time>2021-11-18T13:49:15Z</time>
      </trkpt>
      <trkpt lat="46.5798" lon="5.26693">
        <ele>218.8</ele>
        <time>2021-11-18T13:49:24Z</time>
      </trkpt>
      <trkpt lat="46.58017" lon="5.2675">
        <ele>218</ele>
        <time>2021-11-18T13:49:32Z</time>
      </trkpt>
      <trkpt lat="46.58048" lon="5.26799">
        <ele>217.8</ele>
        <time>2021-11-18T13:49:39Z</time>
      </trkpt>
      <trkpt lat="46.58071" lon="5.26834">
        <ele>217.6</ele>
        <time>2021-11-18T13:49:44Z</time>
      </trkpt>
      <trkpt lat="46.58093" lon="5.2687">
        <ele>217.6</ele>
        <time>2021-11-18T13:49:49Z</time>
      </trkpt>
      <trkpt lat="46.58129" lon="5.26925">
        <ele>217.2</ele>
        <time>2021-11-18T13:49:57Z</time>
      </trkpt>
      <trkpt lat="46.58168" lon="5.26986">
        <ele>217.8</ele>
        <time>2021-11-18T13:50:06Z</time>
      </trkpt>
      <trkpt lat="46.58173" lon="5.26993">
        <ele>217.8</ele>
        <time>2021-11-18T13:50:07Z</time>
      </trkpt>
      <trkpt lat="46.58212" lon="5.27052">
        <ele>217.8</ele>
        <time>2021-11-18T13:50:16Z</time>
      </trkpt>
      <trkpt lat="46.5824" lon="5.27098">
        <ele>217.8</ele>
        <time>2021-11-18T13:50:23Z</time>
      </trkpt>
      <trkpt lat="46.58242" lon="5.27103">
        <ele>217.8</ele>
        <time>2021-11-18T13:50:24Z</time>
      </trkpt>
      <trkpt lat="46.58245" lon="5.27118">
        <ele>217.6</ele>
        <time>2021-11-18T13:50:28Z</time>
      </trkpt>
      <trkpt lat="46.58255" lon="5.27125">
        <ele>217.6</ele>
        <time>2021-11-18T13:50:31Z</time>
      </trkpt>
      <trkpt lat="46.58272" lon="5.27148">
        <ele>217.4</ele>
        <time>2021-11-18T13:50:35Z</time>
      </trkpt>
      <trkpt lat="46.58303" lon="5.27188">
        <ele>217.4</ele>
        <time>2021-11-18T13:50:41Z</time>
      </trkpt>
      <trkpt lat="46.58314" lon="5.272">
        <ele>217.4</ele>
        <time>2021-11-18T13:50:43Z</time>
      </trkpt>
      <trkpt lat="46.58335" lon="5.27221">
        <ele>217.6</ele>
        <time>2021-11-18T13:50:47Z</time>
      </trkpt>
      <trkpt lat="46.58375" lon="5.27261">
        <ele>218.2</ele>
        <time>2021-11-18T13:50:55Z</time>
      </trkpt>
      <trkpt lat="46.58416" lon="5.27302">
        <ele>218</ele>
        <time>2021-11-18T13:51:03Z</time>
      </trkpt>
      <trkpt lat="46.58453" lon="5.2735">
        <ele>218</ele>
        <time>2021-11-18T13:51:11Z</time>
      </trkpt>
      <trkpt lat="46.58491" lon="5.27416">
        <ele>217.2</ele>
        <time>2021-11-18T13:51:20Z</time>
      </trkpt>
      <trkpt lat="46.58523" lon="5.27486">
        <ele>217.2</ele>
        <time>2021-11-18T13:51:29Z</time>
      </trkpt>
      <trkpt lat="46.58539" lon="5.27527">
        <ele>217.2</ele>
        <time>2021-11-18T13:51:34Z</time>
      </trkpt>
      <trkpt lat="46.58541" lon="5.27538">
        <ele>217.2</ele>
        <time>2021-11-18T13:51:35Z</time>
      </trkpt>
      <trkpt lat="46.58542" lon="5.27547">
        <ele>217.2</ele>
        <time>2021-11-18T13:51:36Z</time>
      </trkpt>
      <trkpt lat="46.5854" lon="5.27574">
        <ele>217.2</ele>
        <time>2021-11-18T13:51:39Z</time>
      </trkpt>
      <trkpt lat="46.58528" lon="5.27658">
        <ele>217.2</ele>
        <time>2021-11-18T13:51:48Z</time>
      </trkpt>
      <trkpt lat="46.58526" lon="5.27669">
        <ele>217</ele>
        <time>2021-11-18T13:51:49Z</time>
      </trkpt>
      <trkpt lat="46.58519" lon="5.27707">
        <ele>216.8</ele>
        <time>2021-11-18T13:51:53Z</time>
      </trkpt>
      <trkpt lat="46.58508" lon="5.27759">
        <ele>216.4</ele>
        <time>2021-11-18T13:51:58Z</time>
      </trkpt>
      <trkpt lat="46.58499" lon="5.27797">
        <ele>215.6</ele>
        <time>2021-11-18T13:52:01Z</time>
      </trkpt>
      <trkpt lat="46.5849" lon="5.27835">
        <ele>214.8</ele>
        <time>2021-11-18T13:52:04Z</time>
      </trkpt>
      <trkpt lat="46.58486" lon="5.27849">
        <ele>214.4</ele>
        <time>2021-11-18T13:52:05Z</time>
      </trkpt>
      <trkpt lat="46.58478" lon="5.2789">
        <ele>213.2</ele>
        <time>2021-11-18T13:52:08Z</time>
      </trkpt>
      <trkpt lat="46.58471" lon="5.27919">
        <ele>211.8</ele>
        <time>2021-11-18T13:52:10Z</time>
      </trkpt>
      <trkpt lat="46.58464" lon="5.27949">
        <ele>210.4</ele>
        <time>2021-11-18T13:52:12Z</time>
      </trkpt>
      <trkpt lat="46.58457" lon="5.27979">
        <ele>209.2</ele>
        <time>2021-11-18T13:52:14Z</time>
      </trkpt>
      <trkpt lat="46.58452" lon="5.2801">
        <ele>208.2</ele>
        <time>2021-11-18T13:52:16Z</time>
      </trkpt>
      <trkpt lat="46.58453" lon="5.28041">
        <ele>207.2</ele>
        <time>2021-11-18T13:52:18Z</time>
      </trkpt>
      <trkpt lat="46.58455" lon="5.28056">
        <ele>206.6</ele>
        <time>2021-11-18T13:52:19Z</time>
      </trkpt>
      <trkpt lat="46.58459" lon="5.2807">
        <ele>206.2</ele>
        <time>2021-11-18T13:52:20Z</time>
      </trkpt>
      <trkpt lat="46.58463" lon="5.28082">
        <ele>205.4</ele>
        <time>2021-11-18T13:52:21Z</time>
      </trkpt>
      <trkpt lat="46.58468" lon="5.28094">
        <ele>205</ele>
        <time>2021-11-18T13:52:22Z</time>
      </trkpt>
      <trkpt lat="46.5848" lon="5.28115">
        <ele>204.2</ele>
        <time>2021-11-18T13:52:24Z</time>
      </trkpt>
      <trkpt lat="46.58498" lon="5.28144">
        <ele>203</ele>
        <time>2021-11-18T13:52:27Z</time>
      </trkpt>
      <trkpt lat="46.58503" lon="5.28153">
        <ele>202.8</ele>
        <time>2021-11-18T13:52:28Z</time>
      </trkpt>
      <trkpt lat="46.5854" lon="5.28214">
        <ele>202.4</ele>
        <time>2021-11-18T13:52:35Z</time>
      </trkpt>
      <trkpt lat="46.58572" lon="5.28268">
        <ele>203</ele>
        <time>2021-11-18T13:52:42Z</time>
      </trkpt>
      <trkpt lat="46.58611" lon="5.28333">
        <ele>203.8</ele>
        <time>2021-11-18T13:52:51Z</time>
      </trkpt>
      <trkpt lat="46.5864" lon="5.2838">
        <ele>204.4</ele>
        <time>2021-11-18T13:52:58Z</time>
      </trkpt>
      <trkpt lat="46.58644" lon="5.28387">
        <ele>204.4</ele>
        <time>2021-11-18T13:52:59Z</time>
      </trkpt>
      <trkpt lat="46.58674" lon="5.28437">
        <ele>205.2</ele>
        <time>2021-11-18T13:53:07Z</time>
      </trkpt>
      <trkpt lat="46.58678" lon="5.28442">
        <ele>205.6</ele>
        <time>2021-11-18T13:53:08Z</time>
      </trkpt>
      <trkpt lat="46.58691" lon="5.28465">
        <ele>206.2</ele>
        <time>2021-11-18T13:53:12Z</time>
      </trkpt>
      <trkpt lat="46.58705" lon="5.28487">
        <ele>206.8</ele>
        <time>2021-11-18T13:53:16Z</time>
      </trkpt>
      <trkpt lat="46.58713" lon="5.28502">
        <ele>207.2</ele>
        <time>2021-11-18T13:53:19Z</time>
      </trkpt>
      <trkpt lat="46.58725" lon="5.28521">
        <ele>208</ele>
        <time>2021-11-18T13:53:23Z</time>
      </trkpt>
      <trkpt lat="46.58731" lon="5.28531">
        <ele>208.4</ele>
        <time>2021-11-18T13:53:25Z</time>
      </trkpt>
      <trkpt lat="46.58733" lon="5.28536">
        <ele>208.6</ele>
        <time>2021-11-18T13:53:26Z</time>
      </trkpt>
      <trkpt lat="46.58738" lon="5.28545">
        <ele>209</ele>
        <time>2021-11-18T13:53:28Z</time>
      </trkpt>
      <trkpt lat="46.58752" lon="5.2857">
        <ele>210.2</ele>
        <time>2021-11-18T13:53:33Z</time>
      </trkpt>
      <trkpt lat="46.58758" lon="5.28579">
        <ele>210.8</ele>
        <time>2021-11-18T13:53:35Z</time>
      </trkpt>
      <trkpt lat="46.58763" lon="5.28588">
        <ele>211.2</ele>
        <time>2021-11-18T13:53:37Z</time>
      </trkpt>
      <trkpt lat="46.5878" lon="5.28616">
        <ele>212.4</ele>
        <time>2021-11-18T13:53:43Z</time>
      </trkpt>
      <trkpt lat="46.58783" lon="5.28622">
        <ele>212.6</ele>
        <time>2021-11-18T13:53:44Z</time>
      </trkpt>
      <trkpt lat="46.58786" lon="5.28626">
        <ele>212.8</ele>
        <time>2021-11-18T13:53:45Z</time>
      </trkpt>
      <trkpt lat="46.58795" lon="5.28641">
        <ele>213.6</ele>
        <time>2021-11-18T13:53:48Z</time>
      </trkpt>
      <trkpt lat="46.58809" lon="5.28661">
        <ele>214.6</ele>
        <time>2021-11-18T13:53:52Z</time>
      </trkpt>
      <trkpt lat="46.58811" lon="5.28665">
        <ele>214.8</ele>
        <time>2021-11-18T13:53:53Z</time>
      </trkpt>
      <trkpt lat="46.58816" lon="5.2867">
        <ele>215</ele>
        <time>2021-11-18T13:53:54Z</time>
      </trkpt>
      <trkpt lat="46.58834" lon="5.28682">
        <ele>215.4</ele>
        <time>2021-11-18T13:53:58Z</time>
      </trkpt>
      <trkpt lat="46.58859" lon="5.28697">
        <ele>215.6</ele>
        <time>2021-11-18T13:54:03Z</time>
      </trkpt>
      <trkpt lat="46.5887" lon="5.28702">
        <ele>215.6</ele>
        <time>2021-11-18T13:54:05Z</time>
      </trkpt>
      <trkpt lat="46.58905" lon="5.28722">
        <ele>215.8</ele>
        <time>2021-11-18T13:54:11Z</time>
      </trkpt>
      <trkpt lat="46.58911" lon="5.28726">
        <ele>215.8</ele>
        <time>2021-11-18T13:54:12Z</time>
      </trkpt>
      <trkpt lat="46.58916" lon="5.2873">
        <ele>215.6</ele>
        <time>2021-11-18T13:54:13Z</time>
      </trkpt>
      <trkpt lat="46.58931" lon="5.28749">
        <ele>215.2</ele>
        <time>2021-11-18T13:54:16Z</time>
      </trkpt>
      <trkpt lat="46.58935" lon="5.28757">
        <ele>215.2</ele>
        <time>2021-11-18T13:54:17Z</time>
      </trkpt>
      <trkpt lat="46.58961" lon="5.28801">
        <ele>214.8</ele>
        <time>2021-11-18T13:54:23Z</time>
      </trkpt>
      <trkpt lat="46.58966" lon="5.28807">
        <ele>214.8</ele>
        <time>2021-11-18T13:54:24Z</time>
      </trkpt>
      <trkpt lat="46.58971" lon="5.28812">
        <ele>214.8</ele>
        <time>2021-11-18T13:54:25Z</time>
      </trkpt>
      <trkpt lat="46.5899" lon="5.28822">
        <ele>214.8</ele>
        <time>2021-11-18T13:54:28Z</time>
      </trkpt>
      <trkpt lat="46.59047" lon="5.2884">
        <ele>214.6</ele>
        <time>2021-11-18T13:54:37Z</time>
      </trkpt>
      <trkpt lat="46.59053" lon="5.28842">
        <ele>214.8</ele>
        <time>2021-11-18T13:54:38Z</time>
      </trkpt>
      <trkpt lat="46.59076" lon="5.28849">
        <ele>214.6</ele>
        <time>2021-11-18T13:54:42Z</time>
      </trkpt>
      <trkpt lat="46.59113" lon="5.28862">
        <ele>214.8</ele>
        <time>2021-11-18T13:54:48Z</time>
      </trkpt>
      <trkpt lat="46.59159" lon="5.28885">
        <ele>214.8</ele>
        <time>2021-11-18T13:54:55Z</time>
      </trkpt>
      <trkpt lat="46.59197" lon="5.28908">
        <ele>213.4</ele>
        <time>2021-11-18T13:55:00Z</time>
      </trkpt>
      <trkpt lat="46.59205" lon="5.28912">
        <ele>213</ele>
        <time>2021-11-18T13:55:01Z</time>
      </trkpt>
      <trkpt lat="46.5922" lon="5.28921">
        <ele>212.2</ele>
        <time>2021-11-18T13:55:03Z</time>
      </trkpt>
      <trkpt lat="46.59249" lon="5.28938">
        <ele>211.2</ele>
        <time>2021-11-18T13:55:07Z</time>
      </trkpt>
      <trkpt lat="46.59286" lon="5.2896">
        <ele>210.4</ele>
        <time>2021-11-18T13:55:13Z</time>
      </trkpt>
      <trkpt lat="46.59321" lon="5.28982">
        <ele>212</ele>
        <time>2021-11-18T13:55:20Z</time>
      </trkpt>
      <trkpt lat="46.59345" lon="5.28995">
        <ele>212.4</ele>
        <time>2021-11-18T13:55:25Z</time>
      </trkpt>
      <trkpt lat="46.59359" lon="5.29003">
        <ele>212.8</ele>
        <time>2021-11-18T13:55:28Z</time>
      </trkpt>
      <trkpt lat="46.59387" lon="5.29018">
        <ele>213.6</ele>
        <time>2021-11-18T13:55:34Z</time>
      </trkpt>
      <trkpt lat="46.59396" lon="5.29023">
        <ele>213.8</ele>
        <time>2021-11-18T13:55:36Z</time>
      </trkpt>
      <trkpt lat="46.59421" lon="5.2904">
        <ele>214.6</ele>
        <time>2021-11-18T13:55:41Z</time>
      </trkpt>
      <trkpt lat="46.59426" lon="5.29044">
        <ele>214.6</ele>
        <time>2021-11-18T13:55:42Z</time>
      </trkpt>
      <trkpt lat="46.59472" lon="5.29093">
        <ele>215</ele>
        <time>2021-11-18T13:55:51Z</time>
      </trkpt>
      <trkpt lat="46.59517" lon="5.29145">
        <ele>214.6</ele>
        <time>2021-11-18T13:56:00Z</time>
      </trkpt>
      <trkpt lat="46.59563" lon="5.29196">
        <ele>214.2</ele>
        <time>2021-11-18T13:56:09Z</time>
      </trkpt>
      <trkpt lat="46.59568" lon="5.29201">
        <ele>214.2</ele>
        <time>2021-11-18T13:56:10Z</time>
      </trkpt>
      <trkpt lat="46.59585" lon="5.29215">
        <ele>214</ele>
        <time>2021-11-18T13:56:13Z</time>
      </trkpt>
      <trkpt lat="46.59603" lon="5.29224">
        <ele>213.8</ele>
        <time>2021-11-18T13:56:16Z</time>
      </trkpt>
      <trkpt lat="46.59629" lon="5.29231">
        <ele>213.6</ele>
        <time>2021-11-18T13:56:20Z</time>
      </trkpt>
      <trkpt lat="46.59656" lon="5.29236">
        <ele>213.4</ele>
        <time>2021-11-18T13:56:24Z</time>
      </trkpt>
      <trkpt lat="46.59712" lon="5.29246">
        <ele>212.8</ele>
        <time>2021-11-18T13:56:32Z</time>
      </trkpt>
      <trkpt lat="46.59719" lon="5.29248">
        <ele>212.6</ele>
        <time>2021-11-18T13:56:33Z</time>
      </trkpt>
      <trkpt lat="46.59753" lon="5.29261">
        <ele>212</ele>
        <time>2021-11-18T13:56:38Z</time>
      </trkpt>
      <trkpt lat="46.59757" lon="5.29263">
        <ele>212</ele>
        <time>2021-11-18T13:56:39Z</time>
      </trkpt>
      <trkpt lat="46.59769" lon="5.29271">
        <ele>212</ele>
        <time>2021-11-18T13:56:41Z</time>
      </trkpt>
      <trkpt lat="46.5979" lon="5.29291">
        <ele>211.8</ele>
        <time>2021-11-18T13:56:45Z</time>
      </trkpt>
      <trkpt lat="46.59801" lon="5.29301">
        <ele>211.6</ele>
        <time>2021-11-18T13:56:47Z</time>
      </trkpt>
      <trkpt lat="46.59817" lon="5.29317">
        <ele>211.2</ele>
        <time>2021-11-18T13:56:50Z</time>
      </trkpt>
      <trkpt lat="46.59826" lon="5.29332">
        <ele>211</ele>
        <time>2021-11-18T13:56:52Z</time>
      </trkpt>
      <trkpt lat="46.5983" lon="5.29354">
        <ele>210.6</ele>
        <time>2021-11-18T13:56:54Z</time>
      </trkpt>
      <trkpt lat="46.59832" lon="5.29366">
        <ele>210.2</ele>
        <time>2021-11-18T13:56:55Z</time>
      </trkpt>
      <trkpt lat="46.59835" lon="5.29404">
        <ele>209.2</ele>
        <time>2021-11-18T13:56:58Z</time>
      </trkpt>
      <trkpt lat="46.59842" lon="5.29471">
        <ele>208.4</ele>
        <time>2021-11-18T13:57:04Z</time>
      </trkpt>
      <trkpt lat="46.59846" lon="5.29518">
        <ele>208</ele>
        <time>2021-11-18T13:57:08Z</time>
      </trkpt>
      <trkpt lat="46.59851" lon="5.29572">
        <ele>207.2</ele>
        <time>2021-11-18T13:57:13Z</time>
      </trkpt>
      <trkpt lat="46.59852" lon="5.29583">
        <ele>206.8</ele>
        <time>2021-11-18T13:57:14Z</time>
      </trkpt>
      <trkpt lat="46.59855" lon="5.29632">
        <ele>205.8</ele>
        <time>2021-11-18T13:57:18Z</time>
      </trkpt>
      <trkpt lat="46.59854" lon="5.29645">
        <ele>205.2</ele>
        <time>2021-11-18T13:57:19Z</time>
      </trkpt>
      <trkpt lat="46.59851" lon="5.29671">
        <ele>204.4</ele>
        <time>2021-11-18T13:57:21Z</time>
      </trkpt>
      <trkpt lat="46.59844" lon="5.29711">
        <ele>203</ele>
        <time>2021-11-18T13:57:24Z</time>
      </trkpt>
      <trkpt lat="46.5983" lon="5.29765">
        <ele>201.4</ele>
        <time>2021-11-18T13:57:28Z</time>
      </trkpt>
      <trkpt lat="46.59823" lon="5.29792">
        <ele>200.2</ele>
        <time>2021-11-18T13:57:30Z</time>
      </trkpt>
      <trkpt lat="46.59809" lon="5.29841">
        <ele>199.2</ele>
        <time>2021-11-18T13:57:34Z</time>
      </trkpt>
      <trkpt lat="46.598" lon="5.29876">
        <ele>199</ele>
        <time>2021-11-18T13:57:37Z</time>
      </trkpt>
      <trkpt lat="46.59791" lon="5.29932">
        <ele>199.2</ele>
        <time>2021-11-18T13:57:42Z</time>
      </trkpt>
      <trkpt lat="46.59785" lon="5.29997">
        <ele>199.6</ele>
        <time>2021-11-18T13:57:48Z</time>
      </trkpt>
      <trkpt lat="46.59779" lon="5.3007">
        <ele>199.4</ele>
        <time>2021-11-18T13:57:54Z</time>
      </trkpt>
      <trkpt lat="46.5977" lon="5.30143">
        <ele>198.2</ele>
        <time>2021-11-18T13:58:00Z</time>
      </trkpt>
      <trkpt lat="46.59752" lon="5.30221">
        <ele>197.2</ele>
        <time>2021-11-18T13:58:07Z</time>
      </trkpt>
      <trkpt lat="46.5975" lon="5.30232">
        <ele>197.2</ele>
        <time>2021-11-18T13:58:08Z</time>
      </trkpt>
      <trkpt lat="46.59746" lon="5.30265">
        <ele>197.4</ele>
        <time>2021-11-18T13:58:11Z</time>
      </trkpt>
      <trkpt lat="46.59747" lon="5.30287">
        <ele>197.4</ele>
        <time>2021-11-18T13:58:13Z</time>
      </trkpt>
      <trkpt lat="46.59751" lon="5.30309">
        <ele>197.4</ele>
        <time>2021-11-18T13:58:15Z</time>
      </trkpt>
      <trkpt lat="46.59759" lon="5.30338">
        <ele>197.6</ele>
        <time>2021-11-18T13:58:18Z</time>
      </trkpt>
      <trkpt lat="46.59781" lon="5.30378">
        <ele>197.8</ele>
        <time>2021-11-18T13:58:23Z</time>
      </trkpt>
      <trkpt lat="46.59804" lon="5.30423">
        <ele>198.2</ele>
        <time>2021-11-18T13:58:29Z</time>
      </trkpt>
      <trkpt lat="46.59824" lon="5.30486">
        <ele>198.6</ele>
        <time>2021-11-18T13:58:37Z</time>
      </trkpt>
      <trkpt lat="46.59834" lon="5.30514">
        <ele>198.8</ele>
        <time>2021-11-18T13:58:41Z</time>
      </trkpt>
      <trkpt lat="46.59841" lon="5.30524">
        <ele>199</ele>
        <time>2021-11-18T13:58:43Z</time>
      </trkpt>
      <trkpt lat="46.5985" lon="5.30527">
        <ele>199.4</ele>
        <time>2021-11-18T13:58:45Z</time>
      </trkpt>
      <trkpt lat="46.59856" lon="5.30527">
        <ele>199.6</ele>
        <time>2021-11-18T13:58:46Z</time>
      </trkpt>
      <trkpt lat="46.59896" lon="5.30516">
        <ele>200.2</ele>
        <time>2021-11-18T13:58:53Z</time>
      </trkpt>
      <trkpt lat="46.59907" lon="5.30513">
        <ele>200.4</ele>
        <time>2021-11-18T13:58:55Z</time>
      </trkpt>
      <trkpt lat="46.59954" lon="5.30501">
        <ele>201.2</ele>
        <time>2021-11-18T13:59:03Z</time>
      </trkpt>
      <trkpt lat="46.59959" lon="5.30501">
        <ele>201.2</ele>
        <time>2021-11-18T13:59:04Z</time>
      </trkpt>
      <trkpt lat="46.59971" lon="5.30504">
        <ele>201.4</ele>
        <time>2021-11-18T13:59:06Z</time>
      </trkpt>
      <trkpt lat="46.59976" lon="5.30508">
        <ele>201.4</ele>
        <time>2021-11-18T13:59:07Z</time>
      </trkpt>
      <trkpt lat="46.59979" lon="5.30514">
        <ele>201.4</ele>
        <time>2021-11-18T13:59:08Z</time>
      </trkpt>
      <trkpt lat="46.59982" lon="5.30521">
        <ele>201.4</ele>
        <time>2021-11-18T13:59:09Z</time>
      </trkpt>
      <trkpt lat="46.59984" lon="5.30528">
        <ele>201.6</ele>
        <time>2021-11-18T13:59:10Z</time>
      </trkpt>
      <trkpt lat="46.59989" lon="5.30544">
        <ele>201.6</ele>
        <time>2021-11-18T13:59:12Z</time>
      </trkpt>
      <trkpt lat="46.59993" lon="5.30555">
        <ele>201.6</ele>
        <time>2021-11-18T13:59:14Z</time>
      </trkpt>
      <trkpt lat="46.59997" lon="5.30561">
        <ele>201.8</ele>
        <time>2021-11-18T13:59:15Z</time>
      </trkpt>
      <trkpt lat="46.60001" lon="5.30568">
        <ele>201.8</ele>
        <time>2021-11-18T13:59:16Z</time>
      </trkpt>
      <trkpt lat="46.6001" lon="5.30577">
        <ele>202</ele>
        <time>2021-11-18T13:59:18Z</time>
      </trkpt>
      <trkpt lat="46.60015" lon="5.30581">
        <ele>202</ele>
        <time>2021-11-18T13:59:19Z</time>
      </trkpt>
      <trkpt lat="46.60041" lon="5.30598">
        <ele>202.2</ele>
        <time>2021-11-18T13:59:24Z</time>
      </trkpt>
      <trkpt lat="46.6005" lon="5.30608">
        <ele>202.6</ele>
        <time>2021-11-18T13:59:26Z</time>
      </trkpt>
      <trkpt lat="46.60071" lon="5.3063">
        <ele>203</ele>
        <time>2021-11-18T13:59:31Z</time>
      </trkpt>
      <trkpt lat="46.60079" lon="5.30638">
        <ele>203.2</ele>
        <time>2021-11-18T13:59:33Z</time>
      </trkpt>
      <trkpt lat="46.6009" lon="5.30648">
        <ele>203.8</ele>
        <time>2021-11-18T13:59:36Z</time>
      </trkpt>
      <trkpt lat="46.60108" lon="5.30669">
        <ele>205</ele>
        <time>2021-11-18T13:59:41Z</time>
      </trkpt>
      <trkpt lat="46.60121" lon="5.30677">
        <ele>206</ele>
        <time>2021-11-18T13:59:44Z</time>
      </trkpt>
      <trkpt lat="46.60125" lon="5.30679">
        <ele>206.2</ele>
        <time>2021-11-18T13:59:45Z</time>
      </trkpt>
      <trkpt lat="46.60147" lon="5.30682">
        <ele>207.2</ele>
        <time>2021-11-18T13:59:50Z</time>
      </trkpt>
      <trkpt lat="46.6015" lon="5.30684">
        <ele>207.4</ele>
        <time>2021-11-18T13:59:51Z</time>
      </trkpt>
      <trkpt lat="46.60169" lon="5.30701">
        <ele>208.4</ele>
        <time>2021-11-18T13:59:56Z</time>
      </trkpt>
      <trkpt lat="46.60173" lon="5.30705">
        <ele>208.4</ele>
        <time>2021-11-18T13:59:57Z</time>
      </trkpt>
      <trkpt lat="46.60188" lon="5.30721">
        <ele>209.4</ele>
        <time>2021-11-18T14:00:01Z</time>
      </trkpt>
      <trkpt lat="46.60204" lon="5.30739">
        <ele>210.4</ele>
        <time>2021-11-18T14:00:06Z</time>
      </trkpt>
      <trkpt lat="46.60208" lon="5.30745">
        <ele>210.4</ele>
        <time>2021-11-18T14:00:07Z</time>
      </trkpt>
      <trkpt lat="46.60226" lon="5.30767">
        <ele>211.6</ele>
        <time>2021-11-18T14:00:13Z</time>
      </trkpt>
      <trkpt lat="46.60232" lon="5.30776">
        <ele>212.4</ele>
        <time>2021-11-18T14:00:16Z</time>
      </trkpt>
      <trkpt lat="46.60232" lon="5.30781">
        <ele>213</ele>
        <time>2021-11-18T14:00:17Z</time>
      </trkpt>
      <trkpt lat="46.60232" lon="5.30786">
        <ele>213</ele>
        <time>2021-11-18T14:00:18Z</time>
      </trkpt>
      <trkpt lat="46.60224" lon="5.308">
        <ele>214</ele>
        <time>2021-11-18T14:00:21Z</time>
      </trkpt>
      <trkpt lat="46.60221" lon="5.30805">
        <ele>214</ele>
        <time>2021-11-18T14:00:22Z</time>
      </trkpt>
      <trkpt lat="46.60217" lon="5.30811">
        <ele>214.6</ele>
        <time>2021-11-18T14:00:23Z</time>
      </trkpt>
      <trkpt lat="46.60202" lon="5.30839">
        <ele>215</ele>
        <time>2021-11-18T14:00:28Z</time>
      </trkpt>
      <trkpt lat="46.60175" lon="5.30889">
        <ele>215.4</ele>
        <time>2021-11-18T14:00:36Z</time>
      </trkpt>
      <trkpt lat="46.60143" lon="5.30947">
        <ele>215.4</ele>
        <time>2021-11-18T14:00:45Z</time>
      </trkpt>
      <trkpt lat="46.60115" lon="5.30999">
        <ele>215.2</ele>
        <time>2021-11-18T14:00:52Z</time>
      </trkpt>
      <trkpt lat="46.60085" lon="5.31052">
        <ele>215</ele>
        <time>2021-11-18T14:00:59Z</time>
      </trkpt>
      <trkpt lat="46.60081" lon="5.31059">
        <ele>215</ele>
        <time>2021-11-18T14:01:00Z</time>
      </trkpt>
      <trkpt lat="46.60075" lon="5.31076">
        <ele>215</ele>
        <time>2021-11-18T14:01:02Z</time>
      </trkpt>
      <trkpt lat="46.60073" lon="5.31084">
        <ele>215</ele>
        <time>2021-11-18T14:01:03Z</time>
      </trkpt>
      <trkpt lat="46.60067" lon="5.31123">
        <ele>215</ele>
        <time>2021-11-18T14:01:07Z</time>
      </trkpt>
      <trkpt lat="46.60066" lon="5.31131">
        <ele>215</ele>
        <time>2021-11-18T14:01:08Z</time>
      </trkpt>
      <trkpt lat="46.60061" lon="5.31218">
        <ele>215.4</ele>
        <time>2021-11-18T14:01:17Z</time>
      </trkpt>
      <trkpt lat="46.60056" lon="5.31299">
        <ele>215.2</ele>
        <time>2021-11-18T14:01:25Z</time>
      </trkpt>
      <trkpt lat="46.60051" lon="5.31387">
        <ele>214.8</ele>
        <time>2021-11-18T14:01:33Z</time>
      </trkpt>
      <trkpt lat="46.60051" lon="5.31398">
        <ele>214.8</ele>
        <time>2021-11-18T14:01:34Z</time>
      </trkpt>
      <trkpt lat="46.6005" lon="5.31444">
        <ele>214.4</ele>
        <time>2021-11-18T14:01:38Z</time>
      </trkpt>
      <trkpt lat="46.60052" lon="5.31465">
        <ele>214.4</ele>
        <time>2021-11-18T14:01:40Z</time>
      </trkpt>
      <trkpt lat="46.60066" lon="5.31517">
        <ele>214.2</ele>
        <time>2021-11-18T14:01:45Z</time>
      </trkpt>
      <trkpt lat="46.60076" lon="5.31538">
        <ele>214.2</ele>
        <time>2021-11-18T14:01:47Z</time>
      </trkpt>
      <trkpt lat="46.60089" lon="5.31563">
        <ele>214.2</ele>
        <time>2021-11-18T14:01:50Z</time>
      </trkpt>
      <trkpt lat="46.60093" lon="5.31572">
        <ele>214</ele>
        <time>2021-11-18T14:01:51Z</time>
      </trkpt>
      <trkpt lat="46.60126" lon="5.31635">
        <ele>213.4</ele>
        <time>2021-11-18T14:01:58Z</time>
      </trkpt>
      <trkpt lat="46.60134" lon="5.31653">
        <ele>213.2</ele>
        <time>2021-11-18T14:02:00Z</time>
      </trkpt>
      <trkpt lat="46.60158" lon="5.317">
        <ele>213</ele>
        <time>2021-11-18T14:02:06Z</time>
      </trkpt>
      <trkpt lat="46.60183" lon="5.31748">
        <ele>213.6</ele>
        <time>2021-11-18T14:02:13Z</time>
      </trkpt>
      <trkpt lat="46.60208" lon="5.31797">
        <ele>214.6</ele>
        <time>2021-11-18T14:02:20Z</time>
      </trkpt>
      <trkpt lat="46.60215" lon="5.31809">
        <ele>215</ele>
        <time>2021-11-18T14:02:22Z</time>
      </trkpt>
      <trkpt lat="46.6024" lon="5.31861">
        <ele>216</ele>
        <time>2021-11-18T14:02:29Z</time>
      </trkpt>
      <trkpt lat="46.60245" lon="5.3187">
        <ele>216.2</ele>
        <time>2021-11-18T14:02:30Z</time>
      </trkpt>
      <trkpt lat="46.60277" lon="5.31937">
        <ele>217</ele>
        <time>2021-11-18T14:02:39Z</time>
      </trkpt>
      <trkpt lat="46.6028" lon="5.31943">
        <ele>217</ele>
        <time>2021-11-18T14:02:40Z</time>
      </trkpt>
      <trkpt lat="46.60284" lon="5.31952">
        <ele>217</ele>
        <time>2021-11-18T14:02:41Z</time>
      </trkpt>
      <trkpt lat="46.60318" lon="5.32019">
        <ele>217.6</ele>
        <time>2021-11-18T14:02:50Z</time>
      </trkpt>
      <trkpt lat="46.60322" lon="5.32027">
        <ele>217.6</ele>
        <time>2021-11-18T14:02:51Z</time>
      </trkpt>
      <trkpt lat="46.60357" lon="5.32095">
        <ele>218</ele>
        <time>2021-11-18T14:03:00Z</time>
      </trkpt>
      <trkpt lat="46.60361" lon="5.32104">
        <ele>218</ele>
        <time>2021-11-18T14:03:01Z</time>
      </trkpt>
      <trkpt lat="46.60395" lon="5.3217">
        <ele>218</ele>
        <time>2021-11-18T14:03:09Z</time>
      </trkpt>
      <trkpt lat="46.6043" lon="5.32242">
        <ele>217.8</ele>
        <time>2021-11-18T14:03:18Z</time>
      </trkpt>
      <trkpt lat="46.60461" lon="5.32313">
        <ele>217.8</ele>
        <time>2021-11-18T14:03:27Z</time>
      </trkpt>
      <trkpt lat="46.60484" lon="5.32384">
        <ele>218</ele>
        <time>2021-11-18T14:03:35Z</time>
      </trkpt>
      <trkpt lat="46.60489" lon="5.324">
        <ele>218</ele>
        <time>2021-11-18T14:03:37Z</time>
      </trkpt>
      <trkpt lat="46.60492" lon="5.32409">
        <ele>218.2</ele>
        <time>2021-11-18T14:03:38Z</time>
      </trkpt>
      <trkpt lat="46.60515" lon="5.32481">
        <ele>218.8</ele>
        <time>2021-11-18T14:03:46Z</time>
      </trkpt>
      <trkpt lat="46.6054" lon="5.32561">
        <ele>218.4</ele>
        <time>2021-11-18T14:03:55Z</time>
      </trkpt>
      <trkpt lat="46.60547" lon="5.32589">
        <ele>218.4</ele>
        <time>2021-11-18T14:03:58Z</time>
      </trkpt>
      <trkpt lat="46.60549" lon="5.32599">
        <ele>218.4</ele>
        <time>2021-11-18T14:03:59Z</time>
      </trkpt>
      <trkpt lat="46.60553" lon="5.32641">
        <ele>218.4</ele>
        <time>2021-11-18T14:04:03Z</time>
      </trkpt>
      <trkpt lat="46.60553" lon="5.32714">
        <ele>218</ele>
        <time>2021-11-18T14:04:10Z</time>
      </trkpt>
      <trkpt lat="46.60552" lon="5.32784">
        <ele>217</ele>
        <time>2021-11-18T14:04:16Z</time>
      </trkpt>
      <trkpt lat="46.60552" lon="5.32821">
        <ele>216.6</ele>
        <time>2021-11-18T14:04:19Z</time>
      </trkpt>
      <trkpt lat="46.60552" lon="5.32858">
        <ele>216</ele>
        <time>2021-11-18T14:04:22Z</time>
      </trkpt>
      <trkpt lat="46.60552" lon="5.32919">
        <ele>214.6</ele>
        <time>2021-11-18T14:04:27Z</time>
      </trkpt>
      <trkpt lat="46.60553" lon="5.32931">
        <ele>214.4</ele>
        <time>2021-11-18T14:04:28Z</time>
      </trkpt>
      <trkpt lat="46.60552" lon="5.33018">
        <ele>214.6</ele>
        <time>2021-11-18T14:04:36Z</time>
      </trkpt>
      <trkpt lat="46.60552" lon="5.33073">
        <ele>215.4</ele>
        <time>2021-11-18T14:04:42Z</time>
      </trkpt>
      <trkpt lat="46.60552" lon="5.33082">
        <ele>215.8</ele>
        <time>2021-11-18T14:04:43Z</time>
      </trkpt>
      <trkpt lat="46.60552" lon="5.33134">
        <ele>216.6</ele>
        <time>2021-11-18T14:04:49Z</time>
      </trkpt>
      <trkpt lat="46.60551" lon="5.33143">
        <ele>216.8</ele>
        <time>2021-11-18T14:04:50Z</time>
      </trkpt>
      <trkpt lat="46.60544" lon="5.33189">
        <ele>217.4</ele>
        <time>2021-11-18T14:04:55Z</time>
      </trkpt>
      <trkpt lat="46.6054" lon="5.33209">
        <ele>217.8</ele>
        <time>2021-11-18T14:04:57Z</time>
      </trkpt>
      <trkpt lat="46.60528" lon="5.33259">
        <ele>218</ele>
        <time>2021-11-18T14:05:02Z</time>
      </trkpt>
      <trkpt lat="46.60508" lon="5.33336">
        <ele>217</ele>
        <time>2021-11-18T14:05:10Z</time>
      </trkpt>
      <trkpt lat="46.60506" lon="5.33346">
        <ele>217</ele>
        <time>2021-11-18T14:05:11Z</time>
      </trkpt>
      <trkpt lat="46.60489" lon="5.33416">
        <ele>217.8</ele>
        <time>2021-11-18T14:05:19Z</time>
      </trkpt>
      <trkpt lat="46.60478" lon="5.3346">
        <ele>218.8</ele>
        <time>2021-11-18T14:05:24Z</time>
      </trkpt>
      <trkpt lat="46.60474" lon="5.33477">
        <ele>219</ele>
        <time>2021-11-18T14:05:26Z</time>
      </trkpt>
      <trkpt lat="46.60461" lon="5.33531">
        <ele>220</ele>
        <time>2021-11-18T14:05:32Z</time>
      </trkpt>
      <trkpt lat="46.6045" lon="5.33577">
        <ele>220.2</ele>
        <time>2021-11-18T14:05:37Z</time>
      </trkpt>
      <trkpt lat="46.60437" lon="5.33662">
        <ele>219.8</ele>
        <time>2021-11-18T14:05:46Z</time>
      </trkpt>
      <trkpt lat="46.60436" lon="5.33672">
        <ele>219.8</ele>
        <time>2021-11-18T14:05:47Z</time>
      </trkpt>
      <trkpt lat="46.60428" lon="5.33752">
        <ele>219.4</ele>
        <time>2021-11-18T14:05:55Z</time>
      </trkpt>
      <trkpt lat="46.60421" lon="5.33834">
        <ele>219.4</ele>
        <time>2021-11-18T14:06:03Z</time>
      </trkpt>
      <trkpt lat="46.60419" lon="5.33865">
        <ele>219.6</ele>
        <time>2021-11-18T14:06:06Z</time>
      </trkpt>
      <trkpt lat="46.60421" lon="5.33926">
        <ele>219.8</ele>
        <time>2021-11-18T14:06:12Z</time>
      </trkpt>
      <trkpt lat="46.6043" lon="5.33994">
        <ele>220.4</ele>
        <time>2021-11-18T14:06:19Z</time>
      </trkpt>
      <trkpt lat="46.60444" lon="5.34058">
        <ele>220.4</ele>
        <time>2021-11-18T14:06:26Z</time>
      </trkpt>
      <trkpt lat="46.60457" lon="5.34089">
        <ele>220.6</ele>
        <time>2021-11-18T14:06:30Z</time>
      </trkpt>
      <trkpt lat="46.60461" lon="5.34097">
        <ele>220.6</ele>
        <time>2021-11-18T14:06:31Z</time>
      </trkpt>
      <trkpt lat="46.60494" lon="5.34151">
        <ele>220.6</ele>
        <time>2021-11-18T14:06:38Z</time>
      </trkpt>
      <trkpt lat="46.60507" lon="5.34177">
        <ele>220.4</ele>
        <time>2021-11-18T14:06:41Z</time>
      </trkpt>
      <trkpt lat="46.60513" lon="5.34198">
        <ele>219.8</ele>
        <time>2021-11-18T14:06:43Z</time>
      </trkpt>
      <trkpt lat="46.60518" lon="5.34246">
        <ele>218.8</ele>
        <time>2021-11-18T14:06:47Z</time>
      </trkpt>
      <trkpt lat="46.6052" lon="5.34299">
        <ele>217.2</ele>
        <time>2021-11-18T14:06:51Z</time>
      </trkpt>
      <trkpt lat="46.60521" lon="5.34327">
        <ele>216</ele>
        <time>2021-11-18T14:06:53Z</time>
      </trkpt>
      <trkpt lat="46.60522" lon="5.34341">
        <ele>215.8</ele>
        <time>2021-11-18T14:06:54Z</time>
      </trkpt>
      <trkpt lat="46.60524" lon="5.34383">
        <ele>215</ele>
        <time>2021-11-18T14:06:57Z</time>
      </trkpt>
      <trkpt lat="46.60526" lon="5.34413">
        <ele>214</ele>
        <time>2021-11-18T14:06:59Z</time>
      </trkpt>
      <trkpt lat="46.60527" lon="5.34443">
        <ele>212.8</ele>
        <time>2021-11-18T14:07:01Z</time>
      </trkpt>
      <trkpt lat="46.60529" lon="5.34488">
        <ele>211</ele>
        <time>2021-11-18T14:07:04Z</time>
      </trkpt>
      <trkpt lat="46.60531" lon="5.34517">
        <ele>210.2</ele>
        <time>2021-11-18T14:07:06Z</time>
      </trkpt>
      <trkpt lat="46.60531" lon="5.34532">
        <ele>209.8</ele>
        <time>2021-11-18T14:07:07Z</time>
      </trkpt>
      <trkpt lat="46.60534" lon="5.34585">
        <ele>208.8</ele>
        <time>2021-11-18T14:07:11Z</time>
      </trkpt>
      <trkpt lat="46.60534" lon="5.34598">
        <ele>208.6</ele>
        <time>2021-11-18T14:07:12Z</time>
      </trkpt>
      <trkpt lat="46.60536" lon="5.34647">
        <ele>207.8</ele>
        <time>2021-11-18T14:07:16Z</time>
      </trkpt>
      <trkpt lat="46.60538" lon="5.34671">
        <ele>207.8</ele>
        <time>2021-11-18T14:07:18Z</time>
      </trkpt>
      <trkpt lat="46.60542" lon="5.3476">
        <ele>207.4</ele>
        <time>2021-11-18T14:07:25Z</time>
      </trkpt>
      <trkpt lat="46.60544" lon="5.34799">
        <ele>206.8</ele>
        <time>2021-11-18T14:07:28Z</time>
      </trkpt>
      <trkpt lat="46.60545" lon="5.34812">
        <ele>206.2</ele>
        <time>2021-11-18T14:07:29Z</time>
      </trkpt>
      <trkpt lat="46.60546" lon="5.34839">
        <ele>205.6</ele>
        <time>2021-11-18T14:07:31Z</time>
      </trkpt>
      <trkpt lat="46.60548" lon="5.34879">
        <ele>204.4</ele>
        <time>2021-11-18T14:07:34Z</time>
      </trkpt>
      <trkpt lat="46.60551" lon="5.3493">
        <ele>204</ele>
        <time>2021-11-18T14:07:38Z</time>
      </trkpt>
      <trkpt lat="46.60554" lon="5.34999">
        <ele>203.8</ele>
        <time>2021-11-18T14:07:44Z</time>
      </trkpt>
      <trkpt lat="46.60557" lon="5.35053">
        <ele>204.4</ele>
        <time>2021-11-18T14:07:50Z</time>
      </trkpt>
      <trkpt lat="46.60558" lon="5.35085">
        <ele>205.6</ele>
        <time>2021-11-18T14:07:54Z</time>
      </trkpt>
      <trkpt lat="46.60559" lon="5.3511">
        <ele>206</ele>
        <time>2021-11-18T14:07:57Z</time>
      </trkpt>
      <trkpt lat="46.60559" lon="5.35118">
        <ele>206.2</ele>
        <time>2021-11-18T14:07:58Z</time>
      </trkpt>
      <trkpt lat="46.60557" lon="5.35151">
        <ele>206.6</ele>
        <time>2021-11-18T14:08:02Z</time>
      </trkpt>
      <trkpt lat="46.60555" lon="5.35165">
        <ele>206.8</ele>
        <time>2021-11-18T14:08:04Z</time>
      </trkpt>
      <trkpt lat="46.60553" lon="5.35173">
        <ele>207</ele>
        <time>2021-11-18T14:08:05Z</time>
      </trkpt>
      <trkpt lat="46.60556" lon="5.35192">
        <ele>207</ele>
        <time>2021-11-18T14:08:07Z</time>
      </trkpt>
      <trkpt lat="46.60572" lon="5.35219">
        <ele>206.8</ele>
        <time>2021-11-18T14:08:11Z</time>
      </trkpt>
      <trkpt lat="46.60607" lon="5.35267">
        <ele>206.8</ele>
        <time>2021-11-18T14:08:19Z</time>
      </trkpt>
      <trkpt lat="46.60621" lon="5.35281">
        <ele>207.4</ele>
        <time>2021-11-18T14:08:22Z</time>
      </trkpt>
      <trkpt lat="46.6063" lon="5.35288">
        <ele>207.8</ele>
        <time>2021-11-18T14:08:24Z</time>
      </trkpt>
      <trkpt lat="46.60635" lon="5.3529">
        <ele>207.8</ele>
        <time>2021-11-18T14:08:25Z</time>
      </trkpt>
      <trkpt lat="46.60668" lon="5.35313">
        <ele>208.8</ele>
        <time>2021-11-18T14:08:32Z</time>
      </trkpt>
      <trkpt lat="46.60687" lon="5.35335">
        <ele>209.8</ele>
        <time>2021-11-18T14:08:37Z</time>
      </trkpt>
      <trkpt lat="46.60691" lon="5.3534">
        <ele>210</ele>
        <time>2021-11-18T14:08:38Z</time>
      </trkpt>
      <trkpt lat="46.60706" lon="5.35362">
        <ele>211</ele>
        <time>2021-11-18T14:08:42Z</time>
      </trkpt>
      <trkpt lat="46.60717" lon="5.35377">
        <ele>211.4</ele>
        <time>2021-11-18T14:08:45Z</time>
      </trkpt>
      <trkpt lat="46.60724" lon="5.35387">
        <ele>212</ele>
        <time>2021-11-18T14:08:48Z</time>
      </trkpt>
      <trkpt lat="46.60747" lon="5.35411">
        <ele>213</ele>
        <time>2021-11-18T14:08:54Z</time>
      </trkpt>
      <trkpt lat="46.60768" lon="5.35424">
        <ele>214.4</ele>
        <time>2021-11-18T14:08:59Z</time>
      </trkpt>
      <trkpt lat="46.60773" lon="5.35427">
        <ele>214.6</ele>
        <time>2021-11-18T14:09:00Z</time>
      </trkpt>
      <trkpt lat="46.60783" lon="5.35431">
        <ele>215</ele>
        <time>2021-11-18T14:09:02Z</time>
      </trkpt>
      <trkpt lat="46.60798" lon="5.35434">
        <ele>215.4</ele>
        <time>2021-11-18T14:09:05Z</time>
      </trkpt>
      <trkpt lat="46.60803" lon="5.35433">
        <ele>215.4</ele>
        <time>2021-11-18T14:09:06Z</time>
      </trkpt>
      <trkpt lat="46.60813" lon="5.35432">
        <ele>215.8</ele>
        <time>2021-11-18T14:09:08Z</time>
      </trkpt>
      <trkpt lat="46.60826" lon="5.35426">
        <ele>216</ele>
        <time>2021-11-18T14:09:11Z</time>
      </trkpt>
      <trkpt lat="46.60835" lon="5.35418">
        <ele>216.2</ele>
        <time>2021-11-18T14:09:13Z</time>
      </trkpt>
      <trkpt lat="46.60843" lon="5.35411">
        <ele>216.4</ele>
        <time>2021-11-18T14:09:15Z</time>
      </trkpt>
      <trkpt lat="46.60857" lon="5.35402">
        <ele>217</ele>
        <time>2021-11-18T14:09:18Z</time>
      </trkpt>
      <trkpt lat="46.60862" lon="5.35401">
        <ele>217.4</ele>
        <time>2021-11-18T14:09:19Z</time>
      </trkpt>
      <trkpt lat="46.60865" lon="5.35399">
        <ele>217.8</ele>
        <time>2021-11-18T14:09:20Z</time>
      </trkpt>
      <trkpt lat="46.60881" lon="5.35401">
        <ele>218.2</ele>
        <time>2021-11-18T14:09:23Z</time>
      </trkpt>
      <trkpt lat="46.60886" lon="5.35403">
        <ele>218.2</ele>
        <time>2021-11-18T14:09:24Z</time>
      </trkpt>
      <trkpt lat="46.60896" lon="5.35408">
        <ele>218.6</ele>
        <time>2021-11-18T14:09:26Z</time>
      </trkpt>
      <trkpt lat="46.60917" lon="5.3542">
        <ele>218.8</ele>
        <time>2021-11-18T14:09:30Z</time>
      </trkpt>
      <trkpt lat="46.60928" lon="5.35428">
        <ele>218.8</ele>
        <time>2021-11-18T14:09:32Z</time>
      </trkpt>
      <trkpt lat="46.60937" lon="5.35438">
        <ele>218.8</ele>
        <time>2021-11-18T14:09:34Z</time>
      </trkpt>
      <trkpt lat="46.6094" lon="5.35444">
        <ele>218.8</ele>
        <time>2021-11-18T14:09:35Z</time>
      </trkpt>
      <trkpt lat="46.60944" lon="5.35451">
        <ele>218.8</ele>
        <time>2021-11-18T14:09:36Z</time>
      </trkpt>
      <trkpt lat="46.60948" lon="5.35467">
        <ele>218.8</ele>
        <time>2021-11-18T14:09:38Z</time>
      </trkpt>
      <trkpt lat="46.60949" lon="5.35476">
        <ele>218.8</ele>
        <time>2021-11-18T14:09:39Z</time>
      </trkpt>
      <trkpt lat="46.60952" lon="5.35528">
        <ele>218.8</ele>
        <time>2021-11-18T14:09:45Z</time>
      </trkpt>
      <trkpt lat="46.6095" lon="5.35559">
        <ele>218.6</ele>
        <time>2021-11-18T14:09:48Z</time>
      </trkpt>
      <trkpt lat="46.60944" lon="5.35587">
        <ele>218.6</ele>
        <time>2021-11-18T14:09:51Z</time>
      </trkpt>
      <trkpt lat="46.60937" lon="5.35626">
        <ele>218.6</ele>
        <time>2021-11-18T14:09:55Z</time>
      </trkpt>
      <trkpt lat="46.60938" lon="5.35635">
        <ele>218.6</ele>
        <time>2021-11-18T14:09:56Z</time>
      </trkpt>
      <trkpt lat="46.60939" lon="5.35646">
        <ele>218.6</ele>
        <time>2021-11-18T14:09:57Z</time>
      </trkpt>
      <trkpt lat="46.60946" lon="5.35669">
        <ele>218.4</ele>
        <time>2021-11-18T14:09:59Z</time>
      </trkpt>
      <trkpt lat="46.6097" lon="5.3573">
        <ele>217.4</ele>
        <time>2021-11-18T14:10:05Z</time>
      </trkpt>
      <trkpt lat="46.60983" lon="5.35756">
        <ele>217.2</ele>
        <time>2021-11-18T14:10:08Z</time>
      </trkpt>
      <trkpt lat="46.61014" lon="5.3582">
        <ele>217</ele>
        <time>2021-11-18T14:10:15Z</time>
      </trkpt>
      <trkpt lat="46.61018" lon="5.35829">
        <ele>217</ele>
        <time>2021-11-18T14:10:16Z</time>
      </trkpt>
      <trkpt lat="46.6105" lon="5.35893">
        <ele>217.4</ele>
        <time>2021-11-18T14:10:24Z</time>
      </trkpt>
      <trkpt lat="46.61055" lon="5.35903">
        <ele>217.4</ele>
        <time>2021-11-18T14:10:25Z</time>
      </trkpt>
      <trkpt lat="46.61089" lon="5.35968">
        <ele>217.4</ele>
        <time>2021-11-18T14:10:33Z</time>
      </trkpt>
      <trkpt lat="46.61095" lon="5.35975">
        <ele>217</ele>
        <time>2021-11-18T14:10:34Z</time>
      </trkpt>
      <trkpt lat="46.61129" lon="5.36008">
        <ele>216.6</ele>
        <time>2021-11-18T14:10:40Z</time>
      </trkpt>
      <trkpt lat="46.61137" lon="5.36013">
        <ele>216.4</ele>
        <time>2021-11-18T14:10:41Z</time>
      </trkpt>
      <trkpt lat="46.61179" lon="5.36045">
        <ele>216.6</ele>
        <time>2021-11-18T14:10:48Z</time>
      </trkpt>
      <trkpt lat="46.61193" lon="5.36066">
        <ele>216.6</ele>
        <time>2021-11-18T14:10:51Z</time>
      </trkpt>
      <trkpt lat="46.61201" lon="5.36081">
        <ele>216.6</ele>
        <time>2021-11-18T14:10:53Z</time>
      </trkpt>
      <trkpt lat="46.61231" lon="5.36143">
        <ele>217</ele>
        <time>2021-11-18T14:11:01Z</time>
      </trkpt>
      <trkpt lat="46.61263" lon="5.36182">
        <ele>217.4</ele>
        <time>2021-11-18T14:11:07Z</time>
      </trkpt>
      <trkpt lat="46.61276" lon="5.36191">
        <ele>217.2</ele>
        <time>2021-11-18T14:11:09Z</time>
      </trkpt>
      <trkpt lat="46.61297" lon="5.36199">
        <ele>216.8</ele>
        <time>2021-11-18T14:11:12Z</time>
      </trkpt>
      <trkpt lat="46.6135" lon="5.36216">
        <ele>216.4</ele>
        <time>2021-11-18T14:11:20Z</time>
      </trkpt>
      <trkpt lat="46.61354" lon="5.36218">
        <ele>216.4</ele>
        <time>2021-11-18T14:11:21Z</time>
      </trkpt>
      <trkpt lat="46.61394" lon="5.36244">
        <ele>216.8</ele>
        <time>2021-11-18T14:11:28Z</time>
      </trkpt>
      <trkpt lat="46.61422" lon="5.3626">
        <ele>217.8</ele>
        <time>2021-11-18T14:11:33Z</time>
      </trkpt>
      <trkpt lat="46.61428" lon="5.36261">
        <ele>217.8</ele>
        <time>2021-11-18T14:11:34Z</time>
      </trkpt>
      <trkpt lat="46.61436" lon="5.36263">
        <ele>218</ele>
        <time>2021-11-18T14:11:35Z</time>
      </trkpt>
      <trkpt lat="46.61472" lon="5.36256">
        <ele>218</ele>
        <time>2021-11-18T14:11:41Z</time>
      </trkpt>
      <trkpt lat="46.61493" lon="5.36253">
        <ele>217.8</ele>
        <time>2021-11-18T14:11:44Z</time>
      </trkpt>
      <trkpt lat="46.61505" lon="5.36254">
        <ele>217.6</ele>
        <time>2021-11-18T14:11:46Z</time>
      </trkpt>
      <trkpt lat="46.61512" lon="5.36256">
        <ele>217.6</ele>
        <time>2021-11-18T14:11:47Z</time>
      </trkpt>
      <trkpt lat="46.61538" lon="5.3627">
        <ele>217.4</ele>
        <time>2021-11-18T14:11:51Z</time>
      </trkpt>
      <trkpt lat="46.61589" lon="5.36301">
        <ele>217.6</ele>
        <time>2021-11-18T14:12:00Z</time>
      </trkpt>
      <trkpt lat="46.61596" lon="5.36305">
        <ele>217.6</ele>
        <time>2021-11-18T14:12:01Z</time>
      </trkpt>
      <trkpt lat="46.61618" lon="5.36326">
        <ele>217.6</ele>
        <time>2021-11-18T14:12:05Z</time>
      </trkpt>
      <trkpt lat="46.61621" lon="5.36332">
        <ele>217.8</ele>
        <time>2021-11-18T14:12:06Z</time>
      </trkpt>
      <trkpt lat="46.61625" lon="5.36342">
        <ele>217.8</ele>
        <time>2021-11-18T14:12:07Z</time>
      </trkpt>
      <trkpt lat="46.61628" lon="5.36359">
        <ele>217.6</ele>
        <time>2021-11-18T14:12:09Z</time>
      </trkpt>
      <trkpt lat="46.61635" lon="5.3638">
        <ele>217.6</ele>
        <time>2021-11-18T14:12:11Z</time>
      </trkpt>
      <trkpt lat="46.61646" lon="5.36395">
        <ele>217.4</ele>
        <time>2021-11-18T14:12:13Z</time>
      </trkpt>
      <trkpt lat="46.61659" lon="5.36401">
        <ele>217</ele>
        <time>2021-11-18T14:12:15Z</time>
      </trkpt>
      <trkpt lat="46.61668" lon="5.36401">
        <ele>216.8</ele>
        <time>2021-11-18T14:12:16Z</time>
      </trkpt>
      <trkpt lat="46.61676" lon="5.36398">
        <ele>216.6</ele>
        <time>2021-11-18T14:12:17Z</time>
      </trkpt>
      <trkpt lat="46.61697" lon="5.36391">
        <ele>215.8</ele>
        <time>2021-11-18T14:12:20Z</time>
      </trkpt>
      <trkpt lat="46.61713" lon="5.3639">
        <ele>215.2</ele>
        <time>2021-11-18T14:12:22Z</time>
      </trkpt>
      <trkpt lat="46.61733" lon="5.36394">
        <ele>215</ele>
        <time>2021-11-18T14:12:25Z</time>
      </trkpt>
      <trkpt lat="46.61748" lon="5.36404">
        <ele>215</ele>
        <time>2021-11-18T14:12:27Z</time>
      </trkpt>
      <trkpt lat="46.61753" lon="5.3641">
        <ele>215</ele>
        <time>2021-11-18T14:12:28Z</time>
      </trkpt>
      <trkpt lat="46.61776" lon="5.36443">
        <ele>215.2</ele>
        <time>2021-11-18T14:12:32Z</time>
      </trkpt>
      <trkpt lat="46.61788" lon="5.36456">
        <ele>215.4</ele>
        <time>2021-11-18T14:12:34Z</time>
      </trkpt>
      <trkpt lat="46.61834" lon="5.3649">
        <ele>214.6</ele>
        <time>2021-11-18T14:12:41Z</time>
      </trkpt>
      <trkpt lat="46.61874" lon="5.3652">
        <ele>214.4</ele>
        <time>2021-11-18T14:12:47Z</time>
      </trkpt>
      <trkpt lat="46.61888" lon="5.36532">
        <ele>214.2</ele>
        <time>2021-11-18T14:12:49Z</time>
      </trkpt>
      <trkpt lat="46.61938" lon="5.3658">
        <ele>213.2</ele>
        <time>2021-11-18T14:12:57Z</time>
      </trkpt>
      <trkpt lat="46.6195" lon="5.36599">
        <ele>212.8</ele>
        <time>2021-11-18T14:12:59Z</time>
      </trkpt>
      <trkpt lat="46.61957" lon="5.36621">
        <ele>212.4</ele>
        <time>2021-11-18T14:13:01Z</time>
      </trkpt>
      <trkpt lat="46.61958" lon="5.36634">
        <ele>211.8</ele>
        <time>2021-11-18T14:13:02Z</time>
      </trkpt>
      <trkpt lat="46.61957" lon="5.36647">
        <ele>211.4</ele>
        <time>2021-11-18T14:13:03Z</time>
      </trkpt>
      <trkpt lat="46.61954" lon="5.3666">
        <ele>210.8</ele>
        <time>2021-11-18T14:13:04Z</time>
      </trkpt>
      <trkpt lat="46.61951" lon="5.36674">
        <ele>210</ele>
        <time>2021-11-18T14:13:05Z</time>
      </trkpt>
      <trkpt lat="46.61942" lon="5.36701">
        <ele>208.8</ele>
        <time>2021-11-18T14:13:07Z</time>
      </trkpt>
      <trkpt lat="46.61933" lon="5.36728">
        <ele>208</ele>
        <time>2021-11-18T14:13:09Z</time>
      </trkpt>
      <trkpt lat="46.61929" lon="5.36742">
        <ele>207.8</ele>
        <time>2021-11-18T14:13:10Z</time>
      </trkpt>
      <trkpt lat="46.61921" lon="5.36768">
        <ele>206.6</ele>
        <time>2021-11-18T14:13:12Z</time>
      </trkpt>
      <trkpt lat="46.61908" lon="5.36816">
        <ele>205.6</ele>
        <time>2021-11-18T14:13:16Z</time>
      </trkpt>
      <trkpt lat="46.61905" lon="5.36828">
        <ele>205.4</ele>
        <time>2021-11-18T14:13:17Z</time>
      </trkpt>
      <trkpt lat="46.61894" lon="5.36893">
        <ele>204.8</ele>
        <time>2021-11-18T14:13:22Z</time>
      </trkpt>
      <trkpt lat="46.61893" lon="5.36959">
        <ele>204.6</ele>
        <time>2021-11-18T14:13:27Z</time>
      </trkpt>
      <trkpt lat="46.619" lon="5.36994">
        <ele>204.4</ele>
        <time>2021-11-18T14:13:30Z</time>
      </trkpt>
      <trkpt lat="46.61903" lon="5.37005">
        <ele>204.4</ele>
        <time>2021-11-18T14:13:31Z</time>
      </trkpt>
      <trkpt lat="46.61925" lon="5.37066">
        <ele>204.2</ele>
        <time>2021-11-18T14:13:37Z</time>
      </trkpt>
      <trkpt lat="46.61949" lon="5.37131">
        <ele>204.2</ele>
        <time>2021-11-18T14:13:44Z</time>
      </trkpt>
      <trkpt lat="46.61968" lon="5.37193">
        <ele>204.4</ele>
        <time>2021-11-18T14:13:51Z</time>
      </trkpt>
      <trkpt lat="46.61984" lon="5.3724">
        <ele>205.4</ele>
        <time>2021-11-18T14:13:57Z</time>
      </trkpt>
      <trkpt lat="46.61987" lon="5.37247">
        <ele>205.8</ele>
        <time>2021-11-18T14:13:58Z</time>
      </trkpt>
      <trkpt lat="46.61991" lon="5.37254">
        <ele>206</ele>
        <time>2021-11-18T14:13:59Z</time>
      </trkpt>
      <trkpt lat="46.62021" lon="5.37297">
        <ele>206.4</ele>
        <time>2021-11-18T14:14:06Z</time>
      </trkpt>
      <trkpt lat="46.6203" lon="5.37309">
        <ele>206.6</ele>
        <time>2021-11-18T14:14:08Z</time>
      </trkpt>
      <trkpt lat="46.62054" lon="5.37337">
        <ele>207.4</ele>
        <time>2021-11-18T14:14:13Z</time>
      </trkpt>
      <trkpt lat="46.62059" lon="5.37342">
        <ele>207.6</ele>
        <time>2021-11-18T14:14:14Z</time>
      </trkpt>
      <trkpt lat="46.62085" lon="5.3737">
        <ele>208.8</ele>
        <time>2021-11-18T14:14:20Z</time>
      </trkpt>
      <trkpt lat="46.62094" lon="5.37381">
        <ele>209.2</ele>
        <time>2021-11-18T14:14:22Z</time>
      </trkpt>
      <trkpt lat="46.6211" lon="5.374">
        <ele>210</ele>
        <time>2021-11-18T14:14:26Z</time>
      </trkpt>
      <trkpt lat="46.62137" lon="5.3743">
        <ele>210.4</ele>
        <time>2021-11-18T14:14:32Z</time>
      </trkpt>
      <trkpt lat="46.62164" lon="5.3746">
        <ele>211</ele>
        <time>2021-11-18T14:14:38Z</time>
      </trkpt>
      <trkpt lat="46.62179" lon="5.3748">
        <ele>211.2</ele>
        <time>2021-11-18T14:14:42Z</time>
      </trkpt>
      <trkpt lat="46.62192" lon="5.375">
        <ele>211.2</ele>
        <time>2021-11-18T14:14:45Z</time>
      </trkpt>
      <trkpt lat="46.622" lon="5.3752">
        <ele>211.4</ele>
        <time>2021-11-18T14:14:48Z</time>
      </trkpt>
      <trkpt lat="46.62209" lon="5.37569">
        <ele>212</ele>
        <time>2021-11-18T14:14:54Z</time>
      </trkpt>
      <trkpt lat="46.62209" lon="5.37587">
        <ele>212</ele>
        <time>2021-11-18T14:14:56Z</time>
      </trkpt>
      <trkpt lat="46.62207" lon="5.37605">
        <ele>212.2</ele>
        <time>2021-11-18T14:14:58Z</time>
      </trkpt>
      <trkpt lat="46.62205" lon="5.37614">
        <ele>212.4</ele>
        <time>2021-11-18T14:14:59Z</time>
      </trkpt>
      <trkpt lat="46.62204" lon="5.37622">
        <ele>212.4</ele>
        <time>2021-11-18T14:15:00Z</time>
      </trkpt>
      <trkpt lat="46.6219" lon="5.37655">
        <ele>212.6</ele>
        <time>2021-11-18T14:15:04Z</time>
      </trkpt>
      <trkpt lat="46.62158" lon="5.37701">
        <ele>212.8</ele>
        <time>2021-11-18T14:15:11Z</time>
      </trkpt>
      <trkpt lat="46.62119" lon="5.3775">
        <ele>212.4</ele>
        <time>2021-11-18T14:15:18Z</time>
      </trkpt>
      <trkpt lat="46.62084" lon="5.37799">
        <ele>211</ele>
        <time>2021-11-18T14:15:24Z</time>
      </trkpt>
      <trkpt lat="46.62074" lon="5.37819">
        <ele>210.6</ele>
        <time>2021-11-18T14:15:26Z</time>
      </trkpt>
      <trkpt lat="46.62066" lon="5.37843">
        <ele>210</ele>
        <time>2021-11-18T14:15:28Z</time>
      </trkpt>
      <trkpt lat="46.62063" lon="5.37855">
        <ele>210</ele>
        <time>2021-11-18T14:15:29Z</time>
      </trkpt>
      <trkpt lat="46.6205" lon="5.37905">
        <ele>209</ele>
        <time>2021-11-18T14:15:33Z</time>
      </trkpt>
      <trkpt lat="46.62044" lon="5.37929">
        <ele>208.8</ele>
        <time>2021-11-18T14:15:35Z</time>
      </trkpt>
      <trkpt lat="46.62033" lon="5.37986">
        <ele>208.2</ele>
        <time>2021-11-18T14:15:40Z</time>
      </trkpt>
      <trkpt lat="46.62018" lon="5.38051">
        <ele>208.2</ele>
        <time>2021-11-18T14:15:46Z</time>
      </trkpt>
      <trkpt lat="46.61998" lon="5.38123">
        <ele>208.2</ele>
        <time>2021-11-18T14:15:53Z</time>
      </trkpt>
      <trkpt lat="46.61982" lon="5.38191">
        <ele>208.6</ele>
        <time>2021-11-18T14:16:00Z</time>
      </trkpt>
      <trkpt lat="46.61968" lon="5.3827">
        <ele>209.4</ele>
        <time>2021-11-18T14:16:08Z</time>
      </trkpt>
      <trkpt lat="46.61965" lon="5.38281">
        <ele>209.2</ele>
        <time>2021-11-18T14:16:09Z</time>
      </trkpt>
      <trkpt lat="46.61955" lon="5.38296">
        <ele>209</ele>
        <time>2021-11-18T14:16:11Z</time>
      </trkpt>
      <trkpt lat="46.6194" lon="5.38298">
        <ele>208.8</ele>
        <time>2021-11-18T14:16:13Z</time>
      </trkpt>
      <trkpt lat="46.61927" lon="5.38289">
        <ele>208.4</ele>
        <time>2021-11-18T14:16:15Z</time>
      </trkpt>
      <trkpt lat="46.6192" lon="5.38282">
        <ele>208.2</ele>
        <time>2021-11-18T14:16:16Z</time>
      </trkpt>
      <trkpt lat="46.61906" lon="5.38267">
        <ele>207.8</ele>
        <time>2021-11-18T14:16:18Z</time>
      </trkpt>
      <trkpt lat="46.61891" lon="5.38256">
        <ele>207.4</ele>
        <time>2021-11-18T14:16:20Z</time>
      </trkpt>
      <trkpt lat="46.61883" lon="5.38253">
        <ele>207.2</ele>
        <time>2021-11-18T14:16:21Z</time>
      </trkpt>
      <trkpt lat="46.61875" lon="5.38252">
        <ele>207.2</ele>
        <time>2021-11-18T14:16:22Z</time>
      </trkpt>
      <trkpt lat="46.6186" lon="5.38261">
        <ele>207.2</ele>
        <time>2021-11-18T14:16:24Z</time>
      </trkpt>
      <trkpt lat="46.61844" lon="5.38285">
        <ele>207.4</ele>
        <time>2021-11-18T14:16:27Z</time>
      </trkpt>
      <trkpt lat="46.61818" lon="5.38331">
        <ele>206.8</ele>
        <time>2021-11-18T14:16:32Z</time>
      </trkpt>
      <trkpt lat="46.61812" lon="5.38338">
        <ele>206.8</ele>
        <time>2021-11-18T14:16:33Z</time>
      </trkpt>
      <trkpt lat="46.61805" lon="5.38345">
        <ele>206.8</ele>
        <time>2021-11-18T14:16:34Z</time>
      </trkpt>
      <trkpt lat="46.61786" lon="5.38366">
        <ele>206.6</ele>
        <time>2021-11-18T14:16:37Z</time>
      </trkpt>
      <trkpt lat="46.61781" lon="5.38375">
        <ele>206.4</ele>
        <time>2021-11-18T14:16:38Z</time>
      </trkpt>
      <trkpt lat="46.61778" lon="5.38385">
        <ele>206.4</ele>
        <time>2021-11-18T14:16:39Z</time>
      </trkpt>
      <trkpt lat="46.61773" lon="5.3841">
        <ele>206</ele>
        <time>2021-11-18T14:16:41Z</time>
      </trkpt>
      <trkpt lat="46.6177" lon="5.38431">
        <ele>206</ele>
        <time>2021-11-18T14:16:43Z</time>
      </trkpt>
      <trkpt lat="46.61758" lon="5.38498">
        <ele>205.6</ele>
        <time>2021-11-18T14:16:49Z</time>
      </trkpt>
      <trkpt lat="46.61747" lon="5.38573">
        <ele>205.6</ele>
        <time>2021-11-18T14:16:56Z</time>
      </trkpt>
      <trkpt lat="46.61752" lon="5.38627">
        <ele>205.6</ele>
        <time>2021-11-18T14:17:01Z</time>
      </trkpt>
      <trkpt lat="46.61759" lon="5.38646">
        <ele>205.6</ele>
        <time>2021-11-18T14:17:03Z</time>
      </trkpt>
      <trkpt lat="46.61763" lon="5.38654">
        <ele>205.6</ele>
        <time>2021-11-18T14:17:04Z</time>
      </trkpt>
      <trkpt lat="46.61778" lon="5.38679">
        <ele>205.6</ele>
        <time>2021-11-18T14:17:07Z</time>
      </trkpt>
      <trkpt lat="46.61781" lon="5.38688">
        <ele>205.8</ele>
        <time>2021-11-18T14:17:08Z</time>
      </trkpt>
      <trkpt lat="46.61781" lon="5.38698">
        <ele>205.8</ele>
        <time>2021-11-18T14:17:09Z</time>
      </trkpt>
      <trkpt lat="46.6178" lon="5.38708">
        <ele>205.8</ele>
        <time>2021-11-18T14:17:10Z</time>
      </trkpt>
      <trkpt lat="46.61776" lon="5.38716">
        <ele>205.8</ele>
        <time>2021-11-18T14:17:11Z</time>
      </trkpt>
      <trkpt lat="46.61765" lon="5.38732">
        <ele>205.8</ele>
        <time>2021-11-18T14:17:13Z</time>
      </trkpt>
      <trkpt lat="46.6176" lon="5.38741">
        <ele>205.8</ele>
        <time>2021-11-18T14:17:14Z</time>
      </trkpt>
      <trkpt lat="46.61751" lon="5.38762">
        <ele>206</ele>
        <time>2021-11-18T14:17:16Z</time>
      </trkpt>
      <trkpt lat="46.61747" lon="5.38769">
        <ele>206</ele>
        <time>2021-11-18T14:17:17Z</time>
      </trkpt>
      <trkpt lat="46.61708" lon="5.38826">
        <ele>206</ele>
        <time>2021-11-18T14:17:24Z</time>
      </trkpt>
      <trkpt lat="46.61665" lon="5.38887">
        <ele>206</ele>
        <time>2021-11-18T14:17:32Z</time>
      </trkpt>
      <trkpt lat="46.61654" lon="5.38903">
        <ele>206</ele>
        <time>2021-11-18T14:17:34Z</time>
      </trkpt>
      <trkpt lat="46.61614" lon="5.38958">
        <ele>205.8</ele>
        <time>2021-11-18T14:17:41Z</time>
      </trkpt>
      <trkpt lat="46.61604" lon="5.38975">
        <ele>205.6</ele>
        <time>2021-11-18T14:17:43Z</time>
      </trkpt>
      <trkpt lat="46.6157" lon="5.39039">
        <ele>205.4</ele>
        <time>2021-11-18T14:17:50Z</time>
      </trkpt>
      <trkpt lat="46.61563" lon="5.39056">
        <ele>205.4</ele>
        <time>2021-11-18T14:17:52Z</time>
      </trkpt>
      <trkpt lat="46.61552" lon="5.39099">
        <ele>205.4</ele>
        <time>2021-11-18T14:17:56Z</time>
      </trkpt>
      <trkpt lat="46.61551" lon="5.3911">
        <ele>205.4</ele>
        <time>2021-11-18T14:17:57Z</time>
      </trkpt>
      <trkpt lat="46.61549" lon="5.39132">
        <ele>205</ele>
        <time>2021-11-18T14:17:59Z</time>
      </trkpt>
      <trkpt lat="46.6155" lon="5.39143">
        <ele>205</ele>
        <time>2021-11-18T14:18:00Z</time>
      </trkpt>
      <trkpt lat="46.6155" lon="5.39153">
        <ele>205</ele>
        <time>2021-11-18T14:18:01Z</time>
      </trkpt>
      <trkpt lat="46.61563" lon="5.39203">
        <ele>205</ele>
        <time>2021-11-18T14:18:06Z</time>
      </trkpt>
      <trkpt lat="46.61588" lon="5.39267">
        <ele>205.2</ele>
        <time>2021-11-18T14:18:13Z</time>
      </trkpt>
      <trkpt lat="46.61618" lon="5.39336">
        <ele>205.2</ele>
        <time>2021-11-18T14:18:21Z</time>
      </trkpt>
      <trkpt lat="46.6163" lon="5.3936">
        <ele>205.4</ele>
        <time>2021-11-18T14:18:24Z</time>
      </trkpt>
      <trkpt lat="46.61657" lon="5.39402">
        <ele>205.8</ele>
        <time>2021-11-18T14:18:30Z</time>
      </trkpt>
      <trkpt lat="46.6167" lon="5.39423">
        <ele>206</ele>
        <time>2021-11-18T14:18:33Z</time>
      </trkpt>
      <trkpt lat="46.6169" lon="5.39455">
        <ele>206.2</ele>
        <time>2021-11-18T14:18:38Z</time>
      </trkpt>
      <trkpt lat="46.61714" lon="5.39493">
        <ele>207.2</ele>
        <time>2021-11-18T14:18:44Z</time>
      </trkpt>
      <trkpt lat="46.61719" lon="5.395">
        <ele>207.4</ele>
        <time>2021-11-18T14:18:45Z</time>
      </trkpt>
      <trkpt lat="46.61724" lon="5.39506">
        <ele>207.4</ele>
        <time>2021-11-18T14:18:46Z</time>
      </trkpt>
      <trkpt lat="46.61747" lon="5.39526">
        <ele>207.6</ele>
        <time>2021-11-18T14:18:50Z</time>
      </trkpt>
      <trkpt lat="46.61752" lon="5.39533">
        <ele>207.6</ele>
        <time>2021-11-18T14:18:51Z</time>
      </trkpt>
      <trkpt lat="46.61757" lon="5.39553">
        <ele>207.2</ele>
        <time>2021-11-18T14:18:53Z</time>
      </trkpt>
      <trkpt lat="46.61764" lon="5.3961">
        <ele>206.8</ele>
        <time>2021-11-18T14:18:58Z</time>
      </trkpt>
      <trkpt lat="46.61773" lon="5.39669">
        <ele>205.6</ele>
        <time>2021-11-18T14:19:03Z</time>
      </trkpt>
      <trkpt lat="46.61779" lon="5.39702">
        <ele>205</ele>
        <time>2021-11-18T14:19:06Z</time>
      </trkpt>
      <trkpt lat="46.61796" lon="5.39764">
        <ele>205</ele>
        <time>2021-11-18T14:19:12Z</time>
      </trkpt>
      <trkpt lat="46.61819" lon="5.39832">
        <ele>205</ele>
        <time>2021-11-18T14:19:19Z</time>
      </trkpt>
      <trkpt lat="46.61844" lon="5.39902">
        <ele>205.4</ele>
        <time>2021-11-18T14:19:27Z</time>
      </trkpt>
      <trkpt lat="46.6185" lon="5.3992">
        <ele>205.4</ele>
        <time>2021-11-18T14:19:29Z</time>
      </trkpt>
      <trkpt lat="46.61876" lon="5.39992">
        <ele>205.4</ele>
        <time>2021-11-18T14:19:37Z</time>
      </trkpt>
      <trkpt lat="46.61882" lon="5.40008">
        <ele>205.4</ele>
        <time>2021-11-18T14:19:39Z</time>
      </trkpt>
      <trkpt lat="46.6191" lon="5.40062">
        <ele>206</ele>
        <time>2021-11-18T14:19:46Z</time>
      </trkpt>
      <trkpt lat="46.61943" lon="5.40125">
        <ele>206</ele>
        <time>2021-11-18T14:19:54Z</time>
      </trkpt>
      <trkpt lat="46.61947" lon="5.40133">
        <ele>206.2</ele>
        <time>2021-11-18T14:19:55Z</time>
      </trkpt>
      <trkpt lat="46.6198" lon="5.40195">
        <ele>206</ele>
        <time>2021-11-18T14:20:03Z</time>
      </trkpt>
      <trkpt lat="46.61993" lon="5.4022">
        <ele>205.8</ele>
        <time>2021-11-18T14:20:06Z</time>
      </trkpt>
      <trkpt lat="46.62025" lon="5.40285">
        <ele>205.8</ele>
        <time>2021-11-18T14:20:14Z</time>
      </trkpt>
      <trkpt lat="46.62029" lon="5.40293">
        <ele>205.8</ele>
        <time>2021-11-18T14:20:15Z</time>
      </trkpt>
      <trkpt lat="46.62039" lon="5.40319">
        <ele>206</ele>
        <time>2021-11-18T14:20:18Z</time>
      </trkpt>
      <trkpt lat="46.62046" lon="5.40347">
        <ele>206</ele>
        <time>2021-11-18T14:20:21Z</time>
      </trkpt>
      <trkpt lat="46.62065" lon="5.40419">
        <ele>205.6</ele>
        <time>2021-11-18T14:20:29Z</time>
      </trkpt>
      <trkpt lat="46.62086" lon="5.40468">
        <ele>206</ele>
        <time>2021-11-18T14:20:35Z</time>
      </trkpt>
      <trkpt lat="46.6212" lon="5.40535">
        <ele>206.4</ele>
        <time>2021-11-18T14:20:44Z</time>
      </trkpt>
      <trkpt lat="46.62131" lon="5.40559">
        <ele>206.4</ele>
        <time>2021-11-18T14:20:47Z</time>
      </trkpt>
      <trkpt lat="46.6215" lon="5.40619">
        <ele>206.2</ele>
        <time>2021-11-18T14:20:54Z</time>
      </trkpt>
      <trkpt lat="46.62156" lon="5.40655">
        <ele>206.2</ele>
        <time>2021-11-18T14:20:58Z</time>
      </trkpt>
      <trkpt lat="46.62155" lon="5.40664">
        <ele>206.2</ele>
        <time>2021-11-18T14:20:59Z</time>
      </trkpt>
      <trkpt lat="46.62151" lon="5.40672">
        <ele>206.2</ele>
        <time>2021-11-18T14:21:00Z</time>
      </trkpt>
      <trkpt lat="46.62142" lon="5.40687">
        <ele>206.2</ele>
        <time>2021-11-18T14:21:02Z</time>
      </trkpt>
      <trkpt lat="46.62121" lon="5.40729">
        <ele>206.2</ele>
        <time>2021-11-18T14:21:07Z</time>
      </trkpt>
      <trkpt lat="46.621" lon="5.40791">
        <ele>206.6</ele>
        <time>2021-11-18T14:21:14Z</time>
      </trkpt>
      <trkpt lat="46.62093" lon="5.4081">
        <ele>206.6</ele>
        <time>2021-11-18T14:21:16Z</time>
      </trkpt>
      <trkpt lat="46.62077" lon="5.4085">
        <ele>206.8</ele>
        <time>2021-11-18T14:21:20Z</time>
      </trkpt>
      <trkpt lat="46.62053" lon="5.40922">
        <ele>206.4</ele>
        <time>2021-11-18T14:21:27Z</time>
      </trkpt>
      <trkpt lat="46.62027" lon="5.41002">
        <ele>206.2</ele>
        <time>2021-11-18T14:21:35Z</time>
      </trkpt>
      <trkpt lat="46.61996" lon="5.41068">
        <ele>206.4</ele>
        <time>2021-11-18T14:21:42Z</time>
      </trkpt>
      <trkpt lat="46.6195" lon="5.41129">
        <ele>206.2</ele>
        <time>2021-11-18T14:21:50Z</time>
      </trkpt>
      <trkpt lat="46.61909" lon="5.41185">
        <ele>205.8</ele>
        <time>2021-11-18T14:21:57Z</time>
      </trkpt>
      <trkpt lat="46.61903" lon="5.41193">
        <ele>205.6</ele>
        <time>2021-11-18T14:21:58Z</time>
      </trkpt>
      <trkpt lat="46.61897" lon="5.41201">
        <ele>205.6</ele>
        <time>2021-11-18T14:21:59Z</time>
      </trkpt>
      <trkpt lat="46.61856" lon="5.41262">
        <ele>205.6</ele>
        <time>2021-11-18T14:22:06Z</time>
      </trkpt>
      <trkpt lat="46.6182" lon="5.41326">
        <ele>205.6</ele>
        <time>2021-11-18T14:22:13Z</time>
      </trkpt>
      <trkpt lat="46.61805" lon="5.41353">
        <ele>205.8</ele>
        <time>2021-11-18T14:22:16Z</time>
      </trkpt>
      <trkpt lat="46.61779" lon="5.41396">
        <ele>205.8</ele>
        <time>2021-11-18T14:22:21Z</time>
      </trkpt>
      <trkpt lat="46.61774" lon="5.41404">
        <ele>205.8</ele>
        <time>2021-11-18T14:22:22Z</time>
      </trkpt>
      <trkpt lat="46.61754" lon="5.41423">
        <ele>205.8</ele>
        <time>2021-11-18T14:22:25Z</time>
      </trkpt>
      <trkpt lat="46.61739" lon="5.41432">
        <ele>205.8</ele>
        <time>2021-11-18T14:22:27Z</time>
      </trkpt>
      <trkpt lat="46.61715" lon="5.41437">
        <ele>205.6</ele>
        <time>2021-11-18T14:22:30Z</time>
      </trkpt>
      <trkpt lat="46.61707" lon="5.41436">
        <ele>205.6</ele>
        <time>2021-11-18T14:22:31Z</time>
      </trkpt>
      <trkpt lat="46.61691" lon="5.41432">
        <ele>205.4</ele>
        <time>2021-11-18T14:22:33Z</time>
      </trkpt>
      <trkpt lat="46.61676" lon="5.41424">
        <ele>205.4</ele>
        <time>2021-11-18T14:22:35Z</time>
      </trkpt>
      <trkpt lat="46.61644" lon="5.41392">
        <ele>205.8</ele>
        <time>2021-11-18T14:22:40Z</time>
      </trkpt>
      <trkpt lat="46.61598" lon="5.41342">
        <ele>206</ele>
        <time>2021-11-18T14:22:47Z</time>
      </trkpt>
      <trkpt lat="46.6159" lon="5.41337">
        <ele>206</ele>
        <time>2021-11-18T14:22:48Z</time>
      </trkpt>
      <trkpt lat="46.6154" lon="5.41301">
        <ele>206</ele>
        <time>2021-11-18T14:22:55Z</time>
      </trkpt>
      <trkpt lat="46.61525" lon="5.41292">
        <ele>206</ele>
        <time>2021-11-18T14:22:57Z</time>
      </trkpt>
      <trkpt lat="46.61481" lon="5.41272">
        <ele>206.4</ele>
        <time>2021-11-18T14:23:03Z</time>
      </trkpt>
      <trkpt lat="46.61428" lon="5.41256">
        <ele>206.4</ele>
        <time>2021-11-18T14:23:10Z</time>
      </trkpt>
      <trkpt lat="46.6142" lon="5.41254">
        <ele>206.4</ele>
        <time>2021-11-18T14:23:11Z</time>
      </trkpt>
      <trkpt lat="46.61366" lon="5.41239">
        <ele>206</ele>
        <time>2021-11-18T14:23:18Z</time>
      </trkpt>
      <trkpt lat="46.61351" lon="5.41235">
        <ele>206</ele>
        <time>2021-11-18T14:23:20Z</time>
      </trkpt>
      <trkpt lat="46.61297" lon="5.4122">
        <ele>205.6</ele>
        <time>2021-11-18T14:23:27Z</time>
      </trkpt>
      <trkpt lat="46.61281" lon="5.41216">
        <ele>205.6</ele>
        <time>2021-11-18T14:23:29Z</time>
      </trkpt>
      <trkpt lat="46.61226" lon="5.41201">
        <ele>205.4</ele>
        <time>2021-11-18T14:23:36Z</time>
      </trkpt>
      <trkpt lat="46.61172" lon="5.41185">
        <ele>205.4</ele>
        <time>2021-11-18T14:23:43Z</time>
      </trkpt>
      <trkpt lat="46.61156" lon="5.41181">
        <ele>205.4</ele>
        <time>2021-11-18T14:23:45Z</time>
      </trkpt>
      <trkpt lat="46.61102" lon="5.41165">
        <ele>205.4</ele>
        <time>2021-11-18T14:23:52Z</time>
      </trkpt>
      <trkpt lat="46.6108" lon="5.41159">
        <ele>205.4</ele>
        <time>2021-11-18T14:23:55Z</time>
      </trkpt>
      <trkpt lat="46.61027" lon="5.41151">
        <ele>205.8</ele>
        <time>2021-11-18T14:24:02Z</time>
      </trkpt>
      <trkpt lat="46.61021" lon="5.41153">
        <ele>205.8</ele>
        <time>2021-11-18T14:24:03Z</time>
      </trkpt>
      <trkpt lat="46.61" lon="5.41164">
        <ele>205.6</ele>
        <time>2021-11-18T14:24:06Z</time>
      </trkpt>
      <trkpt lat="46.60956" lon="5.41205">
        <ele>205.6</ele>
        <time>2021-11-18T14:24:13Z</time>
      </trkpt>
      <trkpt lat="46.60917" lon="5.41246">
        <ele>206</ele>
        <time>2021-11-18T14:24:20Z</time>
      </trkpt>
      <trkpt lat="46.60874" lon="5.413">
        <ele>206.8</ele>
        <time>2021-11-18T14:24:29Z</time>
      </trkpt>
      <trkpt lat="46.60868" lon="5.41308">
        <ele>206.8</ele>
        <time>2021-11-18T14:24:30Z</time>
      </trkpt>
      <trkpt lat="46.60863" lon="5.41314">
        <ele>207</ele>
        <time>2021-11-18T14:24:31Z</time>
      </trkpt>
      <trkpt lat="46.60853" lon="5.41325">
        <ele>207.2</ele>
        <time>2021-11-18T14:24:33Z</time>
      </trkpt>
      <trkpt lat="46.60841" lon="5.41332">
        <ele>207.4</ele>
        <time>2021-11-18T14:24:35Z</time>
      </trkpt>
      <trkpt lat="46.60828" lon="5.41331">
        <ele>207.4</ele>
        <time>2021-11-18T14:24:37Z</time>
      </trkpt>
      <trkpt lat="46.60816" lon="5.41326">
        <ele>207.4</ele>
        <time>2021-11-18T14:24:39Z</time>
      </trkpt>
      <trkpt lat="46.60805" lon="5.41316">
        <ele>207.6</ele>
        <time>2021-11-18T14:24:41Z</time>
      </trkpt>
      <trkpt lat="46.60796" lon="5.41306">
        <ele>208</ele>
        <time>2021-11-18T14:24:43Z</time>
      </trkpt>
      <trkpt lat="46.60777" lon="5.41285">
        <ele>209.2</ele>
        <time>2021-11-18T14:24:47Z</time>
      </trkpt>
      <trkpt lat="46.60769" lon="5.41277">
        <ele>210</ele>
        <time>2021-11-18T14:24:49Z</time>
      </trkpt>
      <trkpt lat="46.60763" lon="5.41271">
        <ele>210.4</ele>
        <time>2021-11-18T14:24:50Z</time>
      </trkpt>
      <trkpt lat="46.6075" lon="5.41258">
        <ele>211.4</ele>
        <time>2021-11-18T14:24:53Z</time>
      </trkpt>
      <trkpt lat="46.60744" lon="5.41253">
        <ele>211.8</ele>
        <time>2021-11-18T14:24:54Z</time>
      </trkpt>
      <trkpt lat="46.60721" lon="5.41222">
        <ele>212.4</ele>
        <time>2021-11-18T14:24:58Z</time>
      </trkpt>
      <trkpt lat="46.60715" lon="5.41215">
        <ele>212.4</ele>
        <time>2021-11-18T14:24:59Z</time>
      </trkpt>
      <trkpt lat="46.60694" lon="5.41191">
        <ele>212.6</ele>
        <time>2021-11-18T14:25:02Z</time>
      </trkpt>
      <trkpt lat="46.60681" lon="5.41181">
        <ele>212.4</ele>
        <time>2021-11-18T14:25:04Z</time>
      </trkpt>
      <trkpt lat="46.60641" lon="5.41166">
        <ele>212.4</ele>
        <time>2021-11-18T14:25:09Z</time>
      </trkpt>
      <trkpt lat="46.60587" lon="5.41148">
        <ele>212.8</ele>
        <time>2021-11-18T14:25:16Z</time>
      </trkpt>
      <trkpt lat="46.60572" lon="5.41144">
        <ele>213.2</ele>
        <time>2021-11-18T14:25:18Z</time>
      </trkpt>
      <trkpt lat="46.60558" lon="5.41142">
        <ele>213.4</ele>
        <time>2021-11-18T14:25:20Z</time>
      </trkpt>
      <trkpt lat="46.60521" lon="5.41138">
        <ele>214.6</ele>
        <time>2021-11-18T14:25:25Z</time>
      </trkpt>
      <trkpt lat="46.60513" lon="5.41137">
        <ele>215.2</ele>
        <time>2021-11-18T14:25:26Z</time>
      </trkpt>
      <trkpt lat="46.60492" lon="5.41137">
        <ele>215.8</ele>
        <time>2021-11-18T14:25:29Z</time>
      </trkpt>
      <trkpt lat="46.60466" lon="5.41133">
        <ele>216.6</ele>
        <time>2021-11-18T14:25:33Z</time>
      </trkpt>
      <trkpt lat="46.60453" lon="5.41127">
        <ele>217.2</ele>
        <time>2021-11-18T14:25:35Z</time>
      </trkpt>
      <trkpt lat="46.60446" lon="5.41122">
        <ele>217.4</ele>
        <time>2021-11-18T14:25:36Z</time>
      </trkpt>
      <trkpt lat="46.6044" lon="5.41117">
        <ele>217.6</ele>
        <time>2021-11-18T14:25:37Z</time>
      </trkpt>
      <trkpt lat="46.60435" lon="5.4111">
        <ele>217.8</ele>
        <time>2021-11-18T14:25:38Z</time>
      </trkpt>
      <trkpt lat="46.60431" lon="5.41104">
        <ele>218.2</ele>
        <time>2021-11-18T14:25:39Z</time>
      </trkpt>
      <trkpt lat="46.60427" lon="5.41096">
        <ele>218.4</ele>
        <time>2021-11-18T14:25:40Z</time>
      </trkpt>
      <trkpt lat="46.60423" lon="5.41085">
        <ele>218.6</ele>
        <time>2021-11-18T14:25:41Z</time>
      </trkpt>
      <trkpt lat="46.60411" lon="5.41054">
        <ele>219.2</ele>
        <time>2021-11-18T14:25:45Z</time>
      </trkpt>
      <trkpt lat="46.60406" lon="5.41044">
        <ele>219.4</ele>
        <time>2021-11-18T14:25:46Z</time>
      </trkpt>
      <trkpt lat="46.60397" lon="5.4103">
        <ele>219.4</ele>
        <time>2021-11-18T14:25:48Z</time>
      </trkpt>
      <trkpt lat="46.60392" lon="5.41025">
        <ele>219.6</ele>
        <time>2021-11-18T14:25:49Z</time>
      </trkpt>
      <trkpt lat="46.60371" lon="5.4101">
        <ele>219.6</ele>
        <time>2021-11-18T14:25:52Z</time>
      </trkpt>
      <trkpt lat="46.60349" lon="5.40994">
        <ele>219</ele>
        <time>2021-11-18T14:25:55Z</time>
      </trkpt>
      <trkpt lat="46.60342" lon="5.40987">
        <ele>218.8</ele>
        <time>2021-11-18T14:25:56Z</time>
      </trkpt>
      <trkpt lat="46.60335" lon="5.40978">
        <ele>218.6</ele>
        <time>2021-11-18T14:25:57Z</time>
      </trkpt>
      <trkpt lat="46.60329" lon="5.40968">
        <ele>218</ele>
        <time>2021-11-18T14:25:58Z</time>
      </trkpt>
      <trkpt lat="46.60323" lon="5.40957">
        <ele>217.8</ele>
        <time>2021-11-18T14:25:59Z</time>
      </trkpt>
      <trkpt lat="46.60312" lon="5.40936">
        <ele>217</ele>
        <time>2021-11-18T14:26:01Z</time>
      </trkpt>
      <trkpt lat="46.60297" lon="5.40911">
        <ele>215.8</ele>
        <time>2021-11-18T14:26:03Z</time>
      </trkpt>
      <trkpt lat="46.60289" lon="5.40901">
        <ele>215</ele>
        <time>2021-11-18T14:26:04Z</time>
      </trkpt>
      <trkpt lat="46.60282" lon="5.40893">
        <ele>213.8</ele>
        <time>2021-11-18T14:26:05Z</time>
      </trkpt>
      <trkpt lat="46.60263" lon="5.40876">
        <ele>212.8</ele>
        <time>2021-11-18T14:26:07Z</time>
      </trkpt>
      <trkpt lat="46.60254" lon="5.40869">
        <ele>212.4</ele>
        <time>2021-11-18T14:26:08Z</time>
      </trkpt>
      <trkpt lat="46.60237" lon="5.40857">
        <ele>211.6</ele>
        <time>2021-11-18T14:26:10Z</time>
      </trkpt>
      <trkpt lat="46.60219" lon="5.40844">
        <ele>210.2</ele>
        <time>2021-11-18T14:26:12Z</time>
      </trkpt>
      <trkpt lat="46.60195" lon="5.40821">
        <ele>208.8</ele>
        <time>2021-11-18T14:26:15Z</time>
      </trkpt>
      <trkpt lat="46.60188" lon="5.40813">
        <ele>208.4</ele>
        <time>2021-11-18T14:26:16Z</time>
      </trkpt>
      <trkpt lat="46.60177" lon="5.40792">
        <ele>208</ele>
        <time>2021-11-18T14:26:18Z</time>
      </trkpt>
      <trkpt lat="46.60172" lon="5.40769">
        <ele>207.8</ele>
        <time>2021-11-18T14:26:20Z</time>
      </trkpt>
      <trkpt lat="46.60171" lon="5.40757">
        <ele>207.6</ele>
        <time>2021-11-18T14:26:21Z</time>
      </trkpt>
      <trkpt lat="46.60171" lon="5.40745">
        <ele>207.6</ele>
        <time>2021-11-18T14:26:22Z</time>
      </trkpt>
      <trkpt lat="46.60175" lon="5.4072">
        <ele>207.2</ele>
        <time>2021-11-18T14:26:24Z</time>
      </trkpt>
      <trkpt lat="46.60178" lon="5.40712">
        <ele>206.8</ele>
        <time>2021-11-18T14:26:25Z</time>
      </trkpt>
      <trkpt lat="46.60185" lon="5.40693">
        <ele>206.8</ele>
        <time>2021-11-18T14:26:27Z</time>
      </trkpt>
      <trkpt lat="46.6021" lon="5.40653">
        <ele>207.4</ele>
        <time>2021-11-18T14:26:32Z</time>
      </trkpt>
      <trkpt lat="46.6023" lon="5.40614">
        <ele>207.6</ele>
        <time>2021-11-18T14:26:37Z</time>
      </trkpt>
      <trkpt lat="46.60235" lon="5.40597">
        <ele>207.6</ele>
        <time>2021-11-18T14:26:39Z</time>
      </trkpt>
      <trkpt lat="46.60236" lon="5.40578">
        <ele>207.8</ele>
        <time>2021-11-18T14:26:41Z</time>
      </trkpt>
      <trkpt lat="46.60232" lon="5.40543">
        <ele>207.8</ele>
        <time>2021-11-18T14:26:45Z</time>
      </trkpt>
      <trkpt lat="46.60219" lon="5.40473">
        <ele>208.2</ele>
        <time>2021-11-18T14:26:53Z</time>
      </trkpt>
      <trkpt lat="46.60219" lon="5.40465">
        <ele>208.2</ele>
        <time>2021-11-18T14:26:54Z</time>
      </trkpt>
      <trkpt lat="46.6022" lon="5.40426">
        <ele>208.6</ele>
        <time>2021-11-18T14:26:59Z</time>
      </trkpt>
      <trkpt lat="46.6022" lon="5.40418">
        <ele>209</ele>
        <time>2021-11-18T14:27:00Z</time>
      </trkpt>
      <trkpt lat="46.6022" lon="5.40384">
        <ele>210</ele>
        <time>2021-11-18T14:27:05Z</time>
      </trkpt>
      <trkpt lat="46.6022" lon="5.40378">
        <ele>210.4</ele>
        <time>2021-11-18T14:27:06Z</time>
      </trkpt>
      <trkpt lat="46.60218" lon="5.40359">
        <ele>211.4</ele>
        <time>2021-11-18T14:27:09Z</time>
      </trkpt>
      <trkpt lat="46.60213" lon="5.4033">
        <ele>212.4</ele>
        <time>2021-11-18T14:27:13Z</time>
      </trkpt>
      <trkpt lat="46.60196" lon="5.40282">
        <ele>213</ele>
        <time>2021-11-18T14:27:19Z</time>
      </trkpt>
      <trkpt lat="46.60177" lon="5.4023">
        <ele>212.6</ele>
        <time>2021-11-18T14:27:25Z</time>
      </trkpt>
      <trkpt lat="46.60176" lon="5.4022">
        <ele>212.6</ele>
        <time>2021-11-18T14:27:26Z</time>
      </trkpt>
      <trkpt lat="46.60175" lon="5.40201">
        <ele>212.6</ele>
        <time>2021-11-18T14:27:28Z</time>
      </trkpt>
      <trkpt lat="46.60178" lon="5.40182">
        <ele>212.6</ele>
        <time>2021-11-18T14:27:30Z</time>
      </trkpt>
      <trkpt lat="46.60192" lon="5.40114">
        <ele>212.6</ele>
        <time>2021-11-18T14:27:38Z</time>
      </trkpt>
      <trkpt lat="46.60192" lon="5.40104">
        <ele>212.8</ele>
        <time>2021-11-18T14:27:39Z</time>
      </trkpt>
      <trkpt lat="46.60192" lon="5.40074">
        <ele>212.8</ele>
        <time>2021-11-18T14:27:42Z</time>
      </trkpt>
      <trkpt lat="46.60189" lon="5.39987">
        <ele>211.4</ele>
        <time>2021-11-18T14:27:50Z</time>
      </trkpt>
      <trkpt lat="46.60183" lon="5.39919">
        <ele>210.4</ele>
        <time>2021-11-18T14:27:56Z</time>
      </trkpt>
      <trkpt lat="46.6018" lon="5.39908">
        <ele>210</ele>
        <time>2021-11-18T14:27:57Z</time>
      </trkpt>
      <trkpt lat="46.60175" lon="5.39898">
        <ele>209.8</ele>
        <time>2021-11-18T14:27:58Z</time>
      </trkpt>
      <trkpt lat="46.6017" lon="5.39889">
        <ele>209.6</ele>
        <time>2021-11-18T14:27:59Z</time>
      </trkpt>
      <trkpt lat="46.60164" lon="5.39881">
        <ele>209.4</ele>
        <time>2021-11-18T14:28:00Z</time>
      </trkpt>
      <trkpt lat="46.60143" lon="5.39863">
        <ele>209.2</ele>
        <time>2021-11-18T14:28:03Z</time>
      </trkpt>
      <trkpt lat="46.60136" lon="5.39856">
        <ele>208.8</ele>
        <time>2021-11-18T14:28:04Z</time>
      </trkpt>
      <trkpt lat="46.60095" lon="5.39817">
        <ele>208</ele>
        <time>2021-11-18T14:28:10Z</time>
      </trkpt>
      <trkpt lat="46.60081" lon="5.39791">
        <ele>208</ele>
        <time>2021-11-18T14:28:13Z</time>
      </trkpt>
      <trkpt lat="46.60078" lon="5.39781">
        <ele>208</ele>
        <time>2021-11-18T14:28:14Z</time>
      </trkpt>
      <trkpt lat="46.60065" lon="5.39744">
        <ele>208</ele>
        <time>2021-11-18T14:28:18Z</time>
      </trkpt>
      <trkpt lat="46.60064" lon="5.39734">
        <ele>208</ele>
        <time>2021-11-18T14:28:19Z</time>
      </trkpt>
      <trkpt lat="46.60064" lon="5.39724">
        <ele>208</ele>
        <time>2021-11-18T14:28:20Z</time>
      </trkpt>
      <trkpt lat="46.60068" lon="5.39706">
        <ele>208.6</ele>
        <time>2021-11-18T14:28:22Z</time>
      </trkpt>
      <trkpt lat="46.60085" lon="5.39667">
        <ele>209.2</ele>
        <time>2021-11-18T14:28:27Z</time>
      </trkpt>
      <trkpt lat="46.6009" lon="5.39643">
        <ele>209.4</ele>
        <time>2021-11-18T14:28:30Z</time>
      </trkpt>
      <trkpt lat="46.6009" lon="5.39627">
        <ele>209.6</ele>
        <time>2021-11-18T14:28:32Z</time>
      </trkpt>
      <trkpt lat="46.60089" lon="5.39612">
        <ele>210</ele>
        <time>2021-11-18T14:28:34Z</time>
      </trkpt>
      <trkpt lat="46.60086" lon="5.39598">
        <ele>210.4</ele>
        <time>2021-11-18T14:28:36Z</time>
      </trkpt>
      <trkpt lat="46.60082" lon="5.39586">
        <ele>211</ele>
        <time>2021-11-18T14:28:38Z</time>
      </trkpt>
      <trkpt lat="46.60075" lon="5.39566">
        <ele>211.8</ele>
        <time>2021-11-18T14:28:41Z</time>
      </trkpt>
      <trkpt lat="46.60073" lon="5.3956">
        <ele>212</ele>
        <time>2021-11-18T14:28:42Z</time>
      </trkpt>
      <trkpt lat="46.60054" lon="5.39519">
        <ele>213.4</ele>
        <time>2021-11-18T14:28:49Z</time>
      </trkpt>
      <trkpt lat="46.60051" lon="5.39513">
        <ele>213.6</ele>
        <time>2021-11-18T14:28:50Z</time>
      </trkpt>
      <trkpt lat="46.60043" lon="5.39489">
        <ele>214.4</ele>
        <time>2021-11-18T14:28:54Z</time>
      </trkpt>
      <trkpt lat="46.6004" lon="5.39476">
        <ele>215</ele>
        <time>2021-11-18T14:28:56Z</time>
      </trkpt>
      <trkpt lat="46.60039" lon="5.39469">
        <ele>215.2</ele>
        <time>2021-11-18T14:28:57Z</time>
      </trkpt>
      <trkpt lat="46.60038" lon="5.39462">
        <ele>215.6</ele>
        <time>2021-11-18T14:28:58Z</time>
      </trkpt>
      <trkpt lat="46.60037" lon="5.39448">
        <ele>216</ele>
        <time>2021-11-18T14:29:00Z</time>
      </trkpt>
      <trkpt lat="46.60038" lon="5.39433">
        <ele>216.2</ele>
        <time>2021-11-18T14:29:02Z</time>
      </trkpt>
      <trkpt lat="46.60039" lon="5.39425">
        <ele>216.6</ele>
        <time>2021-11-18T14:29:03Z</time>
      </trkpt>
      <trkpt lat="46.60047" lon="5.39382">
        <ele>217.2</ele>
        <time>2021-11-18T14:29:08Z</time>
      </trkpt>
      <trkpt lat="46.60055" lon="5.39317">
        <ele>216.8</ele>
        <time>2021-11-18T14:29:15Z</time>
      </trkpt>
      <trkpt lat="46.60053" lon="5.39284">
        <ele>216.8</ele>
        <time>2021-11-18T14:29:19Z</time>
      </trkpt>
      <trkpt lat="46.60052" lon="5.39277">
        <ele>216.8</ele>
        <time>2021-11-18T14:29:20Z</time>
      </trkpt>
      <trkpt lat="46.60041" lon="5.39237">
        <ele>218</ele>
        <time>2021-11-18T14:29:26Z</time>
      </trkpt>
      <trkpt lat="46.60027" lon="5.39214">
        <ele>219</ele>
        <time>2021-11-18T14:29:31Z</time>
      </trkpt>
      <trkpt lat="46.60023" lon="5.3921">
        <ele>219.8</ele>
        <time>2021-11-18T14:29:32Z</time>
      </trkpt>
      <trkpt lat="46.6002" lon="5.39207">
        <ele>220</ele>
        <time>2021-11-18T14:29:33Z</time>
      </trkpt>
      <trkpt lat="46.60012" lon="5.392">
        <ele>220.4</ele>
        <time>2021-11-18T14:29:35Z</time>
      </trkpt>
      <trkpt lat="46.60003" lon="5.39195">
        <ele>220.8</ele>
        <time>2021-11-18T14:29:37Z</time>
      </trkpt>
      <trkpt lat="46.59994" lon="5.39189">
        <ele>221.2</ele>
        <time>2021-11-18T14:29:39Z</time>
      </trkpt>
      <trkpt lat="46.59984" lon="5.39185">
        <ele>221.6</ele>
        <time>2021-11-18T14:29:41Z</time>
      </trkpt>
      <trkpt lat="46.59973" lon="5.39183">
        <ele>222</ele>
        <time>2021-11-18T14:29:43Z</time>
      </trkpt>
      <trkpt lat="46.59962" lon="5.39182">
        <ele>222.4</ele>
        <time>2021-11-18T14:29:45Z</time>
      </trkpt>
      <trkpt lat="46.59928" lon="5.39177">
        <ele>222.8</ele>
        <time>2021-11-18T14:29:52Z</time>
      </trkpt>
      <trkpt lat="46.59923" lon="5.39176">
        <ele>222.8</ele>
        <time>2021-11-18T14:29:53Z</time>
      </trkpt>
      <trkpt lat="46.59919" lon="5.39177">
        <ele>223</ele>
        <time>2021-11-18T14:29:54Z</time>
      </trkpt>
      <trkpt lat="46.59914" lon="5.39178">
        <ele>223.6</ele>
        <time>2021-11-18T14:29:55Z</time>
      </trkpt>
      <trkpt lat="46.59908" lon="5.3918">
        <ele>223.6</ele>
        <time>2021-11-18T14:29:56Z</time>
      </trkpt>
      <trkpt lat="46.59897" lon="5.39186">
        <ele>224.2</ele>
        <time>2021-11-18T14:29:58Z</time>
      </trkpt>
      <trkpt lat="46.59878" lon="5.39192">
        <ele>224.6</ele>
        <time>2021-11-18T14:30:01Z</time>
      </trkpt>
      <trkpt lat="46.59855" lon="5.39194">
        <ele>224.8</ele>
        <time>2021-11-18T14:30:05Z</time>
      </trkpt>
      <trkpt lat="46.59843" lon="5.39193">
        <ele>225.2</ele>
        <time>2021-11-18T14:30:07Z</time>
      </trkpt>
      <trkpt lat="46.59836" lon="5.39192">
        <ele>225.2</ele>
        <time>2021-11-18T14:30:08Z</time>
      </trkpt>
      <trkpt lat="46.59817" lon="5.39187">
        <ele>225.4</ele>
        <time>2021-11-18T14:30:11Z</time>
      </trkpt>
      <trkpt lat="46.59805" lon="5.39187">
        <ele>225.4</ele>
        <time>2021-11-18T14:30:13Z</time>
      </trkpt>
      <trkpt lat="46.59799" lon="5.39188">
        <ele>225.4</ele>
        <time>2021-11-18T14:30:14Z</time>
      </trkpt>
      <trkpt lat="46.59775" lon="5.39197">
        <ele>225.8</ele>
        <time>2021-11-18T14:30:18Z</time>
      </trkpt>
      <trkpt lat="46.59744" lon="5.3921">
        <ele>226.2</ele>
        <time>2021-11-18T14:30:23Z</time>
      </trkpt>
      <trkpt lat="46.59738" lon="5.39209">
        <ele>226.2</ele>
        <time>2021-11-18T14:30:24Z</time>
      </trkpt>
      <trkpt lat="46.59709" lon="5.39198">
        <ele>226.6</ele>
        <time>2021-11-18T14:30:29Z</time>
      </trkpt>
      <trkpt lat="46.5965" lon="5.39186">
        <ele>227</ele>
        <time>2021-11-18T14:30:38Z</time>
      </trkpt>
      <trkpt lat="46.59612" lon="5.39185">
        <ele>226.6</ele>
        <time>2021-11-18T14:30:44Z</time>
      </trkpt>
      <trkpt lat="46.59584" lon="5.39199">
        <ele>226.2</ele>
        <time>2021-11-18T14:30:49Z</time>
      </trkpt>
      <trkpt lat="46.59578" lon="5.39202">
        <ele>226.2</ele>
        <time>2021-11-18T14:30:50Z</time>
      </trkpt>
      <trkpt lat="46.59554" lon="5.3921">
        <ele>226</ele>
        <time>2021-11-18T14:30:54Z</time>
      </trkpt>
      <trkpt lat="46.59542" lon="5.3921">
        <ele>226</ele>
        <time>2021-11-18T14:30:56Z</time>
      </trkpt>
      <trkpt lat="46.59525" lon="5.39204">
        <ele>225.8</ele>
        <time>2021-11-18T14:30:59Z</time>
      </trkpt>
      <trkpt lat="46.59514" lon="5.39194">
        <ele>225.6</ele>
        <time>2021-11-18T14:31:01Z</time>
      </trkpt>
      <trkpt lat="46.5951" lon="5.39187">
        <ele>225.6</ele>
        <time>2021-11-18T14:31:02Z</time>
      </trkpt>
      <trkpt lat="46.59506" lon="5.39178">
        <ele>225.6</ele>
        <time>2021-11-18T14:31:03Z</time>
      </trkpt>
      <trkpt lat="46.59502" lon="5.39157">
        <ele>225.4</ele>
        <time>2021-11-18T14:31:05Z</time>
      </trkpt>
      <trkpt lat="46.59493" lon="5.3908">
        <ele>225.4</ele>
        <time>2021-11-18T14:31:12Z</time>
      </trkpt>
      <trkpt lat="46.59486" lon="5.39024">
        <ele>225.2</ele>
        <time>2021-11-18T14:31:17Z</time>
      </trkpt>
      <trkpt lat="46.59482" lon="5.3899">
        <ele>224.8</ele>
        <time>2021-11-18T14:31:20Z</time>
      </trkpt>
      <trkpt lat="46.59477" lon="5.3896">
        <ele>224.8</ele>
        <time>2021-11-18T14:31:23Z</time>
      </trkpt>
      <trkpt lat="46.59471" lon="5.38941">
        <ele>224.8</ele>
        <time>2021-11-18T14:31:25Z</time>
      </trkpt>
      <trkpt lat="46.59457" lon="5.38903">
        <ele>224.6</ele>
        <time>2021-11-18T14:31:29Z</time>
      </trkpt>
      <trkpt lat="46.59453" lon="5.38882">
        <ele>224.6</ele>
        <time>2021-11-18T14:31:31Z</time>
      </trkpt>
      <trkpt lat="46.59444" lon="5.38811">
        <ele>225.2</ele>
        <time>2021-11-18T14:31:38Z</time>
      </trkpt>
      <trkpt lat="46.59441" lon="5.38801">
        <ele>225.2</ele>
        <time>2021-11-18T14:31:39Z</time>
      </trkpt>
      <trkpt lat="46.59432" lon="5.38783">
        <ele>225.2</ele>
        <time>2021-11-18T14:31:41Z</time>
      </trkpt>
      <trkpt lat="46.59427" lon="5.38776">
        <ele>225.2</ele>
        <time>2021-11-18T14:31:42Z</time>
      </trkpt>
      <trkpt lat="46.5939" lon="5.38736">
        <ele>225</ele>
        <time>2021-11-18T14:31:48Z</time>
      </trkpt>
      <trkpt lat="46.59341" lon="5.38682">
        <ele>224.6</ele>
        <time>2021-11-18T14:31:56Z</time>
      </trkpt>
      <trkpt lat="46.59296" lon="5.38633">
        <ele>224.4</ele>
        <time>2021-11-18T14:32:03Z</time>
      </trkpt>
      <trkpt lat="46.5929" lon="5.38626">
        <ele>224.2</ele>
        <time>2021-11-18T14:32:04Z</time>
      </trkpt>
      <trkpt lat="46.59278" lon="5.38613">
        <ele>224.2</ele>
        <time>2021-11-18T14:32:06Z</time>
      </trkpt>
      <trkpt lat="46.59243" lon="5.38575">
        <ele>224.2</ele>
        <time>2021-11-18T14:32:12Z</time>
      </trkpt>
      <trkpt lat="46.59212" lon="5.38541">
        <ele>224.6</ele>
        <time>2021-11-18T14:32:18Z</time>
      </trkpt>
      <trkpt lat="46.59178" lon="5.38503">
        <ele>224.6</ele>
        <time>2021-11-18T14:32:24Z</time>
      </trkpt>
      <trkpt lat="46.59141" lon="5.3844">
        <ele>223.8</ele>
        <time>2021-11-18T14:32:31Z</time>
      </trkpt>
      <trkpt lat="46.59127" lon="5.38397">
        <ele>223</ele>
        <time>2021-11-18T14:32:35Z</time>
      </trkpt>
      <trkpt lat="46.59124" lon="5.38386">
        <ele>222.8</ele>
        <time>2021-11-18T14:32:36Z</time>
      </trkpt>
      <trkpt lat="46.59101" lon="5.38315">
        <ele>222.2</ele>
        <time>2021-11-18T14:32:43Z</time>
      </trkpt>
      <trkpt lat="46.59092" lon="5.38286">
        <ele>222</ele>
        <time>2021-11-18T14:32:46Z</time>
      </trkpt>
      <trkpt lat="46.59065" lon="5.3821">
        <ele>222.4</ele>
        <time>2021-11-18T14:32:54Z</time>
      </trkpt>
      <trkpt lat="46.59039" lon="5.38139">
        <ele>222.6</ele>
        <time>2021-11-18T14:33:02Z</time>
      </trkpt>
      <trkpt lat="46.59036" lon="5.3813">
        <ele>222.8</ele>
        <time>2021-11-18T14:33:03Z</time>
      </trkpt>
      <trkpt lat="46.5901" lon="5.3806">
        <ele>222.6</ele>
        <time>2021-11-18T14:33:11Z</time>
      </trkpt>
      <trkpt lat="46.59007" lon="5.38051">
        <ele>222.4</ele>
        <time>2021-11-18T14:33:12Z</time>
      </trkpt>
      <trkpt lat="46.58982" lon="5.37981">
        <ele>222.6</ele>
        <time>2021-11-18T14:33:20Z</time>
      </trkpt>
      <trkpt lat="46.58978" lon="5.37972">
        <ele>222.6</ele>
        <time>2021-11-18T14:33:21Z</time>
      </trkpt>
      <trkpt lat="46.58958" lon="5.37921">
        <ele>222.8</ele>
        <time>2021-11-18T14:33:27Z</time>
      </trkpt>
      <trkpt lat="46.58943" lon="5.37901">
        <ele>223</ele>
        <time>2021-11-18T14:33:30Z</time>
      </trkpt>
      <trkpt lat="46.58937" lon="5.37896">
        <ele>223</ele>
        <time>2021-11-18T14:33:31Z</time>
      </trkpt>
      <trkpt lat="46.58893" lon="5.37864">
        <ele>223.2</ele>
        <time>2021-11-18T14:33:38Z</time>
      </trkpt>
      <trkpt lat="46.58887" lon="5.37858">
        <ele>223.4</ele>
        <time>2021-11-18T14:33:39Z</time>
      </trkpt>
      <trkpt lat="46.58856" lon="5.37816">
        <ele>223.4</ele>
        <time>2021-11-18T14:33:45Z</time>
      </trkpt>
      <trkpt lat="46.58824" lon="5.37753">
        <ele>223.8</ele>
        <time>2021-11-18T14:33:52Z</time>
      </trkpt>
      <trkpt lat="46.58789" lon="5.37681">
        <ele>223.8</ele>
        <time>2021-11-18T14:34:00Z</time>
      </trkpt>
      <trkpt lat="46.58784" lon="5.37672">
        <ele>223.8</ele>
        <time>2021-11-18T14:34:01Z</time>
      </trkpt>
      <trkpt lat="46.58746" lon="5.37616">
        <ele>223</ele>
        <time>2021-11-18T14:34:08Z</time>
      </trkpt>
      <trkpt lat="46.58701" lon="5.37558">
        <ele>222.2</ele>
        <time>2021-11-18T14:34:15Z</time>
      </trkpt>
      <trkpt lat="46.58694" lon="5.37549">
        <ele>221.8</ele>
        <time>2021-11-18T14:34:16Z</time>
      </trkpt>
      <trkpt lat="46.58673" lon="5.37521">
        <ele>220.6</ele>
        <time>2021-11-18T14:34:19Z</time>
      </trkpt>
      <trkpt lat="46.58654" lon="5.37491">
        <ele>219.8</ele>
        <time>2021-11-18T14:34:22Z</time>
      </trkpt>
      <trkpt lat="46.58643" lon="5.3747">
        <ele>219.4</ele>
        <time>2021-11-18T14:34:24Z</time>
      </trkpt>
      <trkpt lat="46.5863" lon="5.37438">
        <ele>219.2</ele>
        <time>2021-11-18T14:34:27Z</time>
      </trkpt>
      <trkpt lat="46.58615" lon="5.37382">
        <ele>219.2</ele>
        <time>2021-11-18T14:34:32Z</time>
      </trkpt>
      <trkpt lat="46.58597" lon="5.37307">
        <ele>219</ele>
        <time>2021-11-18T14:34:39Z</time>
      </trkpt>
      <trkpt lat="46.58595" lon="5.37296">
        <ele>219</ele>
        <time>2021-11-18T14:34:40Z</time>
      </trkpt>
      <trkpt lat="46.58574" lon="5.37225">
        <ele>219</ele>
        <time>2021-11-18T14:34:47Z</time>
      </trkpt>
      <trkpt lat="46.58542" lon="5.3715">
        <ele>219</ele>
        <time>2021-11-18T14:34:55Z</time>
      </trkpt>
      <trkpt lat="46.58527" lon="5.37128">
        <ele>218.8</ele>
        <time>2021-11-18T14:34:58Z</time>
      </trkpt>
      <trkpt lat="46.58511" lon="5.3711">
        <ele>219.2</ele>
        <time>2021-11-18T14:35:01Z</time>
      </trkpt>
      <trkpt lat="46.58467" lon="5.37072">
        <ele>220.6</ele>
        <time>2021-11-18T14:35:08Z</time>
      </trkpt>
      <trkpt lat="46.58418" lon="5.37046">
        <ele>220.6</ele>
        <time>2021-11-18T14:35:14Z</time>
      </trkpt>
      <trkpt lat="46.58364" lon="5.3702">
        <ele>219.2</ele>
        <time>2021-11-18T14:35:20Z</time>
      </trkpt>
      <trkpt lat="46.58348" lon="5.37012">
        <ele>217.6</ele>
        <time>2021-11-18T14:35:22Z</time>
      </trkpt>
      <trkpt lat="46.58318" lon="5.36997">
        <ele>216.4</ele>
        <time>2021-11-18T14:35:25Z</time>
      </trkpt>
      <trkpt lat="46.58291" lon="5.36983">
        <ele>215.4</ele>
        <time>2021-11-18T14:35:28Z</time>
      </trkpt>
      <trkpt lat="46.58281" lon="5.36973">
        <ele>214.8</ele>
        <time>2021-11-18T14:35:29Z</time>
      </trkpt>
      <trkpt lat="46.58275" lon="5.36963">
        <ele>214.4</ele>
        <time>2021-11-18T14:35:30Z</time>
      </trkpt>
      <trkpt lat="46.58268" lon="5.36952">
        <ele>214</ele>
        <time>2021-11-18T14:35:31Z</time>
      </trkpt>
      <trkpt lat="46.58264" lon="5.36943">
        <ele>214</ele>
        <time>2021-11-18T14:35:32Z</time>
      </trkpt>
      <trkpt lat="46.58248" lon="5.36905">
        <ele>212.8</ele>
        <time>2021-11-18T14:35:35Z</time>
      </trkpt>
      <trkpt lat="46.58239" lon="5.36881">
        <ele>212.6</ele>
        <time>2021-11-18T14:35:37Z</time>
      </trkpt>
      <trkpt lat="46.58214" lon="5.36821">
        <ele>211.8</ele>
        <time>2021-11-18T14:35:42Z</time>
      </trkpt>
      <trkpt lat="46.58191" lon="5.36762">
        <ele>211.2</ele>
        <time>2021-11-18T14:35:47Z</time>
      </trkpt>
      <trkpt lat="46.58168" lon="5.36704">
        <ele>210.8</ele>
        <time>2021-11-18T14:35:52Z</time>
      </trkpt>
      <trkpt lat="46.58155" lon="5.36675">
        <ele>210.4</ele>
        <time>2021-11-18T14:35:55Z</time>
      </trkpt>
      <trkpt lat="46.58132" lon="5.36611">
        <ele>210.4</ele>
        <time>2021-11-18T14:36:01Z</time>
      </trkpt>
      <trkpt lat="46.5813" lon="5.36599">
        <ele>210.4</ele>
        <time>2021-11-18T14:36:02Z</time>
      </trkpt>
      <trkpt lat="46.58128" lon="5.36576">
        <ele>210.4</ele>
        <time>2021-11-18T14:36:04Z</time>
      </trkpt>
      <trkpt lat="46.58128" lon="5.36567">
        <ele>210.6</ele>
        <time>2021-11-18T14:36:05Z</time>
      </trkpt>
      <trkpt lat="46.58127" lon="5.3653">
        <ele>210.4</ele>
        <time>2021-11-18T14:36:08Z</time>
      </trkpt>
      <trkpt lat="46.58122" lon="5.36507">
        <ele>210.2</ele>
        <time>2021-11-18T14:36:10Z</time>
      </trkpt>
      <trkpt lat="46.58116" lon="5.36485">
        <ele>210</ele>
        <time>2021-11-18T14:36:12Z</time>
      </trkpt>
      <trkpt lat="46.58107" lon="5.36464">
        <ele>209.6</ele>
        <time>2021-11-18T14:36:14Z</time>
      </trkpt>
      <trkpt lat="46.58103" lon="5.36457">
        <ele>209.6</ele>
        <time>2021-11-18T14:36:15Z</time>
      </trkpt>
      <trkpt lat="46.58075" lon="5.36404">
        <ele>208.8</ele>
        <time>2021-11-18T14:36:21Z</time>
      </trkpt>
      <trkpt lat="46.58063" lon="5.36385">
        <ele>208.6</ele>
        <time>2021-11-18T14:36:23Z</time>
      </trkpt>
      <trkpt lat="46.58046" lon="5.36362">
        <ele>208.4</ele>
        <time>2021-11-18T14:36:26Z</time>
      </trkpt>
      <trkpt lat="46.58035" lon="5.36341">
        <ele>208.4</ele>
        <time>2021-11-18T14:36:28Z</time>
      </trkpt>
      <trkpt lat="46.58028" lon="5.36319">
        <ele>208.2</ele>
        <time>2021-11-18T14:36:30Z</time>
      </trkpt>
      <trkpt lat="46.58025" lon="5.36299">
        <ele>208.2</ele>
        <time>2021-11-18T14:36:32Z</time>
      </trkpt>
      <trkpt lat="46.58024" lon="5.36274">
        <ele>208</ele>
        <time>2021-11-18T14:36:34Z</time>
      </trkpt>
      <trkpt lat="46.58022" lon="5.36217">
        <ele>207.4</ele>
        <time>2021-11-18T14:36:39Z</time>
      </trkpt>
      <trkpt lat="46.58023" lon="5.36205">
        <ele>207.4</ele>
        <time>2021-11-18T14:36:40Z</time>
      </trkpt>
      <trkpt lat="46.58023" lon="5.36185">
        <ele>207.4</ele>
        <time>2021-11-18T14:36:42Z</time>
      </trkpt>
      <trkpt lat="46.58022" lon="5.36161">
        <ele>207.4</ele>
        <time>2021-11-18T14:36:44Z</time>
      </trkpt>
      <trkpt lat="46.5802" lon="5.36138">
        <ele>207.2</ele>
        <time>2021-11-18T14:36:46Z</time>
      </trkpt>
      <trkpt lat="46.58013" lon="5.36118">
        <ele>207</ele>
        <time>2021-11-18T14:36:48Z</time>
      </trkpt>
      <trkpt lat="46.57994" lon="5.36073">
        <ele>206.8</ele>
        <time>2021-11-18T14:36:52Z</time>
      </trkpt>
      <trkpt lat="46.57968" lon="5.36028">
        <ele>206</ele>
        <time>2021-11-18T14:36:57Z</time>
      </trkpt>
      <trkpt lat="46.57961" lon="5.36021">
        <ele>206</ele>
        <time>2021-11-18T14:36:58Z</time>
      </trkpt>
      <trkpt lat="46.57926" lon="5.3599">
        <ele>205.4</ele>
        <time>2021-11-18T14:37:03Z</time>
      </trkpt>
      <trkpt lat="46.5792" lon="5.35981">
        <ele>205.2</ele>
        <time>2021-11-18T14:37:04Z</time>
      </trkpt>
      <trkpt lat="46.57915" lon="5.35969">
        <ele>205.2</ele>
        <time>2021-11-18T14:37:05Z</time>
      </trkpt>
      <trkpt lat="46.57914" lon="5.35948">
        <ele>205.2</ele>
        <time>2021-11-18T14:37:07Z</time>
      </trkpt>
      <trkpt lat="46.5792" lon="5.35911">
        <ele>205.4</ele>
        <time>2021-11-18T14:37:11Z</time>
      </trkpt>
      <trkpt lat="46.57922" lon="5.35903">
        <ele>205.6</ele>
        <time>2021-11-18T14:37:12Z</time>
      </trkpt>
      <trkpt lat="46.57938" lon="5.35852">
        <ele>207</ele>
        <time>2021-11-18T14:37:18Z</time>
      </trkpt>
      <trkpt lat="46.57939" lon="5.35844">
        <ele>207.2</ele>
        <time>2021-11-18T14:37:19Z</time>
      </trkpt>
      <trkpt lat="46.5794" lon="5.35835">
        <ele>207.6</ele>
        <time>2021-11-18T14:37:20Z</time>
      </trkpt>
      <trkpt lat="46.5794" lon="5.35815">
        <ele>208</ele>
        <time>2021-11-18T14:37:22Z</time>
      </trkpt>
      <trkpt lat="46.57937" lon="5.35796">
        <ele>208.2</ele>
        <time>2021-11-18T14:37:24Z</time>
      </trkpt>
      <trkpt lat="46.57932" lon="5.35779">
        <ele>208.6</ele>
        <time>2021-11-18T14:37:26Z</time>
      </trkpt>
      <trkpt lat="46.57917" lon="5.35748">
        <ele>209.2</ele>
        <time>2021-11-18T14:37:30Z</time>
      </trkpt>
      <trkpt lat="46.57909" lon="5.35731">
        <ele>209.6</ele>
        <time>2021-11-18T14:37:32Z</time>
      </trkpt>
      <trkpt lat="46.5789" lon="5.35691">
        <ele>210</ele>
        <time>2021-11-18T14:37:37Z</time>
      </trkpt>
      <trkpt lat="46.57888" lon="5.35683">
        <ele>210</ele>
        <time>2021-11-18T14:37:38Z</time>
      </trkpt>
      <trkpt lat="46.57884" lon="5.35665">
        <ele>210</ele>
        <time>2021-11-18T14:37:40Z</time>
      </trkpt>
      <trkpt lat="46.57879" lon="5.35635">
        <ele>210</ele>
        <time>2021-11-18T14:37:43Z</time>
      </trkpt>
      <trkpt lat="46.5787" lon="5.35589">
        <ele>209.8</ele>
        <time>2021-11-18T14:37:47Z</time>
      </trkpt>
      <trkpt lat="46.57867" lon="5.3558">
        <ele>209.4</ele>
        <time>2021-11-18T14:37:48Z</time>
      </trkpt>
      <trkpt lat="46.57847" lon="5.35534">
        <ele>208.6</ele>
        <time>2021-11-18T14:37:53Z</time>
      </trkpt>
      <trkpt lat="46.57834" lon="5.35493">
        <ele>209</ele>
        <time>2021-11-18T14:37:58Z</time>
      </trkpt>
      <trkpt lat="46.57828" lon="5.35463">
        <ele>210.4</ele>
        <time>2021-11-18T14:38:02Z</time>
      </trkpt>
      <trkpt lat="46.57826" lon="5.35447">
        <ele>210.8</ele>
        <time>2021-11-18T14:38:04Z</time>
      </trkpt>
      <trkpt lat="46.57824" lon="5.35439">
        <ele>211.2</ele>
        <time>2021-11-18T14:38:05Z</time>
      </trkpt>
      <trkpt lat="46.57822" lon="5.35431">
        <ele>211.4</ele>
        <time>2021-11-18T14:38:06Z</time>
      </trkpt>
      <trkpt lat="46.57818" lon="5.35425">
        <ele>211.4</ele>
        <time>2021-11-18T14:38:07Z</time>
      </trkpt>
      <trkpt lat="46.57807" lon="5.35424">
        <ele>211.6</ele>
        <time>2021-11-18T14:38:09Z</time>
      </trkpt>
      <trkpt lat="46.57801" lon="5.35428">
        <ele>211.6</ele>
        <time>2021-11-18T14:38:10Z</time>
      </trkpt>
      <trkpt lat="46.57788" lon="5.35438">
        <ele>211.6</ele>
        <time>2021-11-18T14:38:12Z</time>
      </trkpt>
      <trkpt lat="46.57736" lon="5.35476">
        <ele>210</ele>
        <time>2021-11-18T14:38:18Z</time>
      </trkpt>
      <trkpt lat="46.57726" lon="5.35484">
        <ele>209</ele>
        <time>2021-11-18T14:38:19Z</time>
      </trkpt>
      <trkpt lat="46.57697" lon="5.35503">
        <ele>207.4</ele>
        <time>2021-11-18T14:38:22Z</time>
      </trkpt>
      <trkpt lat="46.57678" lon="5.35516">
        <ele>206</ele>
        <time>2021-11-18T14:38:24Z</time>
      </trkpt>
      <trkpt lat="46.57668" lon="5.35523">
        <ele>205.4</ele>
        <time>2021-11-18T14:38:25Z</time>
      </trkpt>
      <trkpt lat="46.57659" lon="5.3553">
        <ele>204.4</ele>
        <time>2021-11-18T14:38:26Z</time>
      </trkpt>
      <trkpt lat="46.57632" lon="5.35556">
        <ele>203</ele>
        <time>2021-11-18T14:38:29Z</time>
      </trkpt>
      <trkpt lat="46.57599" lon="5.35587">
        <ele>201.8</ele>
        <time>2021-11-18T14:38:33Z</time>
      </trkpt>
      <trkpt lat="46.57591" lon="5.35594">
        <ele>201.8</ele>
        <time>2021-11-18T14:38:34Z</time>
      </trkpt>
      <trkpt lat="46.57578" lon="5.35607">
        <ele>201.6</ele>
        <time>2021-11-18T14:38:36Z</time>
      </trkpt>
      <trkpt lat="46.57564" lon="5.35625">
        <ele>201.4</ele>
        <time>2021-11-18T14:38:38Z</time>
      </trkpt>
      <trkpt lat="46.5753" lon="5.35673">
        <ele>202</ele>
        <time>2021-11-18T14:38:44Z</time>
      </trkpt>
      <trkpt lat="46.57497" lon="5.35695">
        <ele>202.8</ele>
        <time>2021-11-18T14:38:49Z</time>
      </trkpt>
      <trkpt lat="46.57491" lon="5.35699">
        <ele>202.8</ele>
        <time>2021-11-18T14:38:50Z</time>
      </trkpt>
      <trkpt lat="46.57467" lon="5.35715">
        <ele>203.8</ele>
        <time>2021-11-18T14:38:54Z</time>
      </trkpt>
      <trkpt lat="46.57462" lon="5.35719">
        <ele>204</ele>
        <time>2021-11-18T14:38:55Z</time>
      </trkpt>
      <trkpt lat="46.57444" lon="5.35729">
        <ele>205.2</ele>
        <time>2021-11-18T14:38:58Z</time>
      </trkpt>
      <trkpt lat="46.57429" lon="5.35739">
        <ele>206</ele>
        <time>2021-11-18T14:39:01Z</time>
      </trkpt>
      <trkpt lat="46.57424" lon="5.35742">
        <ele>206.2</ele>
        <time>2021-11-18T14:39:02Z</time>
      </trkpt>
      <trkpt lat="46.5742" lon="5.35745">
        <ele>206.4</ele>
        <time>2021-11-18T14:39:03Z</time>
      </trkpt>
      <trkpt lat="46.57412" lon="5.35751">
        <ele>207.8</ele>
        <time>2021-11-18T14:39:05Z</time>
      </trkpt>
      <trkpt lat="46.57408" lon="5.35754">
        <ele>208.2</ele>
        <time>2021-11-18T14:39:06Z</time>
      </trkpt>
      <trkpt lat="46.574" lon="5.35764">
        <ele>209.2</ele>
        <time>2021-11-18T14:39:08Z</time>
      </trkpt>
      <trkpt lat="46.57397" lon="5.35769">
        <ele>209.6</ele>
        <time>2021-11-18T14:39:09Z</time>
      </trkpt>
      <trkpt lat="46.57394" lon="5.35774">
        <ele>210.2</ele>
        <time>2021-11-18T14:39:10Z</time>
      </trkpt>
      <trkpt lat="46.57392" lon="5.35779">
        <ele>210.4</ele>
        <time>2021-11-18T14:39:11Z</time>
      </trkpt>
      <trkpt lat="46.57374" lon="5.3581">
        <ele>211.2</ele>
        <time>2021-11-18T14:39:16Z</time>
      </trkpt>
      <trkpt lat="46.57357" lon="5.3583">
        <ele>210.8</ele>
        <time>2021-11-18T14:39:19Z</time>
      </trkpt>
      <trkpt lat="46.57351" lon="5.35835">
        <ele>210.6</ele>
        <time>2021-11-18T14:39:20Z</time>
      </trkpt>
      <trkpt lat="46.57344" lon="5.35839">
        <ele>210.2</ele>
        <time>2021-11-18T14:39:21Z</time>
      </trkpt>
      <trkpt lat="46.5733" lon="5.35841">
        <ele>209.6</ele>
        <time>2021-11-18T14:39:23Z</time>
      </trkpt>
      <trkpt lat="46.57323" lon="5.3584">
        <ele>209.2</ele>
        <time>2021-11-18T14:39:24Z</time>
      </trkpt>
      <trkpt lat="46.57294" lon="5.35829">
        <ele>208.8</ele>
        <time>2021-11-18T14:39:28Z</time>
      </trkpt>
      <trkpt lat="46.57245" lon="5.35797">
        <ele>208.2</ele>
        <time>2021-11-18T14:39:35Z</time>
      </trkpt>
      <trkpt lat="46.57236" lon="5.35792">
        <ele>208.2</ele>
        <time>2021-11-18T14:39:36Z</time>
      </trkpt>
      <trkpt lat="46.57192" lon="5.35763">
        <ele>207.6</ele>
        <time>2021-11-18T14:39:42Z</time>
      </trkpt>
      <trkpt lat="46.57143" lon="5.3573">
        <ele>207.4</ele>
        <time>2021-11-18T14:39:49Z</time>
      </trkpt>
      <trkpt lat="46.5713" lon="5.35717">
        <ele>207.4</ele>
        <time>2021-11-18T14:39:51Z</time>
      </trkpt>
      <trkpt lat="46.57096" lon="5.35673">
        <ele>207.2</ele>
        <time>2021-11-18T14:39:57Z</time>
      </trkpt>
      <trkpt lat="46.57063" lon="5.35629">
        <ele>207.2</ele>
        <time>2021-11-18T14:40:03Z</time>
      </trkpt>
      <trkpt lat="46.57052" lon="5.35599">
        <ele>207.4</ele>
        <time>2021-11-18T14:40:06Z</time>
      </trkpt>
      <trkpt lat="46.57051" lon="5.35588">
        <ele>207.4</ele>
        <time>2021-11-18T14:40:07Z</time>
      </trkpt>
      <trkpt lat="46.57044" lon="5.35509">
        <ele>207.8</ele>
        <time>2021-11-18T14:40:15Z</time>
      </trkpt>
      <trkpt lat="46.57042" lon="5.35482">
        <ele>208.2</ele>
        <time>2021-11-18T14:40:18Z</time>
      </trkpt>
      <trkpt lat="46.57037" lon="5.35443">
        <ele>208.6</ele>
        <time>2021-11-18T14:40:22Z</time>
      </trkpt>
      <trkpt lat="46.57025" lon="5.35397">
        <ele>209.2</ele>
        <time>2021-11-18T14:40:27Z</time>
      </trkpt>
      <trkpt lat="46.57" lon="5.35317">
        <ele>209.2</ele>
        <time>2021-11-18T14:40:36Z</time>
      </trkpt>
      <trkpt lat="46.56997" lon="5.35309">
        <ele>209.4</ele>
        <time>2021-11-18T14:40:37Z</time>
      </trkpt>
      <trkpt lat="46.5698" lon="5.35237">
        <ele>210.2</ele>
        <time>2021-11-18T14:40:45Z</time>
      </trkpt>
      <trkpt lat="46.56975" lon="5.35212">
        <ele>210.6</ele>
        <time>2021-11-18T14:40:48Z</time>
      </trkpt>
      <trkpt lat="46.56968" lon="5.35199">
        <ele>211.2</ele>
        <time>2021-11-18T14:40:50Z</time>
      </trkpt>
      <trkpt lat="46.5696" lon="5.35189">
        <ele>211.6</ele>
        <time>2021-11-18T14:40:52Z</time>
      </trkpt>
      <trkpt lat="46.56956" lon="5.35185">
        <ele>211.8</ele>
        <time>2021-11-18T14:40:53Z</time>
      </trkpt>
      <trkpt lat="46.56952" lon="5.35182">
        <ele>212</ele>
        <time>2021-11-18T14:40:54Z</time>
      </trkpt>
      <trkpt lat="46.5694" lon="5.35172">
        <ele>213.2</ele>
        <time>2021-11-18T14:40:57Z</time>
      </trkpt>
      <trkpt lat="46.56922" lon="5.35158">
        <ele>214.2</ele>
        <time>2021-11-18T14:41:01Z</time>
      </trkpt>
      <trkpt lat="46.56919" lon="5.35153">
        <ele>214.2</ele>
        <time>2021-11-18T14:41:02Z</time>
      </trkpt>
      <trkpt lat="46.56911" lon="5.35142">
        <ele>214.6</ele>
        <time>2021-11-18T14:41:04Z</time>
      </trkpt>
      <trkpt lat="46.56899" lon="5.35118">
        <ele>214.6</ele>
        <time>2021-11-18T14:41:07Z</time>
      </trkpt>
      <trkpt lat="46.56871" lon="5.35059">
        <ele>213.6</ele>
        <time>2021-11-18T14:41:13Z</time>
      </trkpt>
      <trkpt lat="46.56861" lon="5.35037">
        <ele>212.6</ele>
        <time>2021-11-18T14:41:15Z</time>
      </trkpt>
      <trkpt lat="46.56844" lon="5.35001">
        <ele>211.6</ele>
        <time>2021-11-18T14:41:18Z</time>
      </trkpt>
      <trkpt lat="46.5684" lon="5.3499">
        <ele>211</ele>
        <time>2021-11-18T14:41:19Z</time>
      </trkpt>
      <trkpt lat="46.56835" lon="5.34973">
        <ele>210.2</ele>
        <time>2021-11-18T14:41:20Z</time>
      </trkpt>
      <trkpt lat="46.56832" lon="5.34959">
        <ele>210</ele>
        <time>2021-11-18T14:41:21Z</time>
      </trkpt>
      <trkpt lat="46.56829" lon="5.34944">
        <ele>209.2</ele>
        <time>2021-11-18T14:41:22Z</time>
      </trkpt>
      <trkpt lat="46.56826" lon="5.3493">
        <ele>208.8</ele>
        <time>2021-11-18T14:41:23Z</time>
      </trkpt>
      <trkpt lat="46.56823" lon="5.34915">
        <ele>208</ele>
        <time>2021-11-18T14:41:24Z</time>
      </trkpt>
      <trkpt lat="46.56815" lon="5.34871">
        <ele>206.8</ele>
        <time>2021-11-18T14:41:27Z</time>
      </trkpt>
      <trkpt lat="46.56807" lon="5.34832">
        <ele>205.6</ele>
        <time>2021-11-18T14:41:30Z</time>
      </trkpt>
      <trkpt lat="46.56805" lon="5.34818">
        <ele>205.2</ele>
        <time>2021-11-18T14:41:31Z</time>
      </trkpt>
      <trkpt lat="46.56792" lon="5.34763">
        <ele>204.4</ele>
        <time>2021-11-18T14:41:35Z</time>
      </trkpt>
      <trkpt lat="46.56789" lon="5.3475">
        <ele>204.4</ele>
        <time>2021-11-18T14:41:36Z</time>
      </trkpt>
      <trkpt lat="46.56774" lon="5.34683">
        <ele>204</ele>
        <time>2021-11-18T14:41:42Z</time>
      </trkpt>
      <trkpt lat="46.5677" lon="5.34673">
        <ele>204</ele>
        <time>2021-11-18T14:41:43Z</time>
      </trkpt>
      <trkpt lat="46.56758" lon="5.34656">
        <ele>203.8</ele>
        <time>2021-11-18T14:41:45Z</time>
      </trkpt>
      <trkpt lat="46.56742" lon="5.34653">
        <ele>203.6</ele>
        <time>2021-11-18T14:41:47Z</time>
      </trkpt>
      <trkpt lat="46.5672" lon="5.34663">
        <ele>203.4</ele>
        <time>2021-11-18T14:41:50Z</time>
      </trkpt>
      <trkpt lat="46.56712" lon="5.34667">
        <ele>203.4</ele>
        <time>2021-11-18T14:41:51Z</time>
      </trkpt>
      <trkpt lat="46.56681" lon="5.34676">
        <ele>203.4</ele>
        <time>2021-11-18T14:41:55Z</time>
      </trkpt>
      <trkpt lat="46.56652" lon="5.34686">
        <ele>203.4</ele>
        <time>2021-11-18T14:41:59Z</time>
      </trkpt>
      <trkpt lat="46.56639" lon="5.34697">
        <ele>203.6</ele>
        <time>2021-11-18T14:42:01Z</time>
      </trkpt>
      <trkpt lat="46.56629" lon="5.34713">
        <ele>203.6</ele>
        <time>2021-11-18T14:42:03Z</time>
      </trkpt>
      <trkpt lat="46.56621" lon="5.34731">
        <ele>203.6</ele>
        <time>2021-11-18T14:42:05Z</time>
      </trkpt>
      <trkpt lat="46.56613" lon="5.34748">
        <ele>203.8</ele>
        <time>2021-11-18T14:42:07Z</time>
      </trkpt>
      <trkpt lat="46.56603" lon="5.34761">
        <ele>204</ele>
        <time>2021-11-18T14:42:09Z</time>
      </trkpt>
      <trkpt lat="46.56588" lon="5.3477">
        <ele>204.8</ele>
        <time>2021-11-18T14:42:12Z</time>
      </trkpt>
      <trkpt lat="46.56582" lon="5.34771">
        <ele>205</ele>
        <time>2021-11-18T14:42:13Z</time>
      </trkpt>
      <trkpt lat="46.56571" lon="5.34769">
        <ele>205.8</ele>
        <time>2021-11-18T14:42:15Z</time>
      </trkpt>
      <trkpt lat="46.56565" lon="5.34767">
        <ele>206</ele>
        <time>2021-11-18T14:42:16Z</time>
      </trkpt>
      <trkpt lat="46.56555" lon="5.34763">
        <ele>206.2</ele>
        <time>2021-11-18T14:42:18Z</time>
      </trkpt>
      <trkpt lat="46.56541" lon="5.34757">
        <ele>207.2</ele>
        <time>2021-11-18T14:42:21Z</time>
      </trkpt>
      <trkpt lat="46.56526" lon="5.34749">
        <ele>208</ele>
        <time>2021-11-18T14:42:24Z</time>
      </trkpt>
      <trkpt lat="46.56521" lon="5.34746">
        <ele>208.4</ele>
        <time>2021-11-18T14:42:25Z</time>
      </trkpt>
      <trkpt lat="46.56508" lon="5.34737">
        <ele>209.6</ele>
        <time>2021-11-18T14:42:28Z</time>
      </trkpt>
      <trkpt lat="46.56488" lon="5.34725">
        <ele>210.8</ele>
        <time>2021-11-18T14:42:32Z</time>
      </trkpt>
      <trkpt lat="46.56483" lon="5.34722">
        <ele>210.8</ele>
        <time>2021-11-18T14:42:33Z</time>
      </trkpt>
      <trkpt lat="46.56473" lon="5.34716">
        <ele>211.8</ele>
        <time>2021-11-18T14:42:35Z</time>
      </trkpt>
      <trkpt lat="46.56451" lon="5.34703">
        <ele>213</ele>
        <time>2021-11-18T14:42:39Z</time>
      </trkpt>
      <trkpt lat="46.56441" lon="5.34698">
        <ele>213.6</ele>
        <time>2021-11-18T14:42:41Z</time>
      </trkpt>
      <trkpt lat="46.56431" lon="5.34692">
        <ele>214</ele>
        <time>2021-11-18T14:42:43Z</time>
      </trkpt>
      <trkpt lat="46.56406" lon="5.34678">
        <ele>215.2</ele>
        <time>2021-11-18T14:42:48Z</time>
      </trkpt>
      <trkpt lat="46.56396" lon="5.34675">
        <ele>215.4</ele>
        <time>2021-11-18T14:42:50Z</time>
      </trkpt>
      <trkpt lat="46.56374" lon="5.3467">
        <ele>216</ele>
        <time>2021-11-18T14:42:54Z</time>
      </trkpt>
      <trkpt lat="46.56369" lon="5.34669">
        <ele>216.2</ele>
        <time>2021-11-18T14:42:55Z</time>
      </trkpt>
      <trkpt lat="46.56353" lon="5.34661">
        <ele>216.6</ele>
        <time>2021-11-18T14:42:58Z</time>
      </trkpt>
      <trkpt lat="46.56337" lon="5.34653">
        <ele>217.4</ele>
        <time>2021-11-18T14:43:01Z</time>
      </trkpt>
      <trkpt lat="46.56308" lon="5.34645">
        <ele>217.6</ele>
        <time>2021-11-18T14:43:06Z</time>
      </trkpt>
      <trkpt lat="46.56269" lon="5.34652">
        <ele>217.4</ele>
        <time>2021-11-18T14:43:11Z</time>
      </trkpt>
      <trkpt lat="46.56231" lon="5.34663">
        <ele>216.2</ele>
        <time>2021-11-18T14:43:15Z</time>
      </trkpt>
      <trkpt lat="46.56212" lon="5.34667">
        <ele>215.6</ele>
        <time>2021-11-18T14:43:17Z</time>
      </trkpt>
      <trkpt lat="46.56194" lon="5.34671">
        <ele>215</ele>
        <time>2021-11-18T14:43:19Z</time>
      </trkpt>
      <trkpt lat="46.56154" lon="5.34679">
        <ele>214.2</ele>
        <time>2021-11-18T14:43:23Z</time>
      </trkpt>
      <trkpt lat="46.56143" lon="5.34678">
        <ele>214</ele>
        <time>2021-11-18T14:43:24Z</time>
      </trkpt>
      <trkpt lat="46.56111" lon="5.34673">
        <ele>211.6</ele>
        <time>2021-11-18T14:43:27Z</time>
      </trkpt>
      <trkpt lat="46.56101" lon="5.34671">
        <ele>211</ele>
        <time>2021-11-18T14:43:28Z</time>
      </trkpt>
      <trkpt lat="46.56077" lon="5.34666">
        <ele>210.4</ele>
        <time>2021-11-18T14:43:30Z</time>
      </trkpt>
      <trkpt lat="46.56046" lon="5.34658">
        <ele>209.4</ele>
        <time>2021-11-18T14:43:33Z</time>
      </trkpt>
      <trkpt lat="46.56017" lon="5.3465">
        <ele>208.4</ele>
        <time>2021-11-18T14:43:36Z</time>
      </trkpt>
      <trkpt lat="46.55963" lon="5.34636">
        <ele>207.6</ele>
        <time>2021-11-18T14:43:42Z</time>
      </trkpt>
      <trkpt lat="46.55925" lon="5.34627">
        <ele>207.2</ele>
        <time>2021-11-18T14:43:46Z</time>
      </trkpt>
      <trkpt lat="46.55881" lon="5.34616">
        <ele>207</ele>
        <time>2021-11-18T14:43:51Z</time>
      </trkpt>
      <trkpt lat="46.55825" lon="5.34602">
        <ele>207.4</ele>
        <time>2021-11-18T14:43:58Z</time>
      </trkpt>
      <trkpt lat="46.55818" lon="5.346">
        <ele>207.6</ele>
        <time>2021-11-18T14:43:59Z</time>
      </trkpt>
      <trkpt lat="46.55762" lon="5.34586">
        <ele>208.4</ele>
        <time>2021-11-18T14:44:06Z</time>
      </trkpt>
      <trkpt lat="46.55748" lon="5.34582">
        <ele>208.6</ele>
        <time>2021-11-18T14:44:08Z</time>
      </trkpt>
      <trkpt lat="46.55711" lon="5.34574">
        <ele>209.4</ele>
        <time>2021-11-18T14:44:14Z</time>
      </trkpt>
      <trkpt lat="46.55683" lon="5.34572">
        <ele>210.4</ele>
        <time>2021-11-18T14:44:19Z</time>
      </trkpt>
      <trkpt lat="46.55671" lon="5.34572">
        <ele>211</ele>
        <time>2021-11-18T14:44:21Z</time>
      </trkpt>
      <trkpt lat="46.55661" lon="5.34573">
        <ele>211.8</ele>
        <time>2021-11-18T14:44:23Z</time>
      </trkpt>
      <trkpt lat="46.55646" lon="5.34574">
        <ele>212.8</ele>
        <time>2021-11-18T14:44:26Z</time>
      </trkpt>
      <trkpt lat="46.55636" lon="5.34573">
        <ele>213.4</ele>
        <time>2021-11-18T14:44:28Z</time>
      </trkpt>
      <trkpt lat="46.55627" lon="5.34571">
        <ele>214.2</ele>
        <time>2021-11-18T14:44:30Z</time>
      </trkpt>
      <trkpt lat="46.55604" lon="5.34563">
        <ele>215.6</ele>
        <time>2021-11-18T14:44:35Z</time>
      </trkpt>
      <trkpt lat="46.556" lon="5.34561">
        <ele>215.8</ele>
        <time>2021-11-18T14:44:36Z</time>
      </trkpt>
      <trkpt lat="46.55592" lon="5.34557">
        <ele>216.8</ele>
        <time>2021-11-18T14:44:38Z</time>
      </trkpt>
      <trkpt lat="46.55577" lon="5.34552">
        <ele>217.6</ele>
        <time>2021-11-18T14:44:41Z</time>
      </trkpt>
      <trkpt lat="46.55572" lon="5.3455">
        <ele>218</ele>
        <time>2021-11-18T14:44:42Z</time>
      </trkpt>
      <trkpt lat="46.55547" lon="5.3454">
        <ele>219</ele>
        <time>2021-11-18T14:44:47Z</time>
      </trkpt>
      <trkpt lat="46.55517" lon="5.34522">
        <ele>220.2</ele>
        <time>2021-11-18T14:44:53Z</time>
      </trkpt>
      <trkpt lat="46.55507" lon="5.34514">
        <ele>220.6</ele>
        <time>2021-11-18T14:44:55Z</time>
      </trkpt>
      <trkpt lat="46.55466" lon="5.34475">
        <ele>220.6</ele>
        <time>2021-11-18T14:45:03Z</time>
      </trkpt>
      <trkpt lat="46.55421" lon="5.34428">
        <ele>220.8</ele>
        <time>2021-11-18T14:45:11Z</time>
      </trkpt>
      <trkpt lat="46.55377" lon="5.34382">
        <ele>220.8</ele>
        <time>2021-11-18T14:45:19Z</time>
      </trkpt>
      <trkpt lat="46.55371" lon="5.34376">
        <ele>220.8</ele>
        <time>2021-11-18T14:45:20Z</time>
      </trkpt>
      <trkpt lat="46.55346" lon="5.3435">
        <ele>221.2</ele>
        <time>2021-11-18T14:45:25Z</time>
      </trkpt>
      <trkpt lat="46.55337" lon="5.3434">
        <ele>221.4</ele>
        <time>2021-11-18T14:45:27Z</time>
      </trkpt>
      <trkpt lat="46.55332" lon="5.34334">
        <ele>221.4</ele>
        <time>2021-11-18T14:45:28Z</time>
      </trkpt>
      <trkpt lat="46.55294" lon="5.34293">
        <ele>222.6</ele>
        <time>2021-11-18T14:45:36Z</time>
      </trkpt>
      <trkpt lat="46.5529" lon="5.34288">
        <ele>222.6</ele>
        <time>2021-11-18T14:45:37Z</time>
      </trkpt>
      <trkpt lat="46.55275" lon="5.34271">
        <ele>223.2</ele>
        <time>2021-11-18T14:45:41Z</time>
      </trkpt>
      <trkpt lat="46.55266" lon="5.34263">
        <ele>223.6</ele>
        <time>2021-11-18T14:45:43Z</time>
      </trkpt>
      <trkpt lat="46.55257" lon="5.34251">
        <ele>223.8</ele>
        <time>2021-11-18T14:45:45Z</time>
      </trkpt>
      <trkpt lat="46.55245" lon="5.34228">
        <ele>224.6</ele>
        <time>2021-11-18T14:45:48Z</time>
      </trkpt>
      <trkpt lat="46.5524" lon="5.3421">
        <ele>224.8</ele>
        <time>2021-11-18T14:45:50Z</time>
      </trkpt>
      <trkpt lat="46.55234" lon="5.34171">
        <ele>225.6</ele>
        <time>2021-11-18T14:45:55Z</time>
      </trkpt>
      <trkpt lat="46.55232" lon="5.34154">
        <ele>226</ele>
        <time>2021-11-18T14:45:57Z</time>
      </trkpt>
      <trkpt lat="46.5522" lon="5.34107">
        <ele>226.6</ele>
        <time>2021-11-18T14:46:03Z</time>
      </trkpt>
      <trkpt lat="46.55217" lon="5.34099">
        <ele>226.8</ele>
        <time>2021-11-18T14:46:04Z</time>
      </trkpt>
      <trkpt lat="46.55193" lon="5.34046">
        <ele>226.8</ele>
        <time>2021-11-18T14:46:10Z</time>
      </trkpt>
      <trkpt lat="46.5519" lon="5.34035">
        <ele>226.6</ele>
        <time>2021-11-18T14:46:11Z</time>
      </trkpt>
      <trkpt lat="46.55182" lon="5.34">
        <ele>226.4</ele>
        <time>2021-11-18T14:46:14Z</time>
      </trkpt>
      <trkpt lat="46.55169" lon="5.33966">
        <ele>225.6</ele>
        <time>2021-11-18T14:46:17Z</time>
      </trkpt>
      <trkpt lat="46.55163" lon="5.33955">
        <ele>225.4</ele>
        <time>2021-11-18T14:46:18Z</time>
      </trkpt>
      <trkpt lat="46.55144" lon="5.33922">
        <ele>224.4</ele>
        <time>2021-11-18T14:46:21Z</time>
      </trkpt>
      <trkpt lat="46.5513" lon="5.339">
        <ele>223.8</ele>
        <time>2021-11-18T14:46:23Z</time>
      </trkpt>
      <trkpt lat="46.55123" lon="5.33889">
        <ele>223.2</ele>
        <time>2021-11-18T14:46:24Z</time>
      </trkpt>
      <trkpt lat="46.551" lon="5.33858">
        <ele>221.6</ele>
        <time>2021-11-18T14:46:27Z</time>
      </trkpt>
      <trkpt lat="46.55077" lon="5.33831">
        <ele>220.4</ele>
        <time>2021-11-18T14:46:30Z</time>
      </trkpt>
      <trkpt lat="46.55049" lon="5.33808">
        <ele>219</ele>
        <time>2021-11-18T14:46:33Z</time>
      </trkpt>
      <trkpt lat="46.5503" lon="5.33797">
        <ele>218.2</ele>
        <time>2021-11-18T14:46:35Z</time>
      </trkpt>
      <trkpt lat="46.5502" lon="5.33793">
        <ele>217.8</ele>
        <time>2021-11-18T14:46:36Z</time>
      </trkpt>
      <trkpt lat="46.54981" lon="5.33781">
        <ele>217.2</ele>
        <time>2021-11-18T14:46:40Z</time>
      </trkpt>
      <trkpt lat="46.54952" lon="5.33774">
        <ele>216.6</ele>
        <time>2021-11-18T14:46:43Z</time>
      </trkpt>
      <trkpt lat="46.54915" lon="5.33768">
        <ele>216</ele>
        <time>2021-11-18T14:46:47Z</time>
      </trkpt>
      <trkpt lat="46.54871" lon="5.33773">
        <ele>215.6</ele>
        <time>2021-11-18T14:46:52Z</time>
      </trkpt>
      <trkpt lat="46.54856" lon="5.33776">
        <ele>215.4</ele>
        <time>2021-11-18T14:46:54Z</time>
      </trkpt>
      <trkpt lat="46.54823" lon="5.33778">
        <ele>215.8</ele>
        <time>2021-11-18T14:46:58Z</time>
      </trkpt>
      <trkpt lat="46.54785" lon="5.33775">
        <ele>216.4</ele>
        <time>2021-11-18T14:47:03Z</time>
      </trkpt>
      <trkpt lat="46.54779" lon="5.33774">
        <ele>216.6</ele>
        <time>2021-11-18T14:47:04Z</time>
      </trkpt>
      <trkpt lat="46.54753" lon="5.33775">
        <ele>217.6</ele>
        <time>2021-11-18T14:47:08Z</time>
      </trkpt>
      <trkpt lat="46.5474" lon="5.33776">
        <ele>218</ele>
        <time>2021-11-18T14:47:10Z</time>
      </trkpt>
      <trkpt lat="46.54728" lon="5.33779">
        <ele>218.6</ele>
        <time>2021-11-18T14:47:12Z</time>
      </trkpt>
      <trkpt lat="46.5471" lon="5.33784">
        <ele>219.2</ele>
        <time>2021-11-18T14:47:15Z</time>
      </trkpt>
      <trkpt lat="46.54682" lon="5.33788">
        <ele>219.4</ele>
        <time>2021-11-18T14:47:20Z</time>
      </trkpt>
      <trkpt lat="46.54676" lon="5.33788">
        <ele>219.8</ele>
        <time>2021-11-18T14:47:21Z</time>
      </trkpt>
      <trkpt lat="46.54658" lon="5.33787">
        <ele>220.8</ele>
        <time>2021-11-18T14:47:24Z</time>
      </trkpt>
      <trkpt lat="46.5464" lon="5.33784">
        <ele>221.4</ele>
        <time>2021-11-18T14:47:27Z</time>
      </trkpt>
      <trkpt lat="46.5463" lon="5.33781">
        <ele>221.8</ele>
        <time>2021-11-18T14:47:29Z</time>
      </trkpt>
      <trkpt lat="46.54605" lon="5.33775">
        <ele>222.8</ele>
        <time>2021-11-18T14:47:33Z</time>
      </trkpt>
      <trkpt lat="46.54591" lon="5.3377">
        <ele>223.4</ele>
        <time>2021-11-18T14:47:35Z</time>
      </trkpt>
      <trkpt lat="46.54549" lon="5.33751">
        <ele>223.4</ele>
        <time>2021-11-18T14:47:40Z</time>
      </trkpt>
      <trkpt lat="46.54501" lon="5.33725">
        <ele>221.6</ele>
        <time>2021-11-18T14:47:45Z</time>
      </trkpt>
      <trkpt lat="46.54491" lon="5.33719">
        <ele>220.8</ele>
        <time>2021-11-18T14:47:46Z</time>
      </trkpt>
      <trkpt lat="46.54479" lon="5.33713">
        <ele>220.4</ele>
        <time>2021-11-18T14:47:47Z</time>
      </trkpt>
      <trkpt lat="46.54459" lon="5.33704">
        <ele>219</ele>
        <time>2021-11-18T14:47:49Z</time>
      </trkpt>
      <trkpt lat="46.54438" lon="5.33694">
        <ele>217.6</ele>
        <time>2021-11-18T14:47:51Z</time>
      </trkpt>
      <trkpt lat="46.54424" lon="5.33688">
        <ele>217.2</ele>
        <time>2021-11-18T14:47:52Z</time>
      </trkpt>
      <trkpt lat="46.54415" lon="5.33684">
        <ele>216.4</ele>
        <time>2021-11-18T14:47:53Z</time>
      </trkpt>
      <trkpt lat="46.54393" lon="5.33674">
        <ele>214.8</ele>
        <time>2021-11-18T14:47:55Z</time>
      </trkpt>
      <trkpt lat="46.54368" lon="5.33664">
        <ele>213.2</ele>
        <time>2021-11-18T14:47:57Z</time>
      </trkpt>
      <trkpt lat="46.54349" lon="5.33658">
        <ele>212</ele>
        <time>2021-11-18T14:47:59Z</time>
      </trkpt>
      <trkpt lat="46.54319" lon="5.33654">
        <ele>210.8</ele>
        <time>2021-11-18T14:48:02Z</time>
      </trkpt>
      <trkpt lat="46.543" lon="5.33653">
        <ele>210.8</ele>
        <time>2021-11-18T14:48:04Z</time>
      </trkpt>
      <trkpt lat="46.54249" lon="5.3365">
        <ele>211.2</ele>
        <time>2021-11-18T14:48:10Z</time>
      </trkpt>
      <trkpt lat="46.54241" lon="5.3365">
        <ele>212</ele>
        <time>2021-11-18T14:48:11Z</time>
      </trkpt>
      <trkpt lat="46.54199" lon="5.33649">
        <ele>212.6</ele>
        <time>2021-11-18T14:48:16Z</time>
      </trkpt>
      <trkpt lat="46.54152" lon="5.33643">
        <ele>212.6</ele>
        <time>2021-11-18T14:48:21Z</time>
      </trkpt>
      <trkpt lat="46.54114" lon="5.33627">
        <ele>211.2</ele>
        <time>2021-11-18T14:48:25Z</time>
      </trkpt>
      <trkpt lat="46.54095" lon="5.33615">
        <ele>210.4</ele>
        <time>2021-11-18T14:48:27Z</time>
      </trkpt>
      <trkpt lat="46.54067" lon="5.33598">
        <ele>209</ele>
        <time>2021-11-18T14:48:30Z</time>
      </trkpt>
      <trkpt lat="46.54041" lon="5.33582">
        <ele>208.4</ele>
        <time>2021-11-18T14:48:33Z</time>
      </trkpt>
      <trkpt lat="46.54019" lon="5.33571">
        <ele>208</ele>
        <time>2021-11-18T14:48:36Z</time>
      </trkpt>
      <trkpt lat="46.54012" lon="5.33568">
        <ele>208</ele>
        <time>2021-11-18T14:48:37Z</time>
      </trkpt>
      <trkpt lat="46.54005" lon="5.33567">
        <ele>208</ele>
        <time>2021-11-18T14:48:38Z</time>
      </trkpt>
      <trkpt lat="46.53987" lon="5.33564">
        <ele>209.2</ele>
        <time>2021-11-18T14:48:41Z</time>
      </trkpt>
      <trkpt lat="46.53981" lon="5.33564">
        <ele>209.6</ele>
        <time>2021-11-18T14:48:42Z</time>
      </trkpt>
      <trkpt lat="46.5397" lon="5.33563">
        <ele>210.2</ele>
        <time>2021-11-18T14:48:44Z</time>
      </trkpt>
      <trkpt lat="46.53955" lon="5.33562">
        <ele>211.6</ele>
        <time>2021-11-18T14:48:47Z</time>
      </trkpt>
      <trkpt lat="46.53941" lon="5.33561">
        <ele>212.8</ele>
        <time>2021-11-18T14:48:50Z</time>
      </trkpt>
      <trkpt lat="46.53922" lon="5.33559">
        <ele>214.2</ele>
        <time>2021-11-18T14:48:54Z</time>
      </trkpt>
      <trkpt lat="46.53913" lon="5.33558">
        <ele>215</ele>
        <time>2021-11-18T14:48:56Z</time>
      </trkpt>
      <trkpt lat="46.53904" lon="5.33557">
        <ele>215.4</ele>
        <time>2021-11-18T14:48:58Z</time>
      </trkpt>
      <trkpt lat="46.53881" lon="5.33554">
        <ele>216.6</ele>
        <time>2021-11-18T14:49:03Z</time>
      </trkpt>
      <trkpt lat="46.53867" lon="5.33552">
        <ele>217.6</ele>
        <time>2021-11-18T14:49:06Z</time>
      </trkpt>
      <trkpt lat="46.53852" lon="5.33548">
        <ele>218.4</ele>
        <time>2021-11-18T14:49:09Z</time>
      </trkpt>
      <trkpt lat="46.53847" lon="5.33547">
        <ele>219</ele>
        <time>2021-11-18T14:49:10Z</time>
      </trkpt>
      <trkpt lat="46.53838" lon="5.33541">
        <ele>219.4</ele>
        <time>2021-11-18T14:49:12Z</time>
      </trkpt>
      <trkpt lat="46.53822" lon="5.33532">
        <ele>220</ele>
        <time>2021-11-18T14:49:15Z</time>
      </trkpt>
      <trkpt lat="46.53805" lon="5.33523">
        <ele>220.4</ele>
        <time>2021-11-18T14:49:18Z</time>
      </trkpt>
      <trkpt lat="46.53767" lon="5.33497">
        <ele>221</ele>
        <time>2021-11-18T14:49:25Z</time>
      </trkpt>
      <trkpt lat="46.53761" lon="5.33494">
        <ele>221.2</ele>
        <time>2021-11-18T14:49:26Z</time>
      </trkpt>
      <trkpt lat="46.53729" lon="5.33481">
        <ele>221.8</ele>
        <time>2021-11-18T14:49:32Z</time>
      </trkpt>
      <trkpt lat="46.53725" lon="5.33479">
        <ele>222.2</ele>
        <time>2021-11-18T14:49:33Z</time>
      </trkpt>
      <trkpt lat="46.53716" lon="5.33474">
        <ele>222.6</ele>
        <time>2021-11-18T14:49:36Z</time>
      </trkpt>
      <trkpt lat="46.53713" lon="5.3347">
        <ele>222.8</ele>
        <time>2021-11-18T14:49:38Z</time>
      </trkpt>
      <trkpt lat="46.53711" lon="5.33465">
        <ele>223.2</ele>
        <time>2021-11-18T14:49:40Z</time>
      </trkpt>
      <trkpt lat="46.5371" lon="5.3346">
        <ele>223.4</ele>
        <time>2021-11-18T14:49:42Z</time>
      </trkpt>
      <trkpt lat="46.53705" lon="5.33457">
        <ele>223.6</ele>
        <time>2021-11-18T14:49:44Z</time>
      </trkpt>
      <trkpt lat="46.53689" lon="5.33471">
        <ele>223.8</ele>
        <time>2021-11-18T14:49:48Z</time>
      </trkpt>
      <trkpt lat="46.53663" lon="5.33496">
        <ele>224</ele>
        <time>2021-11-18T14:49:53Z</time>
      </trkpt>
      <trkpt lat="46.53645" lon="5.33511">
        <ele>223.8</ele>
        <time>2021-11-18T14:49:56Z</time>
      </trkpt>
      <trkpt lat="46.53632" lon="5.33515">
        <ele>223.8</ele>
        <time>2021-11-18T14:49:58Z</time>
      </trkpt>
      <trkpt lat="46.53622" lon="5.33503">
        <ele>223.4</ele>
        <time>2021-11-18T14:50:00Z</time>
      </trkpt>
      <trkpt lat="46.53586" lon="5.33452">
        <ele>223</ele>
        <time>2021-11-18T14:50:07Z</time>
      </trkpt>
      <trkpt lat="46.53543" lon="5.33391">
        <ele>224</ele>
        <time>2021-11-18T14:50:16Z</time>
      </trkpt>
      <trkpt lat="46.53538" lon="5.33384">
        <ele>224.4</ele>
        <time>2021-11-18T14:50:17Z</time>
      </trkpt>
      <trkpt lat="46.53519" lon="5.33357">
        <ele>225.4</ele>
        <time>2021-11-18T14:50:21Z</time>
      </trkpt>
      <trkpt lat="46.53495" lon="5.33321">
        <ele>226.2</ele>
        <time>2021-11-18T14:50:26Z</time>
      </trkpt>
      <trkpt lat="46.5348" lon="5.333">
        <ele>226.4</ele>
        <time>2021-11-18T14:50:29Z</time>
      </trkpt>
      <trkpt lat="46.53459" lon="5.33271">
        <ele>227.2</ele>
        <time>2021-11-18T14:50:33Z</time>
      </trkpt>
      <trkpt lat="46.53438" lon="5.33241">
        <ele>227.4</ele>
        <time>2021-11-18T14:50:37Z</time>
      </trkpt>
      <trkpt lat="46.53411" lon="5.33204">
        <ele>227.6</ele>
        <time>2021-11-18T14:50:42Z</time>
      </trkpt>
      <trkpt lat="46.53369" lon="5.33145">
        <ele>227.8</ele>
        <time>2021-11-18T14:50:50Z</time>
      </trkpt>
      <trkpt lat="46.53359" lon="5.33132">
        <ele>228</ele>
        <time>2021-11-18T14:50:52Z</time>
      </trkpt>
      <trkpt lat="46.53315" lon="5.33072">
        <ele>227.8</ele>
        <time>2021-11-18T14:51:00Z</time>
      </trkpt>
      <trkpt lat="46.53304" lon="5.33056">
        <ele>227.6</ele>
        <time>2021-11-18T14:51:02Z</time>
      </trkpt>
      <trkpt lat="46.53275" lon="5.33007">
        <ele>227.6</ele>
        <time>2021-11-18T14:51:08Z</time>
      </trkpt>
      <trkpt lat="46.53242" lon="5.32941">
        <ele>227.2</ele>
        <time>2021-11-18T14:51:15Z</time>
      </trkpt>
      <trkpt lat="46.53227" lon="5.32911">
        <ele>226.4</ele>
        <time>2021-11-18T14:51:18Z</time>
      </trkpt>
      <trkpt lat="46.53211" lon="5.32881">
        <ele>225.2</ele>
        <time>2021-11-18T14:51:21Z</time>
      </trkpt>
      <trkpt lat="46.53193" lon="5.32848">
        <ele>224.4</ele>
        <time>2021-11-18T14:51:24Z</time>
      </trkpt>
      <trkpt lat="46.53188" lon="5.32837">
        <ele>223.8</ele>
        <time>2021-11-18T14:51:25Z</time>
      </trkpt>
      <trkpt lat="46.53175" lon="5.32815">
        <ele>222.6</ele>
        <time>2021-11-18T14:51:27Z</time>
      </trkpt>
      <trkpt lat="46.53162" lon="5.32792">
        <ele>221.6</ele>
        <time>2021-11-18T14:51:29Z</time>
      </trkpt>
      <trkpt lat="46.53148" lon="5.32771">
        <ele>220.6</ele>
        <time>2021-11-18T14:51:31Z</time>
      </trkpt>
      <trkpt lat="46.53123" lon="5.3274">
        <ele>219.4</ele>
        <time>2021-11-18T14:51:34Z</time>
      </trkpt>
      <trkpt lat="46.53105" lon="5.3272">
        <ele>218.2</ele>
        <time>2021-11-18T14:51:36Z</time>
      </trkpt>
      <trkpt lat="46.53078" lon="5.32689">
        <ele>217</ele>
        <time>2021-11-18T14:51:39Z</time>
      </trkpt>
      <trkpt lat="46.5306" lon="5.32669">
        <ele>216.2</ele>
        <time>2021-11-18T14:51:41Z</time>
      </trkpt>
      <trkpt lat="46.5305" lon="5.32658">
        <ele>215.8</ele>
        <time>2021-11-18T14:51:42Z</time>
      </trkpt>
      <trkpt lat="46.53031" lon="5.32637">
        <ele>214.6</ele>
        <time>2021-11-18T14:51:44Z</time>
      </trkpt>
      <trkpt lat="46.53022" lon="5.32626">
        <ele>213.4</ele>
        <time>2021-11-18T14:51:45Z</time>
      </trkpt>
      <trkpt lat="46.53012" lon="5.32616">
        <ele>212.2</ele>
        <time>2021-11-18T14:51:46Z</time>
      </trkpt>
      <trkpt lat="46.52993" lon="5.32595">
        <ele>211</ele>
        <time>2021-11-18T14:51:48Z</time>
      </trkpt>
      <trkpt lat="46.52983" lon="5.32585">
        <ele>210.6</ele>
        <time>2021-11-18T14:51:49Z</time>
      </trkpt>
      <trkpt lat="46.52973" lon="5.32575">
        <ele>209.8</ele>
        <time>2021-11-18T14:51:50Z</time>
      </trkpt>
      <trkpt lat="46.52954" lon="5.32556">
        <ele>208.4</ele>
        <time>2021-11-18T14:51:52Z</time>
      </trkpt>
      <trkpt lat="46.52936" lon="5.32537">
        <ele>207</ele>
        <time>2021-11-18T14:51:54Z</time>
      </trkpt>
      <trkpt lat="46.52918" lon="5.32519">
        <ele>205.6</ele>
        <time>2021-11-18T14:51:56Z</time>
      </trkpt>
      <trkpt lat="46.52909" lon="5.3251">
        <ele>204.8</ele>
        <time>2021-11-18T14:51:57Z</time>
      </trkpt>
      <trkpt lat="46.52894" lon="5.32495">
        <ele>204.4</ele>
        <time>2021-11-18T14:51:59Z</time>
      </trkpt>
      <trkpt lat="46.52861" lon="5.32461">
        <ele>203.4</ele>
        <time>2021-11-18T14:52:03Z</time>
      </trkpt>
      <trkpt lat="46.52855" lon="5.32454">
        <ele>203.2</ele>
        <time>2021-11-18T14:52:04Z</time>
      </trkpt>
      <trkpt lat="46.52811" lon="5.32407">
        <ele>202.8</ele>
        <time>2021-11-18T14:52:10Z</time>
      </trkpt>
      <trkpt lat="46.52764" lon="5.32355">
        <ele>202.8</ele>
        <time>2021-11-18T14:52:17Z</time>
      </trkpt>
      <trkpt lat="46.52744" lon="5.32332">
        <ele>202.8</ele>
        <time>2021-11-18T14:52:20Z</time>
      </trkpt>
      <trkpt lat="46.52699" lon="5.32277">
        <ele>202.6</ele>
        <time>2021-11-18T14:52:27Z</time>
      </trkpt>
      <trkpt lat="46.52686" lon="5.32262">
        <ele>202.6</ele>
        <time>2021-11-18T14:52:29Z</time>
      </trkpt>
      <trkpt lat="46.52645" lon="5.32226">
        <ele>202.6</ele>
        <time>2021-11-18T14:52:35Z</time>
      </trkpt>
      <trkpt lat="46.52609" lon="5.32206">
        <ele>203.2</ele>
        <time>2021-11-18T14:52:41Z</time>
      </trkpt>
      <trkpt lat="46.52588" lon="5.32196">
        <ele>204.4</ele>
        <time>2021-11-18T14:52:45Z</time>
      </trkpt>
      <trkpt lat="46.52572" lon="5.32188">
        <ele>205.2</ele>
        <time>2021-11-18T14:52:48Z</time>
      </trkpt>
      <trkpt lat="46.52568" lon="5.32186">
        <ele>205.6</ele>
        <time>2021-11-18T14:52:49Z</time>
      </trkpt>
      <trkpt lat="46.52552" lon="5.32176">
        <ele>206.4</ele>
        <time>2021-11-18T14:52:52Z</time>
      </trkpt>
      <trkpt lat="46.52549" lon="5.32173">
        <ele>206.6</ele>
        <time>2021-11-18T14:52:53Z</time>
      </trkpt>
      <trkpt lat="46.52545" lon="5.3217">
        <ele>207</ele>
        <time>2021-11-18T14:52:54Z</time>
      </trkpt>
      <trkpt lat="46.52528" lon="5.32152">
        <ele>208</ele>
        <time>2021-11-18T14:52:58Z</time>
      </trkpt>
      <trkpt lat="46.5252" lon="5.32141">
        <ele>208.6</ele>
        <time>2021-11-18T14:53:00Z</time>
      </trkpt>
      <trkpt lat="46.52513" lon="5.32131">
        <ele>209.2</ele>
        <time>2021-11-18T14:53:02Z</time>
      </trkpt>
      <trkpt lat="46.52498" lon="5.32109">
        <ele>210.2</ele>
        <time>2021-11-18T14:53:06Z</time>
      </trkpt>
      <trkpt lat="46.52494" lon="5.32104">
        <ele>210.4</ele>
        <time>2021-11-18T14:53:07Z</time>
      </trkpt>
      <trkpt lat="46.5249" lon="5.32099">
        <ele>210.8</ele>
        <time>2021-11-18T14:53:08Z</time>
      </trkpt>
      <trkpt lat="46.52476" lon="5.32079">
        <ele>211.6</ele>
        <time>2021-11-18T14:53:12Z</time>
      </trkpt>
      <trkpt lat="46.52458" lon="5.32054">
        <ele>212.6</ele>
        <time>2021-11-18T14:53:17Z</time>
      </trkpt>
      <trkpt lat="46.52447" lon="5.32039">
        <ele>213.4</ele>
        <time>2021-11-18T14:53:20Z</time>
      </trkpt>
      <trkpt lat="46.52441" lon="5.32029">
        <ele>213.8</ele>
        <time>2021-11-18T14:53:22Z</time>
      </trkpt>
      <trkpt lat="46.52419" lon="5.32001">
        <ele>214.8</ele>
        <time>2021-11-18T14:53:28Z</time>
      </trkpt>
      <trkpt lat="46.52416" lon="5.31996">
        <ele>215</ele>
        <time>2021-11-18T14:53:29Z</time>
      </trkpt>
      <trkpt lat="46.52394" lon="5.31966">
        <ele>215.8</ele>
        <time>2021-11-18T14:53:35Z</time>
      </trkpt>
      <trkpt lat="46.52377" lon="5.31942">
        <ele>216.4</ele>
        <time>2021-11-18T14:53:40Z</time>
      </trkpt>
      <trkpt lat="46.5237" lon="5.31932">
        <ele>217</ele>
        <time>2021-11-18T14:53:42Z</time>
      </trkpt>
      <trkpt lat="46.52363" lon="5.31922">
        <ele>217.4</ele>
        <time>2021-11-18T14:53:44Z</time>
      </trkpt>
      <trkpt lat="46.52351" lon="5.31908">
        <ele>217.8</ele>
        <time>2021-11-18T14:53:47Z</time>
      </trkpt>
      <trkpt lat="46.52348" lon="5.31902">
        <ele>218.4</ele>
        <time>2021-11-18T14:53:48Z</time>
      </trkpt>
      <trkpt lat="46.52328" lon="5.31872">
        <ele>219</ele>
        <time>2021-11-18T14:53:53Z</time>
      </trkpt>
      <trkpt lat="46.52302" lon="5.31835">
        <ele>218.4</ele>
        <time>2021-11-18T14:53:58Z</time>
      </trkpt>
      <trkpt lat="46.52261" lon="5.31775">
        <ele>217.2</ele>
        <time>2021-11-18T14:54:05Z</time>
      </trkpt>
      <trkpt lat="46.52255" lon="5.31767">
        <ele>216.8</ele>
        <time>2021-11-18T14:54:06Z</time>
      </trkpt>
      <trkpt lat="46.52238" lon="5.3174">
        <ele>215.8</ele>
        <time>2021-11-18T14:54:09Z</time>
      </trkpt>
      <trkpt lat="46.52212" lon="5.31705">
        <ele>214.8</ele>
        <time>2021-11-18T14:54:13Z</time>
      </trkpt>
      <trkpt lat="46.52199" lon="5.31687">
        <ele>214.2</ele>
        <time>2021-11-18T14:54:15Z</time>
      </trkpt>
      <trkpt lat="46.5218" lon="5.31658">
        <ele>213.6</ele>
        <time>2021-11-18T14:54:18Z</time>
      </trkpt>
      <trkpt lat="46.52153" lon="5.3162">
        <ele>212.6</ele>
        <time>2021-11-18T14:54:22Z</time>
      </trkpt>
      <trkpt lat="46.52146" lon="5.31611">
        <ele>212.4</ele>
        <time>2021-11-18T14:54:23Z</time>
      </trkpt>
      <trkpt lat="46.52112" lon="5.31563">
        <ele>211.4</ele>
        <time>2021-11-18T14:54:28Z</time>
      </trkpt>
      <trkpt lat="46.52097" lon="5.31544">
        <ele>210.8</ele>
        <time>2021-11-18T14:54:30Z</time>
      </trkpt>
      <trkpt lat="46.52083" lon="5.31524">
        <ele>209.6</ele>
        <time>2021-11-18T14:54:32Z</time>
      </trkpt>
      <trkpt lat="46.52063" lon="5.31493">
        <ele>208.8</ele>
        <time>2021-11-18T14:54:35Z</time>
      </trkpt>
      <trkpt lat="46.52056" lon="5.31482">
        <ele>208.2</ele>
        <time>2021-11-18T14:54:36Z</time>
      </trkpt>
      <trkpt lat="46.52022" lon="5.31433">
        <ele>206.8</ele>
        <time>2021-11-18T14:54:41Z</time>
      </trkpt>
      <trkpt lat="46.52015" lon="5.31423">
        <ele>206.6</ele>
        <time>2021-11-18T14:54:42Z</time>
      </trkpt>
      <trkpt lat="46.51989" lon="5.31384">
        <ele>205.6</ele>
        <time>2021-11-18T14:54:46Z</time>
      </trkpt>
      <trkpt lat="46.51976" lon="5.31365">
        <ele>204.8</ele>
        <time>2021-11-18T14:54:48Z</time>
      </trkpt>
      <trkpt lat="46.51964" lon="5.31346">
        <ele>204.6</ele>
        <time>2021-11-18T14:54:50Z</time>
      </trkpt>
      <trkpt lat="46.51927" lon="5.31292">
        <ele>204</ele>
        <time>2021-11-18T14:54:56Z</time>
      </trkpt>
      <trkpt lat="46.51921" lon="5.31283">
        <ele>203.6</ele>
        <time>2021-11-18T14:54:57Z</time>
      </trkpt>
      <trkpt lat="46.5188" lon="5.31222">
        <ele>202.8</ele>
        <time>2021-11-18T14:55:04Z</time>
      </trkpt>
      <trkpt lat="46.51857" lon="5.31193">
        <ele>202.6</ele>
        <time>2021-11-18T14:55:08Z</time>
      </trkpt>
      <trkpt lat="46.5185" lon="5.31187">
        <ele>202.6</ele>
        <time>2021-11-18T14:55:09Z</time>
      </trkpt>
      <trkpt lat="46.51836" lon="5.3118">
        <ele>202.8</ele>
        <time>2021-11-18T14:55:11Z</time>
      </trkpt>
      <trkpt lat="46.51822" lon="5.31176">
        <ele>202.8</ele>
        <time>2021-11-18T14:55:13Z</time>
      </trkpt>
      <trkpt lat="46.51783" lon="5.31174">
        <ele>203.8</ele>
        <time>2021-11-18T14:55:19Z</time>
      </trkpt>
      <trkpt lat="46.51753" lon="5.31174">
        <ele>204.8</ele>
        <time>2021-11-18T14:55:24Z</time>
      </trkpt>
      <trkpt lat="46.51748" lon="5.31173">
        <ele>204.8</ele>
        <time>2021-11-18T14:55:25Z</time>
      </trkpt>
      <trkpt lat="46.51731" lon="5.3117">
        <ele>206</ele>
        <time>2021-11-18T14:55:28Z</time>
      </trkpt>
      <trkpt lat="46.5172" lon="5.31165">
        <ele>206.6</ele>
        <time>2021-11-18T14:55:30Z</time>
      </trkpt>
      <trkpt lat="46.51715" lon="5.31162">
        <ele>207.2</ele>
        <time>2021-11-18T14:55:31Z</time>
      </trkpt>
      <trkpt lat="46.51696" lon="5.31145">
        <ele>208.2</ele>
        <time>2021-11-18T14:55:35Z</time>
      </trkpt>
      <trkpt lat="46.51688" lon="5.31135">
        <ele>208.6</ele>
        <time>2021-11-18T14:55:37Z</time>
      </trkpt>
      <trkpt lat="46.5168" lon="5.31123">
        <ele>209.2</ele>
        <time>2021-11-18T14:55:39Z</time>
      </trkpt>
      <trkpt lat="46.51677" lon="5.31116">
        <ele>209.6</ele>
        <time>2021-11-18T14:55:40Z</time>
      </trkpt>
      <trkpt lat="46.5167" lon="5.31104">
        <ele>210</ele>
        <time>2021-11-18T14:55:42Z</time>
      </trkpt>
      <trkpt lat="46.51661" lon="5.31099">
        <ele>210.2</ele>
        <time>2021-11-18T14:55:44Z</time>
      </trkpt>
      <trkpt lat="46.51655" lon="5.31099">
        <ele>210.4</ele>
        <time>2021-11-18T14:55:45Z</time>
      </trkpt>
      <trkpt lat="46.51645" lon="5.31101">
        <ele>210.6</ele>
        <time>2021-11-18T14:55:47Z</time>
      </trkpt>
      <trkpt lat="46.51639" lon="5.31102">
        <ele>210.6</ele>
        <time>2021-11-18T14:55:48Z</time>
      </trkpt>
      <trkpt lat="46.51633" lon="5.31101">
        <ele>210.6</ele>
        <time>2021-11-18T14:55:49Z</time>
      </trkpt>
      <trkpt lat="46.51627" lon="5.31098">
        <ele>210.6</ele>
        <time>2021-11-18T14:55:50Z</time>
      </trkpt>
      <trkpt lat="46.5159" lon="5.31081">
        <ele>210.2</ele>
        <time>2021-11-18T14:55:55Z</time>
      </trkpt>
      <trkpt lat="46.51553" lon="5.31073">
        <ele>209.6</ele>
        <time>2021-11-18T14:56:00Z</time>
      </trkpt>
      <trkpt lat="46.51545" lon="5.31073">
        <ele>209.4</ele>
        <time>2021-11-18T14:56:01Z</time>
      </trkpt>
      <trkpt lat="46.5149" lon="5.31071">
        <ele>208.4</ele>
        <time>2021-11-18T14:56:08Z</time>
      </trkpt>
      <trkpt lat="46.51482" lon="5.3107">
        <ele>208.4</ele>
        <time>2021-11-18T14:56:09Z</time>
      </trkpt>
      <trkpt lat="46.51427" lon="5.31069">
        <ele>208.4</ele>
        <time>2021-11-18T14:56:16Z</time>
      </trkpt>
      <trkpt lat="46.51366" lon="5.31072">
        <ele>207.8</ele>
        <time>2021-11-18T14:56:24Z</time>
      </trkpt>
      <trkpt lat="46.51359" lon="5.31073">
        <ele>208</ele>
        <time>2021-11-18T14:56:25Z</time>
      </trkpt>
      <trkpt lat="46.51304" lon="5.31076">
        <ele>208.2</ele>
        <time>2021-11-18T14:56:32Z</time>
      </trkpt>
      <trkpt lat="46.51296" lon="5.31076">
        <ele>208.2</ele>
        <time>2021-11-18T14:56:33Z</time>
      </trkpt>
      <trkpt lat="46.51271" lon="5.31078">
        <ele>208.2</ele>
        <time>2021-11-18T14:56:36Z</time>
      </trkpt>
      <trkpt lat="46.51257" lon="5.31082">
        <ele>208.2</ele>
        <time>2021-11-18T14:56:38Z</time>
      </trkpt>
      <trkpt lat="46.5125" lon="5.31086">
        <ele>208.2</ele>
        <time>2021-11-18T14:56:39Z</time>
      </trkpt>
      <trkpt lat="46.51243" lon="5.31091">
        <ele>208.2</ele>
        <time>2021-11-18T14:56:40Z</time>
      </trkpt>
      <trkpt lat="46.51226" lon="5.31111">
        <ele>208.2</ele>
        <time>2021-11-18T14:56:43Z</time>
      </trkpt>
      <trkpt lat="46.51216" lon="5.31124">
        <ele>208.2</ele>
        <time>2021-11-18T14:56:45Z</time>
      </trkpt>
      <trkpt lat="46.51197" lon="5.3115">
        <ele>208.4</ele>
        <time>2021-11-18T14:56:49Z</time>
      </trkpt>
      <trkpt lat="46.51176" lon="5.31176">
        <ele>209.6</ele>
        <time>2021-11-18T14:56:53Z</time>
      </trkpt>
      <trkpt lat="46.51172" lon="5.31182">
        <ele>209.8</ele>
        <time>2021-11-18T14:56:54Z</time>
      </trkpt>
      <trkpt lat="46.5116" lon="5.31196">
        <ele>210</ele>
        <time>2021-11-18T14:56:56Z</time>
      </trkpt>
      <trkpt lat="46.51151" lon="5.31208">
        <ele>210.2</ele>
        <time>2021-11-18T14:56:58Z</time>
      </trkpt>
      <trkpt lat="46.51145" lon="5.31214">
        <ele>210.4</ele>
        <time>2021-11-18T14:56:59Z</time>
      </trkpt>
      <trkpt lat="46.51118" lon="5.31247">
        <ele>210.6</ele>
        <time>2021-11-18T14:57:04Z</time>
      </trkpt>
      <trkpt lat="46.51093" lon="5.31278">
        <ele>211.2</ele>
        <time>2021-11-18T14:57:09Z</time>
      </trkpt>
      <trkpt lat="46.51076" lon="5.31301">
        <ele>211.8</ele>
        <time>2021-11-18T14:57:13Z</time>
      </trkpt>
      <trkpt lat="46.51072" lon="5.31308">
        <ele>211.8</ele>
        <time>2021-11-18T14:57:14Z</time>
      </trkpt>
      <trkpt lat="46.51068" lon="5.31321">
        <ele>212.4</ele>
        <time>2021-11-18T14:57:16Z</time>
      </trkpt>
      <trkpt lat="46.51067" lon="5.31329">
        <ele>212.6</ele>
        <time>2021-11-18T14:57:17Z</time>
      </trkpt>
      <trkpt lat="46.51066" lon="5.31337">
        <ele>213</ele>
        <time>2021-11-18T14:57:18Z</time>
      </trkpt>
      <trkpt lat="46.51066" lon="5.31345">
        <ele>213.2</ele>
        <time>2021-11-18T14:57:19Z</time>
      </trkpt>
      <trkpt lat="46.51066" lon="5.31353">
        <ele>213.6</ele>
        <time>2021-11-18T14:57:20Z</time>
      </trkpt>
      <trkpt lat="46.51067" lon="5.31377">
        <ele>214.6</ele>
        <time>2021-11-18T14:57:23Z</time>
      </trkpt>
      <trkpt lat="46.51066" lon="5.31385">
        <ele>214.8</ele>
        <time>2021-11-18T14:57:24Z</time>
      </trkpt>
      <trkpt lat="46.51061" lon="5.31423">
        <ele>215.6</ele>
        <time>2021-11-18T14:57:29Z</time>
      </trkpt>
      <trkpt lat="46.51057" lon="5.31439">
        <ele>215.8</ele>
        <time>2021-11-18T14:57:31Z</time>
      </trkpt>
      <trkpt lat="46.51049" lon="5.31477">
        <ele>217</ele>
        <time>2021-11-18T14:57:36Z</time>
      </trkpt>
      <trkpt lat="46.51048" lon="5.31482">
        <ele>217</ele>
        <time>2021-11-18T14:57:37Z</time>
      </trkpt>
      <trkpt lat="46.5104" lon="5.31518">
        <ele>218.2</ele>
        <time>2021-11-18T14:57:42Z</time>
      </trkpt>
      <trkpt lat="46.51031" lon="5.31545">
        <ele>219</ele>
        <time>2021-11-18T14:57:46Z</time>
      </trkpt>
      <trkpt lat="46.51028" lon="5.31551">
        <ele>219.4</ele>
        <time>2021-11-18T14:57:47Z</time>
      </trkpt>
      <trkpt lat="46.51025" lon="5.31557">
        <ele>219.6</ele>
        <time>2021-11-18T14:57:48Z</time>
      </trkpt>
      <trkpt lat="46.51009" lon="5.31577">
        <ele>220.2</ele>
        <time>2021-11-18T14:57:52Z</time>
      </trkpt>
      <trkpt lat="46.50994" lon="5.31592">
        <ele>220.4</ele>
        <time>2021-11-18T14:57:55Z</time>
      </trkpt>
      <trkpt lat="46.50972" lon="5.31614">
        <ele>220.6</ele>
        <time>2021-11-18T14:57:59Z</time>
      </trkpt>
      <trkpt lat="46.50933" lon="5.31654">
        <ele>220</ele>
        <time>2021-11-18T14:58:06Z</time>
      </trkpt>
      <trkpt lat="46.50904" lon="5.31684">
        <ele>220</ele>
        <time>2021-11-18T14:58:12Z</time>
      </trkpt>
      <trkpt lat="46.509" lon="5.31688">
        <ele>220.2</ele>
        <time>2021-11-18T14:58:13Z</time>
      </trkpt>
      <trkpt lat="46.50883" lon="5.31706">
        <ele>221</ele>
        <time>2021-11-18T14:58:17Z</time>
      </trkpt>
      <trkpt lat="46.50856" lon="5.31733">
        <ele>221.4</ele>
        <time>2021-11-18T14:58:23Z</time>
      </trkpt>
      <trkpt lat="46.50843" lon="5.31746">
        <ele>221.6</ele>
        <time>2021-11-18T14:58:28Z</time>
      </trkpt>
      <trkpt lat="46.50843" lon="5.31746">
        <ele>221.6</ele>
        <time>2021-11-18T14:58:29Z</time>
      </trkpt>
      <trkpt lat="46.5084" lon="5.31744">
        <ele>221.2</ele>
        <time>2021-11-18T14:59:26Z</time>
      </trkpt>
      <trkpt lat="46.5083" lon="5.31741">
        <ele>221.2</ele>
        <time>2021-11-18T14:59:28Z</time>
      </trkpt>
      <trkpt lat="46.50824" lon="5.31738">
        <ele>221.2</ele>
        <time>2021-11-18T14:59:29Z</time>
      </trkpt>
      <trkpt lat="46.50811" lon="5.31729">
        <ele>221.2</ele>
        <time>2021-11-18T14:59:31Z</time>
      </trkpt>
      <trkpt lat="46.50775" lon="5.31703">
        <ele>220.8</ele>
        <time>2021-11-18T14:59:36Z</time>
      </trkpt>
      <trkpt lat="46.50757" lon="5.31699">
        <ele>220.8</ele>
        <time>2021-11-18T14:59:38Z</time>
      </trkpt>
      <trkpt lat="46.5075" lon="5.317">
        <ele>220.6</ele>
        <time>2021-11-18T14:59:39Z</time>
      </trkpt>
      <trkpt lat="46.50696" lon="5.31706">
        <ele>220.4</ele>
        <time>2021-11-18T14:59:46Z</time>
      </trkpt>
      <trkpt lat="46.50667" lon="5.31711">
        <ele>220.4</ele>
        <time>2021-11-18T14:59:50Z</time>
      </trkpt>
      <trkpt lat="46.50653" lon="5.31719">
        <ele>220.6</ele>
        <time>2021-11-18T14:59:52Z</time>
      </trkpt>
      <trkpt lat="46.50643" lon="5.31734">
        <ele>220.6</ele>
        <time>2021-11-18T14:59:54Z</time>
      </trkpt>
      <trkpt lat="46.50638" lon="5.31743">
        <ele>220.6</ele>
        <time>2021-11-18T14:59:55Z</time>
      </trkpt>
      <trkpt lat="46.5062" lon="5.3179">
        <ele>220.4</ele>
        <time>2021-11-18T15:00:00Z</time>
      </trkpt>
      <trkpt lat="46.50617" lon="5.31799">
        <ele>220.2</ele>
        <time>2021-11-18T15:00:01Z</time>
      </trkpt>
      <trkpt lat="46.50591" lon="5.31874">
        <ele>219.8</ele>
        <time>2021-11-18T15:00:08Z</time>
      </trkpt>
      <trkpt lat="46.50582" lon="5.31896">
        <ele>219.2</ele>
        <time>2021-11-18T15:00:10Z</time>
      </trkpt>
      <trkpt lat="46.5057" lon="5.31932">
        <ele>218.2</ele>
        <time>2021-11-18T15:00:13Z</time>
      </trkpt>
      <trkpt lat="46.50566" lon="5.31945">
        <ele>217.8</ele>
        <time>2021-11-18T15:00:14Z</time>
      </trkpt>
      <trkpt lat="46.50557" lon="5.3197">
        <ele>217</ele>
        <time>2021-11-18T15:00:16Z</time>
      </trkpt>
      <trkpt lat="46.50551" lon="5.31982">
        <ele>216.4</ele>
        <time>2021-11-18T15:00:17Z</time>
      </trkpt>
      <trkpt lat="46.50545" lon="5.31993">
        <ele>216.2</ele>
        <time>2021-11-18T15:00:18Z</time>
      </trkpt>
      <trkpt lat="46.50538" lon="5.32004">
        <ele>215.6</ele>
        <time>2021-11-18T15:00:19Z</time>
      </trkpt>
      <trkpt lat="46.50516" lon="5.32035">
        <ele>214.4</ele>
        <time>2021-11-18T15:00:22Z</time>
      </trkpt>
      <trkpt lat="46.5051" lon="5.32046">
        <ele>213.6</ele>
        <time>2021-11-18T15:00:23Z</time>
      </trkpt>
      <trkpt lat="46.50503" lon="5.32059">
        <ele>213</ele>
        <time>2021-11-18T15:00:24Z</time>
      </trkpt>
      <trkpt lat="46.50489" lon="5.32088">
        <ele>212</ele>
        <time>2021-11-18T15:00:27Z</time>
      </trkpt>
      <trkpt lat="46.50485" lon="5.32099">
        <ele>211.8</ele>
        <time>2021-11-18T15:00:28Z</time>
      </trkpt>
      <trkpt lat="46.50478" lon="5.3212">
        <ele>211.6</ele>
        <time>2021-11-18T15:00:30Z</time>
      </trkpt>
      <trkpt lat="46.50472" lon="5.32141">
        <ele>211.4</ele>
        <time>2021-11-18T15:00:32Z</time>
      </trkpt>
      <trkpt lat="46.50462" lon="5.3217">
        <ele>211.2</ele>
        <time>2021-11-18T15:00:35Z</time>
      </trkpt>
      <trkpt lat="46.50453" lon="5.32184">
        <ele>211</ele>
        <time>2021-11-18T15:00:37Z</time>
      </trkpt>
      <trkpt lat="46.50443" lon="5.32192">
        <ele>211</ele>
        <time>2021-11-18T15:00:39Z</time>
      </trkpt>
      <trkpt lat="46.50439" lon="5.32193">
        <ele>211</ele>
        <time>2021-11-18T15:00:40Z</time>
      </trkpt>
      <trkpt lat="46.50432" lon="5.32192">
        <ele>210.8</ele>
        <time>2021-11-18T15:00:43Z</time>
      </trkpt>
      <trkpt lat="46.5043" lon="5.32207">
        <ele>210.6</ele>
        <time>2021-11-18T15:00:46Z</time>
      </trkpt>
      <trkpt lat="46.5043" lon="5.32251">
        <ele>210.6</ele>
        <time>2021-11-18T15:00:51Z</time>
      </trkpt>
      <trkpt lat="46.50437" lon="5.32311">
        <ele>211.2</ele>
        <time>2021-11-18T15:00:57Z</time>
      </trkpt>
      <trkpt lat="46.50451" lon="5.32374">
        <ele>212</ele>
        <time>2021-11-18T15:01:03Z</time>
      </trkpt>
      <trkpt lat="46.50457" lon="5.32405">
        <ele>212</ele>
        <time>2021-11-18T15:01:06Z</time>
      </trkpt>
      <trkpt lat="46.50468" lon="5.32486">
        <ele>211.8</ele>
        <time>2021-11-18T15:01:14Z</time>
      </trkpt>
      <trkpt lat="46.50472" lon="5.32563">
        <ele>212.2</ele>
        <time>2021-11-18T15:01:22Z</time>
      </trkpt>
      <trkpt lat="46.50475" lon="5.32637">
        <ele>213</ele>
        <time>2021-11-18T15:01:30Z</time>
      </trkpt>
      <trkpt lat="46.50474" lon="5.32707">
        <ele>214</ele>
        <time>2021-11-18T15:01:38Z</time>
      </trkpt>
      <trkpt lat="46.50474" lon="5.32716">
        <ele>214.2</ele>
        <time>2021-11-18T15:01:39Z</time>
      </trkpt>
      <trkpt lat="46.50473" lon="5.32792">
        <ele>215.2</ele>
        <time>2021-11-18T15:01:48Z</time>
      </trkpt>
      <trkpt lat="46.50473" lon="5.328">
        <ele>215.2</ele>
        <time>2021-11-18T15:01:49Z</time>
      </trkpt>
      <trkpt lat="46.50471" lon="5.3287">
        <ele>215.8</ele>
        <time>2021-11-18T15:01:57Z</time>
      </trkpt>
      <trkpt lat="46.50471" lon="5.32909">
        <ele>216.2</ele>
        <time>2021-11-18T15:02:02Z</time>
      </trkpt>
      <trkpt lat="46.50469" lon="5.32931">
        <ele>217</ele>
        <time>2021-11-18T15:02:05Z</time>
      </trkpt>
      <trkpt lat="46.50469" lon="5.32939">
        <ele>217.2</ele>
        <time>2021-11-18T15:02:06Z</time>
      </trkpt>
      <trkpt lat="46.50468" lon="5.32982">
        <ele>218.6</ele>
        <time>2021-11-18T15:02:12Z</time>
      </trkpt>
      <trkpt lat="46.50468" lon="5.32996">
        <ele>219.2</ele>
        <time>2021-11-18T15:02:14Z</time>
      </trkpt>
      <trkpt lat="46.50469" lon="5.3301">
        <ele>219.6</ele>
        <time>2021-11-18T15:02:16Z</time>
      </trkpt>
      <trkpt lat="46.50468" lon="5.33017">
        <ele>220</ele>
        <time>2021-11-18T15:02:17Z</time>
      </trkpt>
      <trkpt lat="46.50466" lon="5.33045">
        <ele>220.8</ele>
        <time>2021-11-18T15:02:21Z</time>
      </trkpt>
      <trkpt lat="46.50465" lon="5.33079">
        <ele>222</ele>
        <time>2021-11-18T15:02:26Z</time>
      </trkpt>
      <trkpt lat="46.50464" lon="5.33091">
        <ele>222.4</ele>
        <time>2021-11-18T15:02:28Z</time>
      </trkpt>
      <trkpt lat="46.50464" lon="5.33108">
        <ele>223.2</ele>
        <time>2021-11-18T15:02:31Z</time>
      </trkpt>
      <trkpt lat="46.50465" lon="5.33117">
        <ele>223.8</ele>
        <time>2021-11-18T15:02:33Z</time>
      </trkpt>
      <trkpt lat="46.50466" lon="5.33134">
        <ele>224.4</ele>
        <time>2021-11-18T15:02:36Z</time>
      </trkpt>
      <trkpt lat="46.50466" lon="5.3314">
        <ele>224.6</ele>
        <time>2021-11-18T15:02:37Z</time>
      </trkpt>
      <trkpt lat="46.50466" lon="5.33154">
        <ele>225.2</ele>
        <time>2021-11-18T15:02:39Z</time>
      </trkpt>
      <trkpt lat="46.50466" lon="5.33167">
        <ele>225.6</ele>
        <time>2021-11-18T15:02:41Z</time>
      </trkpt>
      <trkpt lat="46.50466" lon="5.33174">
        <ele>226</ele>
        <time>2021-11-18T15:02:42Z</time>
      </trkpt>
      <trkpt lat="46.50468" lon="5.33196">
        <ele>226.6</ele>
        <time>2021-11-18T15:02:45Z</time>
      </trkpt>
      <trkpt lat="46.5047" lon="5.33219">
        <ele>227.2</ele>
        <time>2021-11-18T15:02:48Z</time>
      </trkpt>
      <trkpt lat="46.50471" lon="5.33235">
        <ele>227.4</ele>
        <time>2021-11-18T15:02:50Z</time>
      </trkpt>
      <trkpt lat="46.50471" lon="5.33251">
        <ele>227.6</ele>
        <time>2021-11-18T15:02:52Z</time>
      </trkpt>
      <trkpt lat="46.50471" lon="5.33295">
        <ele>227.8</ele>
        <time>2021-11-18T15:02:57Z</time>
      </trkpt>
      <trkpt lat="46.50473" lon="5.33345">
        <ele>227.4</ele>
        <time>2021-11-18T15:03:02Z</time>
      </trkpt>
      <trkpt lat="46.50471" lon="5.33355">
        <ele>227.4</ele>
        <time>2021-11-18T15:03:03Z</time>
      </trkpt>
      <trkpt lat="46.50466" lon="5.33385">
        <ele>227.2</ele>
        <time>2021-11-18T15:03:06Z</time>
      </trkpt>
      <trkpt lat="46.5046" lon="5.33402">
        <ele>227.2</ele>
        <time>2021-11-18T15:03:08Z</time>
      </trkpt>
      <trkpt lat="46.50457" lon="5.33411">
        <ele>227.2</ele>
        <time>2021-11-18T15:03:09Z</time>
      </trkpt>
      <trkpt lat="46.50438" lon="5.3344">
        <ele>227.2</ele>
        <time>2021-11-18T15:03:13Z</time>
      </trkpt>
      <trkpt lat="46.504" lon="5.33478">
        <ele>227.6</ele>
        <time>2021-11-18T15:03:20Z</time>
      </trkpt>
      <trkpt lat="46.50381" lon="5.335">
        <ele>228.6</ele>
        <time>2021-11-18T15:03:24Z</time>
      </trkpt>
      <trkpt lat="46.50364" lon="5.33516">
        <ele>228.8</ele>
        <time>2021-11-18T15:03:27Z</time>
      </trkpt>
      <trkpt lat="46.50327" lon="5.33555">
        <ele>229.6</ele>
        <time>2021-11-18T15:03:34Z</time>
      </trkpt>
      <trkpt lat="46.50322" lon="5.3356">
        <ele>229.8</ele>
        <time>2021-11-18T15:03:35Z</time>
      </trkpt>
      <trkpt lat="46.50274" lon="5.33614">
        <ele>230.6</ele>
        <time>2021-11-18T15:03:44Z</time>
      </trkpt>
      <trkpt lat="46.50264" lon="5.33624">
        <ele>230.6</ele>
        <time>2021-11-18T15:03:46Z</time>
      </trkpt>
      <trkpt lat="46.50258" lon="5.3363">
        <ele>230.6</ele>
        <time>2021-11-18T15:03:47Z</time>
      </trkpt>
      <trkpt lat="46.5021" lon="5.33678">
        <ele>231.2</ele>
        <time>2021-11-18T15:03:56Z</time>
      </trkpt>
      <trkpt lat="46.502" lon="5.3369">
        <ele>231.4</ele>
        <time>2021-11-18T15:03:58Z</time>
      </trkpt>
      <trkpt lat="46.5018" lon="5.33711">
        <ele>231.8</ele>
        <time>2021-11-18T15:04:02Z</time>
      </trkpt>
      <trkpt lat="46.50157" lon="5.33737">
        <ele>231.8</ele>
        <time>2021-11-18T15:04:06Z</time>
      </trkpt>
      <trkpt lat="46.50108" lon="5.3379">
        <ele>231.4</ele>
        <time>2021-11-18T15:04:14Z</time>
      </trkpt>
      <trkpt lat="46.50072" lon="5.33829">
        <ele>231.4</ele>
        <time>2021-11-18T15:04:20Z</time>
      </trkpt>
      <trkpt lat="46.5005" lon="5.33852">
        <ele>231.6</ele>
        <time>2021-11-18T15:04:24Z</time>
      </trkpt>
      <trkpt lat="46.50025" lon="5.3388">
        <ele>232.8</ele>
        <time>2021-11-18T15:04:29Z</time>
      </trkpt>
      <trkpt lat="46.50004" lon="5.33902">
        <ele>233.6</ele>
        <time>2021-11-18T15:04:33Z</time>
      </trkpt>
      <trkpt lat="46.49989" lon="5.33918">
        <ele>233.8</ele>
        <time>2021-11-18T15:04:36Z</time>
      </trkpt>
      <trkpt lat="46.49966" lon="5.33943">
        <ele>234</ele>
        <time>2021-11-18T15:04:40Z</time>
      </trkpt>
      <trkpt lat="46.49929" lon="5.33983">
        <ele>234</ele>
        <time>2021-11-18T15:04:46Z</time>
      </trkpt>
      <trkpt lat="46.49893" lon="5.34023">
        <ele>233.2</ele>
        <time>2021-11-18T15:04:51Z</time>
      </trkpt>
      <trkpt lat="46.49881" lon="5.34037">
        <ele>232.8</ele>
        <time>2021-11-18T15:04:53Z</time>
      </trkpt>
      <trkpt lat="46.4985" lon="5.34075">
        <ele>231.8</ele>
        <time>2021-11-18T15:04:58Z</time>
      </trkpt>
      <trkpt lat="46.49844" lon="5.34083">
        <ele>231.6</ele>
        <time>2021-11-18T15:04:59Z</time>
      </trkpt>
      <trkpt lat="46.49819" lon="5.34124">
        <ele>231.6</ele>
        <time>2021-11-18T15:05:04Z</time>
      </trkpt>
      <trkpt lat="46.4978" lon="5.34189">
        <ele>231.4</ele>
        <time>2021-11-18T15:05:12Z</time>
      </trkpt>
      <trkpt lat="46.49743" lon="5.34248">
        <ele>231.2</ele>
        <time>2021-11-18T15:05:19Z</time>
      </trkpt>
      <trkpt lat="46.49739" lon="5.34256">
        <ele>231</ele>
        <time>2021-11-18T15:05:20Z</time>
      </trkpt>
      <trkpt lat="46.49709" lon="5.3432">
        <ele>231</ele>
        <time>2021-11-18T15:05:27Z</time>
      </trkpt>
      <trkpt lat="46.49688" lon="5.34393">
        <ele>231</ele>
        <time>2021-11-18T15:05:34Z</time>
      </trkpt>
      <trkpt lat="46.49685" lon="5.34404">
        <ele>230.8</ele>
        <time>2021-11-18T15:05:35Z</time>
      </trkpt>
      <trkpt lat="46.49676" lon="5.34438">
        <ele>230.2</ele>
        <time>2021-11-18T15:05:38Z</time>
      </trkpt>
      <trkpt lat="46.49667" lon="5.34472">
        <ele>229.2</ele>
        <time>2021-11-18T15:05:41Z</time>
      </trkpt>
      <trkpt lat="46.49664" lon="5.34482">
        <ele>228.8</ele>
        <time>2021-11-18T15:05:42Z</time>
      </trkpt>
      <trkpt lat="46.49654" lon="5.34516">
        <ele>228</ele>
        <time>2021-11-18T15:05:45Z</time>
      </trkpt>
      <trkpt lat="46.49643" lon="5.34534">
        <ele>227.4</ele>
        <time>2021-11-18T15:05:47Z</time>
      </trkpt>
      <trkpt lat="46.49636" lon="5.34541">
        <ele>227.4</ele>
        <time>2021-11-18T15:05:48Z</time>
      </trkpt>
      <trkpt lat="46.49623" lon="5.34556">
        <ele>226.8</ele>
        <time>2021-11-18T15:05:50Z</time>
      </trkpt>
      <trkpt lat="46.49611" lon="5.34571">
        <ele>226.4</ele>
        <time>2021-11-18T15:05:52Z</time>
      </trkpt>
      <trkpt lat="46.49606" lon="5.34579">
        <ele>226.2</ele>
        <time>2021-11-18T15:05:53Z</time>
      </trkpt>
      <trkpt lat="46.49573" lon="5.34626">
        <ele>226</ele>
        <time>2021-11-18T15:05:59Z</time>
      </trkpt>
      <trkpt lat="46.49545" lon="5.3466">
        <ele>226.8</ele>
        <time>2021-11-18T15:06:05Z</time>
      </trkpt>
      <trkpt lat="46.49528" lon="5.34679">
        <ele>227.8</ele>
        <time>2021-11-18T15:06:09Z</time>
      </trkpt>
      <trkpt lat="46.49521" lon="5.34688">
        <ele>228.4</ele>
        <time>2021-11-18T15:06:11Z</time>
      </trkpt>
      <trkpt lat="46.4951" lon="5.347">
        <ele>229.2</ele>
        <time>2021-11-18T15:06:14Z</time>
      </trkpt>
      <trkpt lat="46.49507" lon="5.34703">
        <ele>229.4</ele>
        <time>2021-11-18T15:06:15Z</time>
      </trkpt>
      <trkpt lat="46.4949" lon="5.3472">
        <ele>230.4</ele>
        <time>2021-11-18T15:06:19Z</time>
      </trkpt>
      <trkpt lat="46.4949" lon="5.3472">
        <ele>230.6</ele>
        <time>2021-11-18T15:06:20Z</time>
      </trkpt>
      <trkpt lat="46.49479" lon="5.34732">
        <ele>231.6</ele>
        <time>2021-11-18T15:06:23Z</time>
      </trkpt>
      <trkpt lat="46.49471" lon="5.3474">
        <ele>232.6</ele>
        <time>2021-11-18T15:06:26Z</time>
      </trkpt>
      <trkpt lat="46.49468" lon="5.34743">
        <ele>232.8</ele>
        <time>2021-11-18T15:06:27Z</time>
      </trkpt>
      <trkpt lat="46.49457" lon="5.34755">
        <ele>233.8</ele>
        <time>2021-11-18T15:06:30Z</time>
      </trkpt>
      <trkpt lat="46.49444" lon="5.3477">
        <ele>235</ele>
        <time>2021-11-18T15:06:34Z</time>
      </trkpt>
      <trkpt lat="46.49442" lon="5.34773">
        <ele>235.2</ele>
        <time>2021-11-18T15:06:35Z</time>
      </trkpt>
      <trkpt lat="46.49425" lon="5.34792">
        <ele>236</ele>
        <time>2021-11-18T15:06:38Z</time>
      </trkpt>
      <trkpt lat="46.49408" lon="5.34808">
        <ele>236.8</ele>
        <time>2021-11-18T15:06:41Z</time>
      </trkpt>
      <trkpt lat="46.49402" lon="5.3481">
        <ele>237</ele>
        <time>2021-11-18T15:06:42Z</time>
      </trkpt>
      <trkpt lat="46.49396" lon="5.34815">
        <ele>237.2</ele>
        <time>2021-11-18T15:06:43Z</time>
      </trkpt>
      <trkpt lat="46.49392" lon="5.34816">
        <ele>237.6</ele>
        <time>2021-11-18T15:06:44Z</time>
      </trkpt>
      <trkpt lat="46.49382" lon="5.34817">
        <ele>237.8</ele>
        <time>2021-11-18T15:06:46Z</time>
      </trkpt>
      <trkpt lat="46.49348" lon="5.34827">
        <ele>238.2</ele>
        <time>2021-11-18T15:06:52Z</time>
      </trkpt>
      <trkpt lat="46.49343" lon="5.34829">
        <ele>238.2</ele>
        <time>2021-11-18T15:06:53Z</time>
      </trkpt>
      <trkpt lat="46.49314" lon="5.34834">
        <ele>238</ele>
        <time>2021-11-18T15:06:58Z</time>
      </trkpt>
      <trkpt lat="46.49288" lon="5.34844">
        <ele>237.8</ele>
        <time>2021-11-18T15:07:02Z</time>
      </trkpt>
      <trkpt lat="46.49284" lon="5.34846">
        <ele>237.8</ele>
        <time>2021-11-18T15:07:03Z</time>
      </trkpt>
      <trkpt lat="46.49279" lon="5.3485">
        <ele>237.8</ele>
        <time>2021-11-18T15:07:04Z</time>
      </trkpt>
      <trkpt lat="46.49266" lon="5.34865">
        <ele>237.8</ele>
        <time>2021-11-18T15:07:07Z</time>
      </trkpt>
      <trkpt lat="46.49262" lon="5.34871">
        <ele>237.8</ele>
        <time>2021-11-18T15:07:08Z</time>
      </trkpt>
      <trkpt lat="46.4923" lon="5.3492">
        <ele>238.6</ele>
        <time>2021-11-18T15:07:15Z</time>
      </trkpt>
      <trkpt lat="46.49198" lon="5.34967">
        <ele>238.6</ele>
        <time>2021-11-18T15:07:21Z</time>
      </trkpt>
      <trkpt lat="46.49159" lon="5.3501">
        <ele>238.6</ele>
        <time>2021-11-18T15:07:28Z</time>
      </trkpt>
      <trkpt lat="46.49147" lon="5.35023">
        <ele>238.6</ele>
        <time>2021-11-18T15:07:30Z</time>
      </trkpt>
      <trkpt lat="46.4913" lon="5.35035">
        <ele>238.8</ele>
        <time>2021-11-18T15:07:33Z</time>
      </trkpt>
      <trkpt lat="46.49125" lon="5.35039">
        <ele>238.8</ele>
        <time>2021-11-18T15:07:34Z</time>
      </trkpt>
      <trkpt lat="46.49113" lon="5.3505">
        <ele>239</ele>
        <time>2021-11-18T15:07:36Z</time>
      </trkpt>
      <trkpt lat="46.49109" lon="5.35053">
        <ele>239</ele>
        <time>2021-11-18T15:07:37Z</time>
      </trkpt>
      <trkpt lat="46.49092" lon="5.3507">
        <ele>239.4</ele>
        <time>2021-11-18T15:07:40Z</time>
      </trkpt>
      <trkpt lat="46.49081" lon="5.35078">
        <ele>239.6</ele>
        <time>2021-11-18T15:07:42Z</time>
      </trkpt>
      <trkpt lat="46.4907" lon="5.35087">
        <ele>239.8</ele>
        <time>2021-11-18T15:07:45Z</time>
      </trkpt>
      <trkpt lat="46.49053" lon="5.351">
        <ele>240.2</ele>
        <time>2021-11-18T15:07:48Z</time>
      </trkpt>
      <trkpt lat="46.49045" lon="5.35108">
        <ele>240.8</ele>
        <time>2021-11-18T15:07:50Z</time>
      </trkpt>
      <trkpt lat="46.49037" lon="5.35119">
        <ele>241</ele>
        <time>2021-11-18T15:07:52Z</time>
      </trkpt>
      <trkpt lat="46.49033" lon="5.35127">
        <ele>241</ele>
        <time>2021-11-18T15:07:53Z</time>
      </trkpt>
      <trkpt lat="46.4903" lon="5.35134">
        <ele>241.2</ele>
        <time>2021-11-18T15:07:54Z</time>
      </trkpt>
      <trkpt lat="46.49019" lon="5.35158">
        <ele>241.4</ele>
        <time>2021-11-18T15:07:57Z</time>
      </trkpt>
      <trkpt lat="46.48995" lon="5.35212">
        <ele>241.4</ele>
        <time>2021-11-18T15:08:03Z</time>
      </trkpt>
      <trkpt lat="46.48964" lon="5.35279">
        <ele>240.2</ele>
        <time>2021-11-18T15:08:09Z</time>
      </trkpt>
      <trkpt lat="46.48964" lon="5.35279">
        <ele>240</ele>
        <time>2021-11-18T15:08:10Z</time>
      </trkpt>
      <trkpt lat="46.48931" lon="5.35355">
        <ele>238.8</ele>
        <time>2021-11-18T15:08:17Z</time>
      </trkpt>
      <trkpt lat="46.48923" lon="5.35373">
        <ele>238.8</ele>
        <time>2021-11-18T15:08:19Z</time>
      </trkpt>
      <trkpt lat="46.48895" lon="5.35433">
        <ele>239.2</ele>
        <time>2021-11-18T15:08:27Z</time>
      </trkpt>
      <trkpt lat="46.48862" lon="5.35509">
        <ele>239.8</ele>
        <time>2021-11-18T15:08:35Z</time>
      </trkpt>
      <trkpt lat="46.4886" lon="5.35515">
        <ele>240</ele>
        <time>2021-11-18T15:08:36Z</time>
      </trkpt>
      <trkpt lat="46.48835" lon="5.35571">
        <ele>240.6</ele>
        <time>2021-11-18T15:08:43Z</time>
      </trkpt>
      <trkpt lat="46.48806" lon="5.35638">
        <ele>240.6</ele>
        <time>2021-11-18T15:08:51Z</time>
      </trkpt>
      <trkpt lat="46.48802" lon="5.35646">
        <ele>240.6</ele>
        <time>2021-11-18T15:08:52Z</time>
      </trkpt>
      <trkpt lat="46.48771" lon="5.35717">
        <ele>240.4</ele>
        <time>2021-11-18T15:09:00Z</time>
      </trkpt>
      <trkpt lat="46.48742" lon="5.35783">
        <ele>240.4</ele>
        <time>2021-11-18T15:09:08Z</time>
      </trkpt>
      <trkpt lat="46.48731" lon="5.35809">
        <ele>240.4</ele>
        <time>2021-11-18T15:09:11Z</time>
      </trkpt>
      <trkpt lat="46.48708" lon="5.35866">
        <ele>240.8</ele>
        <time>2021-11-18T15:09:18Z</time>
      </trkpt>
      <trkpt lat="46.48698" lon="5.35889">
        <ele>241</ele>
        <time>2021-11-18T15:09:21Z</time>
      </trkpt>
      <trkpt lat="46.48692" lon="5.35905">
        <ele>241.2</ele>
        <time>2021-11-18T15:09:23Z</time>
      </trkpt>
      <trkpt lat="46.4869" lon="5.35913">
        <ele>241.4</ele>
        <time>2021-11-18T15:09:24Z</time>
      </trkpt>
      <trkpt lat="46.48685" lon="5.3594">
        <ele>242.2</ele>
        <time>2021-11-18T15:09:28Z</time>
      </trkpt>
      <trkpt lat="46.48679" lon="5.35985">
        <ele>243.2</ele>
        <time>2021-11-18T15:09:32Z</time>
      </trkpt>
      <trkpt lat="46.48677" lon="5.36001">
        <ele>243.6</ele>
        <time>2021-11-18T15:09:34Z</time>
      </trkpt>
      <trkpt lat="46.48673" lon="5.36029">
        <ele>243.6</ele>
        <time>2021-11-18T15:09:37Z</time>
      </trkpt>
      <trkpt lat="46.48668" lon="5.36052">
        <ele>243.6</ele>
        <time>2021-11-18T15:09:39Z</time>
      </trkpt>
      <trkpt lat="46.48651" lon="5.36132">
        <ele>242.4</ele>
        <time>2021-11-18T15:09:46Z</time>
      </trkpt>
      <trkpt lat="46.48647" lon="5.36165">
        <ele>242.2</ele>
        <time>2021-11-18T15:09:49Z</time>
      </trkpt>
      <trkpt lat="46.48645" lon="5.36187">
        <ele>242.2</ele>
        <time>2021-11-18T15:09:51Z</time>
      </trkpt>
      <trkpt lat="46.48637" lon="5.36261">
        <ele>242.8</ele>
        <time>2021-11-18T15:09:58Z</time>
      </trkpt>
      <trkpt lat="46.48633" lon="5.36279">
        <ele>242.8</ele>
        <time>2021-11-18T15:10:00Z</time>
      </trkpt>
      <trkpt lat="46.48629" lon="5.36296">
        <ele>243</ele>
        <time>2021-11-18T15:10:02Z</time>
      </trkpt>
      <trkpt lat="46.48625" lon="5.36303">
        <ele>243.2</ele>
        <time>2021-11-18T15:10:03Z</time>
      </trkpt>
      <trkpt lat="46.48621" lon="5.36309">
        <ele>243.4</ele>
        <time>2021-11-18T15:10:04Z</time>
      </trkpt>
      <trkpt lat="46.48611" lon="5.36317">
        <ele>243.8</ele>
        <time>2021-11-18T15:10:06Z</time>
      </trkpt>
      <trkpt lat="46.48589" lon="5.36322">
        <ele>244.4</ele>
        <time>2021-11-18T15:10:10Z</time>
      </trkpt>
      <trkpt lat="46.48583" lon="5.36324">
        <ele>244.8</ele>
        <time>2021-11-18T15:10:11Z</time>
      </trkpt>
      <trkpt lat="46.48567" lon="5.36326">
        <ele>245.6</ele>
        <time>2021-11-18T15:10:14Z</time>
      </trkpt>
      <trkpt lat="46.48545" lon="5.36329">
        <ele>246.8</ele>
        <time>2021-11-18T15:10:18Z</time>
      </trkpt>
      <trkpt lat="46.48529" lon="5.36332">
        <ele>248</ele>
        <time>2021-11-18T15:10:22Z</time>
      </trkpt>
      <trkpt lat="46.48494" lon="5.36338">
        <ele>248.8</ele>
        <time>2021-11-18T15:10:28Z</time>
      </trkpt>
      <trkpt lat="46.48476" lon="5.36341">
        <ele>249.2</ele>
        <time>2021-11-18T15:10:31Z</time>
      </trkpt>
      <trkpt lat="46.48426" lon="5.36351">
        <ele>249.6</ele>
        <time>2021-11-18T15:10:38Z</time>
      </trkpt>
      <trkpt lat="46.48407" lon="5.36361">
        <ele>249.8</ele>
        <time>2021-11-18T15:10:41Z</time>
      </trkpt>
      <trkpt lat="46.4839" lon="5.36376">
        <ele>249.8</ele>
        <time>2021-11-18T15:10:44Z</time>
      </trkpt>
      <trkpt lat="46.48347" lon="5.36422">
        <ele>250.2</ele>
        <time>2021-11-18T15:10:52Z</time>
      </trkpt>
      <trkpt lat="46.48303" lon="5.36471">
        <ele>251.2</ele>
        <time>2021-11-18T15:11:01Z</time>
      </trkpt>
      <trkpt lat="46.48299" lon="5.36476">
        <ele>251.4</ele>
        <time>2021-11-18T15:11:02Z</time>
      </trkpt>
      <trkpt lat="46.48276" lon="5.36502">
        <ele>252.4</ele>
        <time>2021-11-18T15:11:07Z</time>
      </trkpt>
      <trkpt lat="46.48253" lon="5.36526">
        <ele>253.2</ele>
        <time>2021-11-18T15:11:12Z</time>
      </trkpt>
      <trkpt lat="46.48244" lon="5.36536">
        <ele>253.6</ele>
        <time>2021-11-18T15:11:14Z</time>
      </trkpt>
      <trkpt lat="46.48228" lon="5.36553">
        <ele>254.2</ele>
        <time>2021-11-18T15:11:18Z</time>
      </trkpt>
      <trkpt lat="46.48218" lon="5.36557">
        <ele>254.2</ele>
        <time>2021-11-18T15:11:20Z</time>
      </trkpt>
      <trkpt lat="46.48212" lon="5.36557">
        <ele>254.4</ele>
        <time>2021-11-18T15:11:21Z</time>
      </trkpt>
      <trkpt lat="46.48207" lon="5.36558">
        <ele>254.4</ele>
        <time>2021-11-18T15:11:22Z</time>
      </trkpt>
      <trkpt lat="46.48197" lon="5.36564">
        <ele>254.6</ele>
        <time>2021-11-18T15:11:24Z</time>
      </trkpt>
      <trkpt lat="46.48193" lon="5.36569">
        <ele>254.8</ele>
        <time>2021-11-18T15:11:25Z</time>
      </trkpt>
      <trkpt lat="46.48187" lon="5.36584">
        <ele>255</ele>
        <time>2021-11-18T15:11:27Z</time>
      </trkpt>
      <trkpt lat="46.48181" lon="5.36599">
        <ele>255.4</ele>
        <time>2021-11-18T15:11:29Z</time>
      </trkpt>
      <trkpt lat="46.48178" lon="5.36606">
        <ele>255.8</ele>
        <time>2021-11-18T15:11:30Z</time>
      </trkpt>
      <trkpt lat="46.48169" lon="5.36617">
        <ele>256.2</ele>
        <time>2021-11-18T15:11:32Z</time>
      </trkpt>
      <trkpt lat="46.48151" lon="5.36637">
        <ele>256.4</ele>
        <time>2021-11-18T15:11:36Z</time>
      </trkpt>
      <trkpt lat="46.48115" lon="5.36677">
        <ele>256.8</ele>
        <time>2021-11-18T15:11:44Z</time>
      </trkpt>
      <trkpt lat="46.48115" lon="5.36677">
        <ele>257</ele>
        <time>2021-11-18T15:11:45Z</time>
      </trkpt>
      <trkpt lat="46.48105" lon="5.36689">
        <ele>257.4</ele>
        <time>2021-11-18T15:11:47Z</time>
      </trkpt>
      <trkpt lat="46.48104" lon="5.36695">
        <ele>257.4</ele>
        <time>2021-11-18T15:11:48Z</time>
      </trkpt>
      <trkpt lat="46.48105" lon="5.36701">
        <ele>257.4</ele>
        <time>2021-11-18T15:11:49Z</time>
      </trkpt>
      <trkpt lat="46.48111" lon="5.3671">
        <ele>257.8</ele>
        <time>2021-11-18T15:11:51Z</time>
      </trkpt>
      <trkpt lat="46.48117" lon="5.36716">
        <ele>258</ele>
        <time>2021-11-18T15:11:53Z</time>
      </trkpt>
      <trkpt lat="46.48133" lon="5.36728">
        <ele>259</ele>
        <time>2021-11-18T15:11:57Z</time>
      </trkpt>
      <trkpt lat="46.48161" lon="5.3675">
        <ele>260.2</ele>
        <time>2021-11-18T15:12:04Z</time>
      </trkpt>
      <trkpt lat="46.48168" lon="5.36756">
        <ele>260.6</ele>
        <time>2021-11-18T15:12:06Z</time>
      </trkpt>
      <trkpt lat="46.48174" lon="5.36762">
        <ele>261.4</ele>
        <time>2021-11-18T15:12:09Z</time>
      </trkpt>
      <trkpt lat="46.48196" lon="5.3678">
        <ele>262.4</ele>
        <time>2021-11-18T15:12:14Z</time>
      </trkpt>
      <trkpt lat="46.482" lon="5.36783">
        <ele>262.6</ele>
        <time>2021-11-18T15:12:15Z</time>
      </trkpt>
      <trkpt lat="46.4821" lon="5.36791">
        <ele>263.6</ele>
        <time>2021-11-18T15:12:18Z</time>
      </trkpt>
      <trkpt lat="46.48232" lon="5.36809">
        <ele>264.6</ele>
        <time>2021-11-18T15:12:24Z</time>
      </trkpt>
      <trkpt lat="46.48236" lon="5.36813">
        <ele>265</ele>
        <time>2021-11-18T15:12:25Z</time>
      </trkpt>
      <trkpt lat="46.48242" lon="5.3682">
        <ele>265.6</ele>
        <time>2021-11-18T15:12:27Z</time>
      </trkpt>
      <trkpt lat="46.48246" lon="5.36823">
        <ele>265.6</ele>
        <time>2021-11-18T15:12:28Z</time>
      </trkpt>
      <trkpt lat="46.48256" lon="5.36832">
        <ele>267</ele>
        <time>2021-11-18T15:12:32Z</time>
      </trkpt>
    </trkseg>
  </trk>
</gpx>